EW1734 Weather Reports


time (UTC)temp
F
wind
direction
speed
knots
gust
knots
rain 1hr
in
rain 24hr
in
rain mn
in
humidity
%
barometer
mb
20260905090213 62 64 0.0 0.9 0.00 0.00 0.00 78 1012.9
20260905090021 62 60 0.9 0.0 0.00 0.00 0.00 78 1013.2
20260905085932 62 89 0.0 1.7 0.00 0.00 0.00 78 1014.0
20260905085919 62 60 0.9 0.0 0.00 0.00 0.00 78 1013.2
20260905085820 62 60 0.9 0.0 0.00 0.00 0.00 78 1013.2
20260905085749 62 60 0.9 0.0 0.00 0.00 0.00 78 1013.2
20260905085719 62 60 0.9 0.0 0.00 0.00 0.00 78 1013.2
20260905085624 62 60 0.9 0.0 0.00 0.00 0.00 78 1013.2
20260905085602 62 60 0.9 1.7 0.00 0.00 0.00 78 1013.2
20260905085522 62 60 0.9 0.0 0.00 0.00 0.00 78 1013.2
20260905085431 62 68 1.7 1.7 0.00 0.00 0.00 78 1014.0
20260905085422 62 60 0.9 0.0 0.00 0.00 0.00 78 1013.2
20260905085322 62 60 0.9 0.0 0.00 0.00 0.00 78 1013.2
20260905085309 62 89 0.0 0.0 0.00 0.00 0.00 78 1013.1
20260905085241 62 60 0.9 0.0 0.00 0.00 0.00 78 1013.2
20260905085233 62 60 0.9 0.0 0.00 0.00 0.00 78 1013.2
20260905085021 62 89 0.0 0.0 0.00 0.00 0.00 78 1013.1
20260905084956 62 89 0.0 0.0 0.00 0.00 0.00 77 1013.2
20260905084933 62 89 0.0 0.0 0.00 0.00 0.00 78 1013.1
20260905084928 62 89 0.0 0.9 0.00 0.00 0.00 78 1014.1
20260905084758 62 89 0.0 0.0 0.00 0.00 0.00 77 1013.1
20260905084719 62 89 0.0 0.0 0.00 0.00 0.00 78 1013.1
20260905084651 62 89 0.0 0.0 0.00 0.00 0.00 78 1013.1
20260905084641 62 89 0.0 0.0 0.00 0.00 0.00 77 1013.1
20260905084620 62 89 0.0 0.0 0.00 0.00 0.00 78 1013.1
20260905084603 62 89 0.0 0.0 0.00 0.00 0.00 78 1013.1
20260905084448 62 89 0.0 0.0 0.00 0.00 0.00 78 1013.1
20260905084438 62 89 0.0 0.0 0.00 0.00 0.00 77 1013.2
20260905084434 62 89 0.0 0.0 0.00 0.00 0.00 77 1013.1
20260905084427 62 83 0.9 1.7 0.00 0.00 0.00 77 1014.1
20260905084301 62 89 0.0 0.0 0.00 0.00 0.00 77 1013.1
20260905084130 62 89 0.0 0.0 0.00 0.00 0.00 77 1013.2
20260905084126 62 89 0.0 0.9 0.00 0.00 0.00 77 1013.1
20260905084112 62 89 0.0 0.0 0.00 0.00 0.00 77 1013.2
20260905083922 62 42 0.0 1.7 0.00 0.00 0.00 77 1014.1
20260905083820 62 89 0.0 0.0 0.00 0.00 0.00 77 1013.2
20260905083750 62 89 0.0 0.0 0.00 0.00 0.00 77 1013.2
20260905083719 62 89 0.0 0.0 0.00 0.00 0.00 77 1013.2
20260905083706 62 89 0.0 0.0 0.00 0.00 0.00 77 1013.2
20260905083659 62 89 0.0 0.0 0.00 0.00 0.00 77 1013.2
20260905083519 62 89 0.0 0.0 0.00 0.00 0.00 77 1013.2
20260905083419 62 89 0.0 0.0 0.00 0.00 0.00 77 1013.2
20260905083319 62 89 0.0 0.0 0.00 0.00 0.00 77 1013.2
20260905083251 63 34 0.9 0.0 0.00 0.00 0.00 77 1013.0
20260905083241 62 89 0.0 0.0 0.00 0.00 0.00 77 1013.2
20260905083233 62 89 0.0 0.0 0.00 0.00 0.00 77 1013.2
20260905083019 62 34 0.9 0.0 0.00 0.00 0.00 77 1013.0
20260905082940 63 34 0.9 0.0 0.00 0.00 0.00 77 1013.0
20260905082920 62 34 0.9 0.0 0.00 0.00 0.00 77 1013.0
20260905082913 62 352 0.0 1.7 0.00 0.00 0.00 77 1014.2
20260905082839 62 34 0.9 0.0 0.00 0.00 0.00 77 1013.0
20260905082830 62 34 0.9 0.0 0.00 0.00 0.00 77 1013.0
20260905082621 63 34 0.9 0.0 0.00 0.00 0.00 77 1013.0
20260905082608 63 34 0.9 0.9 0.00 0.00 0.00 76 1013.0
20260905082559 63 34 0.9 0.0 0.00 0.00 0.00 77 1013.0
20260905082420 63 34 0.9 0.0 0.00 0.00 0.00 76 1013.0
20260905082410 63 56 0.9 0.9 0.00 0.00 0.00 76 1014.1
20260905082320 63 34 0.9 0.0 0.00 0.00 0.00 76 1013.0
20260905082241 63 34 0.9 0.0 0.00 0.00 0.00 76 1013.0
20260905082233 63 34 0.9 0.0 0.00 0.00 0.00 76 1013.0
20260905082021 63 6 0.0 0.0 0.00 0.00 0.00 76 1013.2
20260905081932 63 6 0.0 0.0 0.00 0.00 0.00 76 1013.2
20260905081909 63 19 0.0 1.7 0.00 0.00 0.00 76 1014.0
20260905081850 63 6 0.0 0.0 0.00 0.00 0.00 76 1013.2
20260905081819 63 6 0.0 0.0 0.00 0.00 0.00 76 1013.2
20260905081720 63 6 0.0 0.0 0.00 0.00 0.00 76 1013.2
20260905081619 63 6 0.0 0.0 0.00 0.00 0.00 76 1013.2
20260905081520 63 6 0.0 0.0 0.00 0.00 0.00 76 1013.2
20260905081420 63 6 0.0 0.0 0.00 0.00 0.00 76 1013.2
20260905081404 63 40 1.7 1.7 0.00 0.00 0.00 76 1014.1
20260905081327 63 6 0.0 0.0 0.00 0.00 0.00 76 1013.2
20260905081220 63 6 0.0 0.0 0.00 0.00 0.00 76 1013.2
20260905081148 63 6 0.0 0.0 0.00 0.00 0.00 76 1013.2
20260905081121 63 6 0.0 1.7 0.00 0.00 0.00 76 1013.2
20260905081022 63 30 0.0 0.0 0.00 0.00 0.00 76 1013.0
20260905080922 63 30 0.0 0.0 0.00 0.00 0.00 76 1013.0
20260905080903 63 45 0.9 1.7 0.00 0.00 0.00 76 1014.0
20260905080819 63 30 0.0 0.0 0.00 0.00 0.00 76 1013.0
20260905080723 63 30 0.0 0.0 0.00 0.00 0.00 76 1013.0
20260905080719 63 30 0.0 0.0 0.00 0.00 0.00 76 1013.0
20260905080620 63 30 0.0 0.0 0.00 0.00 0.00 76 1013.0
20260905080559 63 30 0.0 0.9 0.00 0.00 0.00 76 1013.0
20260905080532 63 30 0.0 0.0 0.00 0.00 0.00 76 1013.0
20260905080438 63 30 0.0 0.0 0.00 0.00 0.00 76 1013.0
20260905080403 63 18 0.0 0.0 0.00 0.00 0.00 76 1013.1
20260905080358 63 6 1.7 1.7 0.00 0.00 0.00 76 1014.1
20260905080355 63 30 0.0 0.0 0.00 0.00 0.00 76 1013.0
20260905080341 63 30 0.0 0.0 0.00 0.00 0.00 76 1013.0
20260905080020 63 18 0.0 0.0 0.00 0.00 0.00 76 1013.1
20260905075920 63 18 0.0 0.0 0.00 0.00 0.00 76 1013.1
20260905075857 63 38 0.0 1.7 0.00 0.00 0.00 76 1014.1
20260905075850 63 18 0.0 0.0 0.00 0.00 0.00 76 1013.1
20260905075819 63 18 0.0 0.0 0.00 0.00 0.00 76 1013.1
20260905075739 63 18 0.0 0.0 0.00 0.00 0.00 76 1013.1
20260905075735 63 18 0.0 0.0 0.00 0.00 0.00 76 1013.1
20260905075520 63 18 0.0 0.0 0.00 0.00 0.00 76 1013.1
20260905075449 63 18 0.0 0.0 0.00 0.00 0.00 76 1013.1
20260905075419 63 18 0.0 0.0 0.00 0.00 0.00 76 1013.1
20260905075357 63 19 0.0 1.7 0.00 0.00 0.00 76 1014.0
20260905075332 63 18 0.0 0.0 0.00 0.00 0.00 76 1013.1
20260905075307 63 41 0.0 0.0 0.00 0.00 0.00 76 1013.2
20260905075300 63 18 0.0 0.0 0.00 0.00 0.00 76 1013.1
20260905075133 63 18 0.0 0.9 0.00 0.00 0.00 76 1013.1
20260905075034 63 41 0.0 0.0 0.00 0.00 0.00 76 1013.2
20260905074919 63 41 0.0 0.0 0.00 0.00 0.00 76 1013.2
20260905074900 63 41 0.0 0.0 0.00 0.00 0.00 76 1013.2
20260905074856 63 47 0.0 1.7 0.00 0.00 0.00 76 1014.1
20260905074719 63 41 0.0 0.0 0.00 0.00 0.00 76 1013.2
20260905074620 63 41 0.0 0.0 0.00 0.00 0.00 76 1013.2
20260905074558 63 41 0.0 0.9 0.00 0.00 0.00 75 1013.2
20260905074520 63 41 0.0 0.0 0.00 0.00 0.00 76 1013.2
20260905074419 63 41 0.0 0.0 0.00 0.00 0.00 76 1013.2
20260905074356 63 74 0.0 0.0 0.00 0.00 0.00 75 1013.2
20260905074352 63 49 0.0 1.7 0.00 0.00 0.00 75 1014.1
20260905074350 63 41 0.0 0.0 0.00 0.00 0.00 76 1013.2
20260905074319 63 41 0.0 0.0 0.00 0.00 0.00 75 1013.2
20260905074244 63 41 0.0 0.0 0.00 0.00 0.00 75 1013.2
20260905074232 63 41 0.0 0.0 0.00 0.00 0.00 75 1013.2
20260905074033 63 74 0.0 0.0 0.00 0.00 0.00 75 1013.2
20260905073847 63 38 0.9 1.7 0.00 0.00 0.00 76 1014.3
20260905073834 63 74 0.0 0.0 0.00 0.00 0.00 76 1013.2
20260905073719 63 74 0.0 0.0 0.00 0.00 0.00 76 1013.2
20260905073632 63 74 0.0 0.0 0.00 0.00 0.00 76 1013.2
20260905073606 63 74 0.0 0.9 0.00 0.00 0.00 76 1013.2
20260905073520 63 74 0.0 0.0 0.00 0.00 0.00 76 1013.2
20260905073421 63 74 0.0 0.0 0.00 0.00 0.00 76 1013.2
20260905073404 63 44 0.0 0.0 0.00 0.00 0.00 76 1013.3
20260905073351 63 74 0.0 0.0 0.00 0.00 0.00 76 1013.2
20260905073343 63 59 0.9 1.7 0.00 0.00 0.00 76 1014.1
20260905073319 63 74 0.0 0.0 0.00 0.00 0.00 76 1013.2
20260905073249 63 44 0.0 0.0 0.00 0.00 0.00 75 1013.3
20260905073239 63 74 0.0 0.0 0.00 0.00 0.00 76 1013.2
20260905073231 63 74 0.0 0.0 0.00 0.00 0.00 76 1013.2
20260905073039 63 44 0.0 0.0 0.00 0.00 0.00 75 1013.3
20260905073035 63 44 0.0 0.0 0.00 0.00 0.00 76 1013.3
20260905072849 63 44 0.0 0.0 0.00 0.00 0.00 76 1013.3
20260905072837 63 30 0.9 1.7 0.00 0.00 0.00 75 1014.1
20260905072620 63 44 0.0 0.0 0.00 0.00 0.00 75 1013.3
20260905072601 63 44 0.0 0.0 0.00 0.00 0.00 75 1013.3
20260905072419 63 44 0.0 0.0 0.00 0.00 0.00 75 1013.3
20260905072332 63 70 1.7 1.7 0.00 0.00 0.00 75 1014.1
20260905072320 63 44 0.0 0.0 0.00 0.00 0.00 75 1013.3
20260905072257 63 35 0.0 0.0 0.00 0.00 0.00 75 1013.2
20260905072252 63 44 0.0 0.0 0.00 0.00 0.00 75 1013.3
20260905072220 63 44 0.0 0.0 0.00 0.00 0.00 75 1013.3
20260905072149 63 44 0.0 0.0 0.00 0.00 0.00 75 1013.3
20260905072120 63 44 0.0 0.9 0.00 0.00 0.00 75 1013.3
20260905072057 63 35 0.0 0.0 0.00 0.00 0.00 75 1013.2
20260905072021 63 35 0.0 0.0 0.00 0.00 0.00 75 1013.2
20260905071934 63 35 0.0 0.0 0.00 0.00 0.00 75 1013.2
20260905071829 63 60 0.9 1.7 0.00 0.00 0.00 75 1014.1
20260905071801 64 71 0.9 0.0 0.00 0.00 0.00 75 1013.0
20260905071737 64 35 0.0 0.0 0.00 0.00 0.00 75 1013.2
20260905071733 63 35 0.0 0.0 0.00 0.00 0.00 75 1013.2
20260905071550 63 35 0.0 0.0 0.00 0.00 0.00 75 1013.2
20260905071519 64 35 0.0 0.0 0.00 0.00 0.00 75 1013.2
20260905071500 64 71 0.9 0.0 0.00 0.00 0.00 75 1013.0
20260905071435 64 35 0.0 0.0 0.00 0.00 0.00 75 1013.2
20260905071423 64 35 0.0 0.0 0.00 0.00 0.00 75 1013.2
20260905071320 64 73 0.9 1.7 0.00 0.00 0.00 75 1014.0
20260905071305 64 71 0.9 0.0 0.00 0.00 0.00 75 1013.0
20260905071258 64 35 0.0 0.0 0.00 0.00 0.00 75 1013.2
20260905071125 64 35 0.0 0.0 0.00 0.00 0.00 75 1013.2
20260905071110 64 71 0.9 0.0 0.00 0.00 0.00 75 1013.0
20260905070954 64 71 0.9 0.0 0.00 0.00 0.00 75 1013.0
20260905070944 64 71 0.9 0.0 0.00 0.00 0.00 74 1013.0
20260905070814 64 49 1.7 2.6 0.00 0.00 0.00 75 1014.0
20260905070620 64 71 0.9 0.0 0.00 0.00 0.00 75 1013.0
20260905070520 64 71 0.9 0.0 0.00 0.00 0.00 75 1013.0
20260905070435 64 71 0.9 0.0 0.00 0.00 0.00 75 1013.0
20260905070310 64 51 1.7 1.7 0.00 0.00 0.00 75 1013.9
20260905070220 64 71 0.9 0.0 0.00 0.00 0.00 75 1013.0
20260905070207 63 50 0.0 0.0 0.00 0.00 0.00 75 1013.0
20260905070149 64 71 0.9 0.0 0.00 0.00 0.00 75 1013.0
20260905070120 64 71 0.9 1.7 0.00 0.00 0.00 75 1013.0
20260905070020 63 50 0.0 0.0 0.00 0.00 0.00 75 1013.0
20260905065919 63 50 0.0 0.0 0.00 0.00 0.00 75 1013.0
20260905065838 63 50 0.0 0.0 0.00 0.00 0.00 75 1013.0
20260905065834 63 50 0.0 0.0 0.00 0.00 0.00 75 1013.0
20260905065809 63 67 0.9 0.9 0.00 0.00 0.00 75 1013.7
20260905065648 63 50 0.0 0.0 0.00 0.00 0.00 75 1013.0
20260905065622 64 50 0.0 0.0 0.00 0.00 0.00 75 1013.0
20260905065548 64 50 0.0 0.0 0.00 0.00 0.00 75 1013.0
20260905065522 63 50 0.0 0.0 0.00 0.00 0.00 75 1013.0
20260905065433 63 50 0.0 0.0 0.00 0.00 0.00 75 1013.0
20260905065308 63 61 0.9 0.9 0.00 0.00 0.00 75 1013.8
20260905065220 63 50 0.0 0.0 0.00 0.00 0.00 75 1013.0
20260905065149 63 50 0.0 0.0 0.00 0.00 0.00 75 1013.0
20260905065125 64 50 0.0 0.0 0.00 0.00 0.00 74 1013.0
20260905065110 64 68 1.7 0.0 0.00 0.00 0.00 74 1013.0
20260905065024 64 68 1.7 0.0 0.00 0.00 0.00 74 1013.0
20260905065020 64 68 1.7 0.0 0.00 0.00 0.00 74 1013.0
20260905064919 64 68 1.7 0.0 0.00 0.00 0.00 74 1013.0
20260905064821 64 68 1.7 0.0 0.00 0.00 0.00 74 1013.0
20260905064803 64 73 1.7 1.7 0.00 0.00 0.00 74 1013.8
20260905064748 64 68 1.7 0.0 0.00 0.00 0.00 74 1013.0
20260905064519 64 68 1.7 0.0 0.00 0.00 0.00 74 1013.0
20260905064433 64 68 1.7 0.0 0.00 0.00 0.00 74 1013.0
20260905064320 64 68 1.7 0.0 0.00 0.00 0.00 74 1013.0
20260905064259 64 58 0.0 1.7 0.00 0.00 0.00 74 1013.7
20260905064219 64 68 1.7 0.0 0.00 0.00 0.00 74 1013.0
20260905064159 64 68 0.9 0.0 0.00 0.00 0.00 73 1012.9
20260905064149 64 68 1.7 0.0 0.00 0.00 0.00 73 1013.0
20260905064120 64 68 1.7 1.7 0.00 0.00 0.00 74 1013.0
20260905064028 64 68 0.9 0.0 0.00 0.00 0.00 73 1012.9
20260905064020 64 68 0.9 0.0 0.00 0.00 0.00 73 1012.9
20260905063919 64 68 0.9 0.0 0.00 0.00 0.00 73 1012.9
20260905063834 64 68 0.9 0.0 0.00 0.00 0.00 73 1012.9
20260905063757 64 55 0.0 0.9 0.00 0.00 0.00 73 1013.7
20260905063705 64 68 0.9 0.0 0.00 0.00 0.00 73 1012.9
20260905063658 64 68 0.9 0.0 0.00 0.00 0.00 73 1012.9
20260905063519 64 68 0.9 0.0 0.00 0.00 0.00 73 1012.9
20260905063421 64 68 0.9 0.0 0.00 0.00 0.00 73 1012.9
20260905063320 64 68 0.9 0.0 0.00 0.00 0.00 73 1012.9
20260905063259 64 68 0.9 0.0 0.00 0.00 0.00 73 1012.9
20260905063254 64 49 0.0 1.7 0.00 0.00 0.00 73 1013.7
20260905063120 64 68 0.9 0.9 0.00 0.00 0.00 73 1012.9
20260905063032 64 89 0.0 0.0 0.00 0.00 0.00 72 1012.9
20260905063027 64 89 0.0 0.0 0.00 0.00 0.00 73 1012.9
20260905062925 64 89 0.0 0.0 0.00 0.00 0.00 73 1012.9
20260905062819 64 89 0.0 0.0 0.00 0.00 0.00 73 1012.9
20260905062749 64 34 0.0 1.7 0.00 0.00 0.00 73 1013.6
20260905062721 64 89 0.0 0.0 0.00 0.00 0.00 73 1012.9
20260905062655 64 89 0.0 0.0 0.00 0.00 0.00 72 1012.9
20260905062519 64 89 0.0 0.0 0.00 0.00 0.00 72 1012.9
20260905062419 64 89 0.0 0.0 0.00 0.00 0.00 72 1012.9
20260905062320 64 89 0.0 0.0 0.00 0.00 0.00 72 1012.9
20260905062248 65 44 0.0 1.7 0.00 0.00 0.00 72 1013.8
20260905062222 65 89 0.0 0.0 0.00 0.00 0.00 72 1012.9
20260905062149 65 89 0.0 0.0 0.00 0.00 0.00 72 1012.9
20260905062120 65 89 0.0 0.9 0.00 0.00 0.00 72 1012.9
20260905062020 65 22 0.9 0.0 0.00 0.00 0.00 72 1012.9
20260905061920 65 22 0.9 0.0 0.00 0.00 0.00 72 1012.9
20260905061820 65 22 0.9 0.0 0.00 0.00 0.00 71 1012.9
20260905061743 65 89 0.0 0.9 0.00 0.00 0.00 71 1013.8
20260905061720 65 22 0.9 0.0 0.00 0.00 0.00 71 1012.9
20260905061619 65 22 0.9 0.0 0.00 0.00 0.00 71 1012.9
20260905061520 65 22 0.9 0.0 0.00 0.00 0.00 71 1012.9
20260905061419 65 22 0.9 0.0 0.00 0.00 0.00 71 1012.9
20260905061320 65 22 0.9 0.0 0.00 0.00 0.00 71 1012.9
20260905061238 65 42 0.0 0.9 0.00 0.00 0.00 71 1013.8
20260905061225 65 82 0.0 0.0 0.00 0.00 0.00 70 1012.9
20260905061220 65 22 0.9 0.0 0.00 0.00 0.00 71 1012.9
20260905061148 65 22 0.9 0.0 0.00 0.00 0.00 71 1012.9
20260905061120 65 22 0.9 0.9 0.00 0.00 0.00 71 1012.9
20260905061036 65 82 0.0 0.0 0.00 0.00 0.00 71 1012.9
20260905060932 65 82 0.0 0.0 0.00 0.00 0.00 71 1012.9
20260905060905 65 82 0.0 0.0 0.00 0.00 0.00 70 1012.9
20260905060858 65 82 0.0 0.0 0.00 0.00 0.00 70 1012.9
20260905060732 65 55 0.0 0.9 0.00 0.00 0.00 70 1013.8
20260905060719 65 82 0.0 0.0 0.00 0.00 0.00 70 1012.9
20260905060632 65 82 0.0 0.0 0.00 0.00 0.00 70 1012.9
20260905060520 65 82 0.0 0.0 0.00 0.00 0.00 70 1012.9
20260905060458 65 82 0.0 0.0 0.00 0.00 0.00 70 1012.9
20260905060321 65 82 0.0 0.0 0.00 0.00 0.00 70 1012.9
20260905060248 65 82 0.0 0.0 0.00 0.00 0.00 70 1012.9
20260905060230 66 89 0.0 1.7 0.00 0.00 0.00 69 1013.8
20260905060221 65 82 0.0 0.0 0.00 0.00 0.00 69 1012.9
20260905060148 65 82 0.0 0.0 0.00 0.00 0.00 69 1012.9
20260905060120 65 82 0.0 1.7 0.00 0.00 0.00 69 1012.9
20260905060020 66 57 0.0 0.0 0.00 0.00 0.00 69 1012.9
20260905060001 66 57 0.0 0.0 0.00 0.00 0.00 69 1012.9
20260905055919 66 57 0.0 0.0 0.00 0.00 0.00 69 1012.9
20260905055848 66 57 0.0 0.0 0.00 0.00 0.00 70 1012.9
20260905055819 66 57 0.0 0.0 0.00 0.00 0.00 69 1012.9
20260905055728 66 51 0.0 0.9 0.00 0.00 0.00 70 1013.9
20260905055726 65 57 0.0 0.0 0.00 0.00 0.00 70 1012.9
20260905055721 66 57 0.0 0.0 0.00 0.00 0.00 69 1012.9
20260905055635 66 57 0.0 0.0 0.00 0.00 0.00 70 1012.9
20260905055424 66 44 0.0 0.0 0.00 0.00 0.00 70 1012.8
20260905055420 66 57 0.0 0.0 0.00 0.00 0.00 69 1012.9
20260905055408 66 57 0.0 0.0 0.00 0.00 0.00 70 1012.9
20260905055358 65 57 0.0 0.0 0.00 0.00 0.00 70 1012.9
20260905055230 66 44 0.0 0.0 0.00 0.00 0.00 70 1012.8
20260905055224 66 50 0.0 0.0 0.00 0.00 0.00 70 1013.8
20260905055219 65 57 0.0 0.0 0.00 0.00 0.00 70 1012.9
20260905055149 65 57 0.0 0.0 0.00 0.00 0.00 70 1012.9
20260905055120 65 57 0.0 0.0 0.00 0.00 0.00 70 1012.9
20260905055029 66 44 0.0 0.0 0.00 0.00 0.00 70 1012.8
20260905055025 65 44 0.0 0.0 0.00 0.00 0.00 70 1012.8
20260905055010 65 44 0.0 0.0 0.00 0.00 0.00 70 1012.8
20260905054719 66 44 0.0 0.0 0.00 0.00 0.00 70 1012.8
20260905054652 66 129 0.0 0.0 0.00 0.00 0.00 69 1012.9
20260905054648 66 44 0.0 0.0 0.00 0.00 0.00 70 1012.8
20260905054617 66 44 0.0 0.0 0.00 0.00 0.00 69 1012.8
20260905054558 66 44 0.0 0.0 0.00 0.00 0.00 69 1012.8
20260905054421 66 44 0.0 0.0 0.00 0.00 0.00 70 1012.8
20260905054401 66 129 0.0 0.0 0.00 0.00 0.00 71 1012.9
20260905054337 66 44 0.0 0.0 0.00 0.00 0.00 70 1012.8
20260905054329 66 44 0.0 0.0 0.00 0.00 0.00 69 1012.8
20260905054319 66 44 0.0 0.0 0.00 0.00 0.00 70 1012.8
20260905054215 66 34 0.0 0.9 0.00 0.00 0.00 70 1013.6
20260905054148 66 44 0.0 0.0 0.00 0.00 0.00 70 1012.8
20260905054120 66 44 0.0 0.0 0.00 0.00 0.00 70 1012.8
20260905054047 66 129 0.0 0.0 0.00 0.00 0.00 70 1012.9
20260905054020 66 129 0.0 0.0 0.00 0.00 0.00 69 1012.9
20260905054006 66 129 0.0 0.0 0.00 0.00 0.00 69 1012.9
20260905053849 66 129 0.0 0.0 0.00 0.00 0.00 70 1012.9
20260905053840 65 129 0.0 0.0 0.00 0.00 0.00 70 1012.9
20260905053713 66 89 0.0 0.9 0.00 0.00 0.00 70 1013.8
20260905053619 66 129 0.0 0.0 0.00 0.00 0.00 70 1012.9
20260905053547 66 129 0.0 0.0 0.00 0.00 0.00 71 1012.9
20260905053519 66 129 0.0 0.0 0.00 0.00 0.00 70 1012.9
20260905053452 66 57 0.0 0.0 0.00 0.00 0.00 71 1012.8
20260905053426 66 57 0.0 0.0 0.00 0.00 0.00 73 1012.8
20260905053419 66 129 0.0 0.0 0.00 0.00 0.00 70 1012.9
20260905053400 66 129 0.0 0.0 0.00 0.00 0.00 70 1012.9
20260905053220 66 129 0.0 0.0 0.00 0.00 0.00 70 1012.9
20260905053208 66 129 0.0 1.7 0.00 0.00 0.00 71 1013.7
20260905053151 66 57 0.0 0.0 0.00 0.00 0.00 72 1012.8
20260905053147 66 129 0.0 0.0 0.00 0.00 0.00 70 1012.9
20260905053136 66 57 0.0 0.0 0.00 0.00 0.00 72 1012.8
20260905053132 66 129 0.0 0.9 0.00 0.00 0.00 71 1012.9
20260905053118 66 57 0.0 0.0 0.00 0.00 0.00 71 1012.8
20260905053107 66 57 0.0 0.0 0.00 0.00 0.00 71 1012.8
20260905052818 66 57 0.0 0.0 0.00 0.00 0.00 71 1012.8
20260905052738 66 57 0.0 0.0 0.00 0.00 0.00 71 1012.8
20260905052725 66 57 0.0 0.0 0.00 0.00 0.00 72 1012.8
20260905052703 66 59 0.9 1.7 0.00 0.00 0.00 72 1013.7
20260905052322 66 57 0.0 0.0 0.00 0.00 0.00 73 1012.8
20260905052219 66 57 0.0 0.0 0.00 0.00 0.00 73 1012.8
20260905052201 66 57 0.0 0.0 0.00 0.00 0.00 74 1012.8
20260905052158 66 52 0.0 0.9 0.00 0.00 0.00 73 1013.5
20260905052119 66 57 0.0 0.9 0.00 0.00 0.00 73 1012.8
20260905052017 66 67 0.0 0.0 0.00 0.00 0.00 73 1012.7
20260905051949 66 67 0.0 0.0 0.00 0.00 0.00 74 1012.7
20260905051917 66 67 0.0 0.0 0.00 0.00 0.00 74 1012.7
20260905051832 66 67 0.0 0.0 0.00 0.00 0.00 74 1012.7
20260905051748 66 67 0.0 0.0 0.00 0.00 0.00 74 1012.7
20260905051721 67 67 0.0 0.0 0.00 0.00 0.00 74 1012.7
20260905051658 67 47 0.0 0.9 0.00 0.00 0.00 74 1013.6
20260905051619 67 67 0.0 0.0 0.00 0.00 0.00 74 1012.7
20260905051520 67 67 0.0 0.0 0.00 0.00 0.00 74 1012.7
20260905051419 67 67 0.0 0.0 0.00 0.00 0.00 74 1012.7
20260905051331 67 63 0.0 0.0 0.00 0.00 0.00 74 1012.6
20260905051319 67 67 0.0 0.0 0.00 0.00 0.00 74 1012.7
20260905051220 67 67 0.0 0.0 0.00 0.00 0.00 74 1012.7
20260905051155 67 52 0.0 0.9 0.00 0.00 0.00 74 1013.6
20260905051147 67 67 0.0 0.0 0.00 0.00 0.00 74 1012.7
20260905051121 67 67 0.0 0.0 0.00 0.00 0.00 74 1012.7
20260905051020 67 63 0.0 0.0 0.00 0.00 0.00 74 1012.6
20260905050958 67 63 0.0 0.0 0.00 0.00 0.00 74 1012.6
20260905050817 67 63 0.0 0.0 0.00 0.00 0.00 74 1012.6
20260905050720 67 63 0.0 0.0 0.00 0.00 0.00 74 1012.6
20260905050651 67 63 0.0 0.0 0.00 0.00 0.00 74 1012.6
20260905050617 67 63 0.0 0.0 0.00 0.00 0.00 74 1012.6
20260905050553 67 37 0.0 0.0 0.00 0.00 0.00 75 1012.6
20260905050548 67 63 0.0 0.0 0.00 0.00 0.00 74 1012.6
20260905050518 67 63 0.0 0.0 0.00 0.00 0.00 74 1012.6
20260905050422 67 63 0.0 0.0 0.00 0.00 0.00 74 1012.6
20260905050348 67 63 0.0 0.0 0.00 0.00 0.00 74 1012.6
20260905050317 67 63 0.0 0.0 0.00 0.00 0.00 74 1012.6
20260905050237 67 37 0.0 0.0 0.00 0.00 0.00 76 1012.6
20260905050231 67 63 0.0 0.0 0.00 0.00 0.00 75 1012.6
20260905050223 67 63 0.0 0.0 0.00 0.00 0.00 75 1012.6
20260905050213 67 63 0.0 0.9 0.00 0.00 0.00 75 1012.6
20260905050147 68 89 0.0 0.9 0.00 0.00 0.00 75 1013.7
20260905050026 68 37 0.0 0.0 0.00 0.00 0.00 76 1012.6
20260905050017 67 37 0.0 0.0 0.00 0.00 0.00 75 1012.6
20260905045918 67 37 0.0 0.0 0.00 0.00 0.00 75 1012.6
20260905045848 67 37 0.0 0.0 0.00 0.00 0.00 75 1012.6
20260905045837 68 37 0.0 0.0 0.00 0.00 0.00 75 1012.6
20260905045831 67 37 0.0 0.0 0.00 0.00 0.00 76 1012.6
20260905045706 68 37 0.0 0.0 0.00 0.00 0.00 75 1012.6
20260905045659 68 37 0.0 0.0 0.00 0.00 0.00 76 1012.6
20260905045646 68 80 0.0 0.9 0.00 0.00 0.00 76 1013.8
20260905045519 68 37 0.0 0.0 0.00 0.00 0.00 76 1012.6
20260905045457 68 37 0.0 0.0 0.00 0.00 0.00 75 1012.6
20260905045318 68 37 0.0 0.0 0.00 0.00 0.00 75 1012.6
20260905045259 68 37 0.0 0.0 0.00 0.00 0.00 75 1012.6
20260905045143 68 37 0.0 0.9 0.00 0.00 0.00 75 1013.5
20260905045120 68 37 0.0 0.0 0.00 0.00 0.00 75 1012.6
20260905045020 68 353 0.0 0.0 0.00 0.00 0.00 75 1012.7
20260905044919 68 353 0.0 0.0 0.00 0.00 0.00 75 1012.7
20260905044819 68 353 0.0 0.0 0.00 0.00 0.00 75 1012.7
20260905044722 68 353 0.0 0.0 0.00 0.00 0.00 75 1012.7
20260905044700 68 353 0.0 0.0 0.00 0.00 0.00 75 1012.7
20260905044653 68 353 0.0 0.0 0.00 0.00 0.00 75 1012.7
20260905044642 68 37 0.0 0.0 0.00 0.00 0.00 75 1013.7
20260905044620 68 353 0.0 0.0 0.00 0.00 0.00 75 1012.7
20260905044547 68 353 0.0 0.0 0.00 0.00 0.00 75 1012.7
20260905044517 68 353 0.0 0.0 0.00 0.00 0.00 75 1012.7
20260905044448 68 353 0.0 0.0 0.00 0.00 0.00 75 1012.7
20260905044417 68 353 0.0 0.0 0.00 0.00 0.00 75 1012.7
20260905044354 68 343 0.0 0.0 0.00 0.00 0.00 75 1012.7
20260905044346 68 353 0.0 0.0 0.00 0.00 0.00 75 1012.7
20260905044153 68 343 0.0 0.0 0.00 0.00 0.00 75 1012.7
20260905044149 68 353 0.0 0.0 0.00 0.00 0.00 75 1012.7
20260905044137 68 353 0.0 0.0 0.00 0.00 0.00 75 1013.6
20260905044119 68 353 0.0 0.0 0.00 0.00 0.00 75 1012.7
20260905044047 68 343 0.0 0.0 0.00 0.00 0.00 75 1012.7
20260905044021 68 343 0.0 0.0 0.00 0.00 0.00 75 1012.7
20260905044017 68 343 0.0 0.0 0.00 0.00 0.00 75 1012.7
20260905043954 68 343 0.0 0.0 0.00 0.00 0.00 75 1012.7
20260905043946 68 343 0.0 0.0 0.00 0.00 0.00 75 1012.7
20260905043636 68 6 0.0 0.9 0.00 0.00 0.00 75 1013.5
20260905043458 68 343 0.0 0.0 0.00 0.00 0.00 75 1012.7
20260905043319 68 343 0.0 0.0 0.00 0.00 0.00 75 1012.7
20260905043247 68 343 0.0 0.0 0.00 0.00 0.00 75 1012.7
20260905043217 68 343 0.0 0.0 0.00 0.00 0.00 75 1012.7
20260905043148 68 343 0.0 0.0 0.00 0.00 0.00 75 1012.7
20260905043131 68 37 0.0 0.9 0.00 0.00 0.00 75 1013.5
20260905043119 68 343 0.0 0.9 0.00 0.00 0.00 75 1012.7
20260905043100 68 329 0.0 0.0 0.00 0.00 0.00 74 1012.5
20260905043049 68 329 0.0 0.0 0.00 0.00 0.00 75 1012.5
20260905043020 68 329 0.0 0.0 0.00 0.00 0.00 74 1012.5
20260905042950 68 329 0.0 0.0 0.00 0.00 0.00 74 1012.5
20260905042918 68 329 0.0 0.0 0.00 0.00 0.00 74 1012.5
20260905042819 68 329 0.0 0.0 0.00 0.00 0.00 74 1012.5
20260905042759 68 329 0.0 0.0 0.00 0.00 0.00 74 1012.5
20260905042748 68 329 0.0 0.0 0.00 0.00 0.00 75 1012.5
20260905042734 68 329 0.0 0.0 0.00 0.00 0.00 74 1012.5
20260905042630 68 48 0.0 0.9 0.00 0.00 0.00 74 1013.5
20260905042550 68 329 0.0 0.0 0.00 0.00 0.00 74 1012.5
20260905042540 68 13 0.0 0.0 0.00 0.00 0.00 74 1012.4
20260905042519 68 329 0.0 0.0 0.00 0.00 0.00 75 1012.5
20260905042438 68 13 0.0 0.0 0.00 0.00 0.00 74 1012.4
20260905042433 68 329 0.0 0.0 0.00 0.00 0.00 74 1012.5
20260905042235 69 13 0.0 0.0 0.00 0.00 0.00 74 1012.4
20260905042231 68 329 0.0 0.0 0.00 0.00 0.00 74 1012.5
20260905042222 68 329 0.0 0.0 0.00 0.00 0.00 74 1012.5
20260905042212 68 329 0.0 0.0 0.00 0.00 0.00 74 1012.5
20260905042125 68 329 0.0 0.9 0.00 0.00 0.00 74 1013.5
20260905041919 69 13 0.0 0.0 0.00 0.00 0.00 74 1012.4
20260905041908 69 13 0.0 0.0 0.00 0.00 0.00 74 1012.4
20260905041819 69 13 0.0 0.0 0.00 0.00 0.00 74 1012.4
20260905041721 69 13 0.0 0.0 0.00 0.00 0.00 74 1012.4
20260905041702 69 50 0.0 0.0 0.00 0.00 0.00 74 1012.4
20260905041653 69 13 0.0 0.0 0.00 0.00 0.00 74 1012.4
20260905041621 69 51 0.0 0.9 0.00 0.00 0.00 74 1013.5
20260905041324 69 50 0.0 0.0 0.00 0.00 0.00 73 1012.4
20260905041319 69 13 0.0 0.0 0.00 0.00 0.00 74 1012.4
20260905041224 69 50 0.0 0.0 0.00 0.00 0.00 73 1012.4
20260905041219 69 13 0.0 0.0 0.00 0.00 0.00 74 1012.4
20260905041209 69 13 0.0 0.0 0.00 0.00 0.00 74 1012.4
20260905041159 69 13 0.0 0.0 0.00 0.00 0.00 74 1012.4
20260905041116 69 50 0.0 0.9 0.00 0.00 0.00 74 1013.3
20260905041018 69 50 0.0 0.0 0.00 0.00 0.00 73 1012.4
20260905041005 69 50 0.0 0.0 0.00 0.00 0.00 73 1012.4
20260905040958 69 50 0.0 0.0 0.00 0.00 0.00 73 1012.4
20260905040818 69 50 0.0 0.0 0.00 0.00 0.00 73 1012.4
20260905040725 69 50 0.0 0.0 0.00 0.00 0.00 73 1012.4
20260905040711 69 50 0.0 0.0 0.00 0.00 0.00 73 1012.4
20260905040616 69 10 0.0 1.7 0.00 0.00 0.00 73 1013.3
20260905040419 69 50 0.0 0.0 0.00 0.00 0.00 73 1012.4
20260905040319 69 50 0.0 0.0 0.00 0.00 0.00 73 1012.4
20260905040217 69 50 0.0 0.0 0.00 0.00 0.00 73 1012.4
20260905040147 69 50 0.0 0.0 0.00 0.00 0.00 73 1012.4
20260905040119 69 50 0.0 0.0 0.00 0.00 0.00 73 1012.4
20260905040115 69 50 0.0 0.0 0.00 0.00 0.00 73 1013.3
20260905040103 69 37 0.0 0.0 0.00 0.00 0.00 73 1012.3
20260905040019 69 37 0.0 0.0 0.00 0.00 0.00 73 1012.3
20260905035948 69 37 0.0 0.0 0.00 0.00 0.00 73 1012.3
20260905035917 69 37 0.0 0.0 0.00 0.00 0.00 73 1012.3
20260905035819 69 37 0.0 0.0 0.00 0.00 0.00 72 1012.3
20260905035722 69 37 0.0 0.0 0.00 0.00 0.00 72 1012.3
20260905035711 69 37 0.0 0.0 0.00 0.00 0.00 72 1012.3
20260905035618 69 37 0.0 0.0 0.00 0.00 0.00 72 1012.3
20260905035610 69 48 0.9 1.7 0.00 0.00 0.00 73 1013.3
20260905035602 69 37 0.0 0.0 0.00 0.00 0.00 72 1012.3
20260905035548 69 37 0.0 0.0 0.00 0.00 0.00 73 1012.3
20260905035517 69 37 0.0 0.0 0.00 0.00 0.00 72 1012.3
20260905035450 69 37 0.0 0.0 0.00 0.00 0.00 72 1012.3
20260905035418 69 37 0.0 0.0 0.00 0.00 0.00 72 1012.3
20260905035353 69 37 0.0 0.0 0.00 0.00 0.00 72 1012.3
20260905035339 69 37 0.0 0.0 0.00 0.00 0.00 72 1012.3
20260905035107 69 224 0.0 1.7 0.00 0.00 0.00 72 1013.2
20260905035052 69 89 0.0 0.0 0.00 0.00 0.00 72 1012.2
20260905035019 69 89 0.0 0.0 0.00 0.00 0.00 72 1012.2
20260905034952 69 89 0.0 0.0 0.00 0.00 0.00 72 1012.2
20260905034922 69 89 0.0 0.0 0.00 0.00 0.00 72 1012.2
20260905034819 69 89 0.0 0.0 0.00 0.00 0.00 72 1012.2
20260905034717 69 89 0.0 0.0 0.00 0.00 0.00 72 1012.2
20260905034633 69 89 0.0 0.0 0.00 0.00 0.00 72 1012.2
20260905034603 69 37 0.0 0.0 0.00 0.00 0.00 72 1013.1
20260905034419 69 89 0.0 0.0 0.00 0.00 0.00 72 1012.2
20260905034318 69 89 0.0 0.0 0.00 0.00 0.00 72 1012.2
20260905034247 69 89 0.0 0.0 0.00 0.00 0.00 72 1012.2
20260905034220 70 89 0.0 0.0 0.00 0.00 0.00 72 1012.2
20260905034147 70 89 0.0 0.0 0.00 0.00 0.00 72 1012.2
20260905034123 70 89 0.0 0.0 0.00 0.00 0.00 72 1012.2
20260905034111 70 37 0.0 0.0 0.00 0.00 0.00 72 1012.2
20260905034102 70 89 0.0 0.0 0.00 0.00 0.00 72 1013.0
20260905034049 70 37 0.0 0.0 0.00 0.00 0.00 72 1012.2
20260905034017 70 37 0.0 0.0 0.00 0.00 0.00 72 1012.2
20260905033919 70 37 0.0 0.0 0.00 0.00 0.00 72 1012.2
20260905033847 70 37 0.0 0.0 0.00 0.00 0.00 72 1012.2
20260905033817 70 37 0.0 0.0 0.00 0.00 0.00 71 1012.2
20260905033755 70 37 0.0 0.0 0.00 0.00 0.00 71 1012.2
20260905033747 70 37 0.0 0.0 0.00 0.00 0.00 71 1012.2
20260905033733 70 37 0.0 0.0 0.00 0.00 0.00 72 1012.2
20260905033556 70 53 0.0 0.9 0.00 0.00 0.00 72 1013.1
20260905033527 70 299 0.0 0.0 0.00 0.00 0.00 71 1011.9
20260905033520 70 37 0.0 0.0 0.00 0.00 0.00 72 1012.2
20260905033433 70 37 0.0 0.0 0.00 0.00 0.00 72 1012.2
20260905033220 70 37 0.0 0.0 0.00 0.00 0.00 71 1012.2
20260905033205 70 299 0.0 0.0 0.00 0.00 0.00 71 1011.9
20260905033201 70 37 0.0 0.0 0.00 0.00 0.00 71 1012.2
20260905033151 70 37 0.0 0.0 0.00 0.00 0.00 71 1012.2
20260905033052 70 89 0.0 0.0 0.00 0.00 0.00 71 1013.0
20260905032918 70 299 0.0 0.0 0.00 0.00 0.00 71 1011.9
20260905032858 70 299 0.0 0.0 0.00 0.00 0.00 70 1011.9
20260905032832 70 299 0.0 0.0 0.00 0.00 0.00 71 1011.9
20260905032701 70 299 0.0 0.0 0.00 0.00 0.00 70 1011.9
20260905032620 70 299 0.0 0.0 0.00 0.00 0.00 71 1011.9
20260905032552 70 299 0.0 0.0 0.00 0.00 0.00 70 1013.0
20260905032548 70 299 0.0 0.0 0.00 0.00 0.00 71 1011.9
20260905032535 70 299 0.0 0.0 0.00 0.00 0.00 70 1011.9
20260905032337 70 37 0.0 0.0 0.00 0.00 0.00 70 1011.9
20260905032333 70 299 0.0 0.0 0.00 0.00 0.00 70 1011.9
20260905032148 70 299 0.0 0.0 0.00 0.00 0.00 70 1011.9
20260905032122 70 299 0.0 0.0 0.00 0.00 0.00 70 1011.9
20260905032047 70 37 0.0 0.0 0.00 0.00 0.00 70 1011.9
20260905032017 70 37 0.0 0.0 0.00 0.00 0.00 70 1011.9
20260905031951 70 37 0.0 0.0 0.00 0.00 0.00 71 1011.9
20260905031917 70 37 0.0 0.0 0.00 0.00 0.00 71 1011.9
20260905031859 70 37 0.0 0.0 0.00 0.00 0.00 71 1011.9
20260905031717 70 37 0.0 0.0 0.00 0.00 0.00 70 1011.9
20260905031657 71 37 0.0 0.0 0.00 0.00 0.00 71 1011.9
20260905031619 70 37 0.0 0.0 0.00 0.00 0.00 70 1011.9
20260905031543 70 344 0.0 0.9 0.00 0.00 0.00 71 1013.0
20260905031533 71 89 0.0 0.0 0.00 0.00 0.00 71 1011.9
20260905031519 70 37 0.0 0.0 0.00 0.00 0.00 70 1011.9
20260905031500 70 37 0.0 0.0 0.00 0.00 0.00 71 1011.9
20260905031419 71 37 0.0 0.0 0.00 0.00 0.00 71 1011.9
20260905031336 71 37 0.0 0.0 0.00 0.00 0.00 71 1011.9
20260905031323 71 37 0.0 0.0 0.00 0.00 0.00 71 1011.9
20260905031313 71 37 0.0 0.0 0.00 0.00 0.00 71 1011.9
20260905031042 71 34 0.0 0.9 0.00 0.00 0.00 71 1012.9
20260905031019 71 89 0.0 0.0 0.00 0.00 0.00 71 1011.9
20260905030921 71 89 0.0 0.0 0.00 0.00 0.00 71 1011.9
20260905030849 71 89 0.0 0.0 0.00 0.00 0.00 71 1011.9
20260905030819 71 89 0.0 0.0 0.00 0.00 0.00 71 1011.9
20260905030802 71 89 0.0 0.0 0.00 0.00 0.00 71 1011.9
20260905030719 71 89 0.0 0.0 0.00 0.00 0.00 71 1011.9
20260905030620 71 89 0.0 0.0 0.00 0.00 0.00 71 1011.9
20260905030538 71 161 0.0 0.9 0.00 0.00 0.00 71 1012.6
20260905030524 71 89 0.0 0.0 0.00 0.00 0.00 71 1011.9
20260905030506 71 6 0.9 0.0 0.00 0.00 0.00 70 1011.7
20260905030444 71 89 0.0 0.0 0.00 0.00 0.00 71 1011.9
20260905030248 71 89 0.0 0.0 0.00 0.00 0.00 71 1011.9
20260905030222 71 6 0.9 0.0 0.00 0.00 0.00 70 1011.7
20260905030218 71 89 0.0 0.0 0.00 0.00 0.00 71 1011.9
20260905030203 71 89 0.0 0.0 0.00 0.00 0.00 71 1011.9
20260905030140 71 6 0.9 0.0 0.00 0.00 0.00 70 1011.7
20260905030136 71 89 0.0 0.0 0.00 0.00 0.00 71 1011.9
20260905030105 71 6 0.9 0.0 0.00 0.00 0.00 71 1011.7
20260905030044 71 6 0.9 0.0 0.00 0.00 0.00 71 1011.7
20260905030037 71 29 0.0 0.9 0.00 0.00 0.00 71 1012.6
20260905025831 71 6 0.9 0.0 0.00 0.00 0.00 70 1011.7
20260905025700 71 6 0.9 0.0 0.00 0.00 0.00 70 1011.7
20260905025620 71 6 0.9 0.0 0.00 0.00 0.00 70 1011.7
20260905025605 71 17 0.0 0.0 0.00 0.00 0.00 70 1011.7
20260905025558 71 6 0.9 0.0 0.00 0.00 0.00 70 1011.7
20260905025532 71 256 0.0 1.7 0.00 0.00 0.00 70 1012.6
20260905025418 71 6 0.9 0.0 0.00 0.00 0.00 70 1011.7
20260905025337 72 17 0.0 0.0 0.00 0.00 0.00 70 1011.7
20260905025332 71 6 0.9 0.0 0.00 0.00 0.00 70 1011.7
20260905025152 71 6 0.9 0.0 0.00 0.00 0.00 70 1011.7
20260905025142 71 6 0.9 0.9 0.00 0.00 0.00 70 1011.7
20260905025029 71 345 0.0 0.9 0.00 0.00 0.00 70 1012.7
20260905024959 71 17 0.0 0.0 0.00 0.00 0.00 70 1011.7
20260905024819 72 17 0.0 0.0 0.00 0.00 0.00 69 1011.7
20260905024724 72 17 0.0 0.0 0.00 0.00 0.00 69 1011.7
20260905024647 72 17 0.0 0.0 0.00 0.00 0.00 69 1011.7
20260905024617 72 17 0.0 0.0 0.00 0.00 0.00 69 1011.7
20260905024524 72 147 0.0 1.7 0.00 0.00 0.00 69 1012.5
20260905024519 72 17 0.0 0.0 0.00 0.00 0.00 69 1011.7
20260905024422 72 17 0.0 0.0 0.00 0.00 0.00 69 1011.7
20260905024319 72 17 0.0 0.0 0.00 0.00 0.00 69 1011.7
20260905024232 72 297 0.0 0.0 0.00 0.00 0.00 68 1011.7
20260905024219 72 17 0.0 0.0 0.00 0.00 0.00 69 1011.7
20260905024148 72 17 0.0 0.0 0.00 0.00 0.00 69 1011.7
20260905024121 72 17 0.0 0.9 0.00 0.00 0.00 69 1011.7
20260905024107 72 297 0.0 0.0 0.00 0.00 0.00 68 1011.7
20260905024019 72 297 0.0 0.0 0.00 0.00 0.00 69 1011.7
20260905023947 72 297 0.0 0.0 0.00 0.00 0.00 68 1011.7
20260905023919 72 297 0.0 0.0 0.00 0.00 0.00 69 1011.7
20260905023906 72 297 0.0 0.0 0.00 0.00 0.00 69 1011.7
20260905023733 72 297 0.0 0.0 0.00 0.00 0.00 68 1011.7
20260905023548 72 297 0.0 0.0 0.00 0.00 0.00 68 1011.7
20260905023517 72 297 0.0 0.0 0.00 0.00 0.00 69 1011.7
20260905023514 72 31 0.9 1.7 0.00 0.00 0.00 68 1012.5
20260905023432 72 297 0.0 0.0 0.00 0.00 0.00 68 1011.7
20260905023219 72 297 0.0 0.0 0.00 0.00 0.00 68 1011.7
20260905023148 72 297 0.0 0.0 0.00 0.00 0.00 68 1011.7
20260905023121 72 297 0.0 0.0 0.00 0.00 0.00 68 1011.7
20260905023020 72 15 0.0 0.0 0.00 0.00 0.00 68 1011.8
20260905023009 72 271 0.0 1.7 0.00 0.00 0.00 67 1012.7
20260905022948 72 15 0.0 0.0 0.00 0.00 0.00 68 1011.8
20260905022929 73 15 0.0 0.0 0.00 0.00 0.00 67 1011.8
20260905022925 72 15 0.0 0.0 0.00 0.00 0.00 67 1011.8
20260905022900 72 15 0.0 0.0 0.00 0.00 0.00 67 1011.8
20260905022819 72 15 0.0 0.0 0.00 0.00 0.00 67 1011.8
20260905022731 73 15 0.0 0.0 0.00 0.00 0.00 67 1011.8
20260905022719 72 15 0.0 0.0 0.00 0.00 0.00 67 1011.8
20260905022648 72 15 0.0 0.0 0.00 0.00 0.00 68 1011.8
20260905022620 72 15 0.0 0.0 0.00 0.00 0.00 67 1011.8
20260905022549 73 15 0.0 0.0 0.00 0.00 0.00 67 1011.8
20260905022503 73 51 0.0 1.7 0.00 0.00 0.00 67 1012.5
20260905022406 73 2 0.9 0.0 0.00 0.00 0.00 66 1011.7
20260905022359 73 15 0.0 0.0 0.00 0.00 0.00 67 1011.8
20260905022219 73 15 0.0 0.0 0.00 0.00 0.00 67 1011.8
20260905022147 73 15 0.0 0.0 0.00 0.00 0.00 66 1011.8
20260905022120 73 15 0.0 0.0 0.00 0.00 0.00 66 1011.8
20260905022048 73 2 0.9 0.0 0.00 0.00 0.00 67 1011.7
20260905022020 73 2 0.9 0.0 0.00 0.00 0.00 66 1011.7
20260905022006 73 2 0.9 0.0 0.00 0.00 0.00 65 1011.7
20260905021959 73 2 0.9 0.0 0.00 0.00 0.00 66 1011.7
20260905021817 73 2 0.9 0.0 0.00 0.00 0.00 66 1011.7
20260905021735 73 2 0.9 0.0 0.00 0.00 0.00 65 1011.7
20260905021731 73 2 0.9 0.0 0.00 0.00 0.00 66 1011.7
20260905021619 73 2 0.9 0.0 0.00 0.00 0.00 66 1011.7
20260905021535 73 2 0.9 0.0 0.00 0.00 0.00 66 1011.7
20260905021458 73 337 0.0 1.7 0.00 0.00 0.00 65 1012.6
20260905021400 73 2 0.9 0.0 0.00 0.00 0.00 65 1011.7
20260905021223 73 2 0.9 0.0 0.00 0.00 0.00 65 1011.7
20260905021148 73 2 0.9 0.0 0.00 0.00 0.00 65 1011.7
20260905021120 73 2 0.9 0.9 0.00 0.00 0.00 65 1011.7
20260905021038 73 320 0.0 0.0 0.00 0.00 0.00 65 1011.7
20260905020953 73 72 0.0 1.7 0.00 0.00 0.00 65 1012.6
20260905020920 73 320 0.0 0.0 0.00 0.00 0.00 65 1011.7
20260905020910 73 320 0.0 0.0 0.00 0.00 0.00 64 1011.7
20260905020820 73 320 0.0 0.0 0.00 0.00 0.00 65 1011.7
20260905020747 73 320 0.0 0.0 0.00 0.00 0.00 65 1011.7
20260905020735 74 320 0.0 0.0 0.00 0.00 0.00 64 1011.7
20260905020717 73 320 0.0 0.0 0.00 0.00 0.00 65 1011.7
20260905020632 74 320 0.0 0.0 0.00 0.00 0.00 64 1011.7
20260905020619 73 320 0.0 0.0 0.00 0.00 0.00 65 1011.7
20260905020604 74 4 0.9 0.0 0.00 0.00 0.00 63 1011.7
20260905020554 73 320 0.0 0.0 0.00 0.00 0.00 64 1011.7
20260905020542 73 320 0.0 0.0 0.00 0.00 0.00 64 1011.7
20260905020447 73 51 0.0 1.7 0.00 0.00 0.00 64 1012.5
20260905020423 74 320 0.0 0.0 0.00 0.00 0.00 64 1011.7
20260905020412 74 320 0.0 0.0 0.00 0.00 0.00 65 1011.7
20260905020128 74 320 0.0 0.9 0.00 0.00 0.00 64 1011.7
20260905020114 74 4 0.9 0.0 0.00 0.00 0.00 64 1011.7
20260905015948 74 148 0.0 2.6 0.00 0.00 0.00 63 1012.5
20260905015921 74 4 0.9 0.0 0.00 0.00 0.00 63 1011.7
20260905015821 74 4 0.9 0.0 0.00 0.00 0.00 63 1011.7
20260905015800 74 4 0.9 0.0 0.00 0.00 0.00 62 1011.7
20260905015747 74 4 0.9 0.0 0.00 0.00 0.00 63 1011.7
20260905015717 74 4 0.9 0.0 0.00 0.00 0.00 63 1011.7
20260905015619 74 4 0.9 0.0 0.00 0.00 0.00 63 1011.7
20260905015519 74 4 0.9 0.0 0.00 0.00 0.00 63 1011.7
20260905015501 75 336 0.9 0.0 0.00 0.00 0.00 62 1011.7
20260905015448 74 4 0.9 0.0 0.00 0.00 0.00 63 1011.7
20260905015446 74 344 0.0 0.9 0.00 0.00 0.00 63 1012.5
20260905015436 74 4 0.9 0.0 0.00 0.00 0.00 62 1011.7
20260905015250 74 4 0.9 0.0 0.00 0.00 0.00 62 1011.7
20260905015219 74 4 0.9 0.0 0.00 0.00 0.00 62 1011.7
20260905015149 74 4 0.9 0.0 0.00 0.00 0.00 62 1011.7
20260905015139 74 4 0.9 1.7 0.00 0.00 0.00 62 1011.7
20260905015128 74 336 0.9 0.0 0.00 0.00 0.00 62 1011.7
20260905014958 75 336 0.9 0.0 0.00 0.00 0.00 61 1011.7
20260905014945 75 7 0.9 1.7 0.00 0.00 0.00 62 1012.6
20260905014925 75 336 0.9 0.0 0.00 0.00 0.00 62 1011.7
20260905014819 75 336 0.9 0.0 0.00 0.00 0.00 62 1011.7
20260905014719 75 336 0.9 0.0 0.00 0.00 0.00 62 1011.7
20260905014647 75 336 0.9 0.0 0.00 0.00 0.00 62 1011.7
20260905014634 75 336 0.9 0.0 0.00 0.00 0.00 61 1011.7
20260905014441 75 332 0.0 0.9 0.00 0.00 0.00 61 1012.5
20260905014419 75 336 0.9 0.0 0.00 0.00 0.00 61 1011.7
20260905014349 75 336 0.9 0.0 0.00 0.00 0.00 61 1011.7
20260905014318 75 336 0.9 0.0 0.00 0.00 0.00 61 1011.7
20260905014226 76 286 0.0 0.0 0.00 0.00 0.00 60 1011.7
20260905014222 75 336 0.9 0.0 0.00 0.00 0.00 61 1011.7
20260905014150 75 336 0.9 0.0 0.00 0.00 0.00 61 1011.7
20260905014122 75 336 0.9 0.9 0.00 0.00 0.00 61 1011.7
20260905014049 75 286 0.0 0.0 0.00 0.00 0.00 61 1011.7
20260905014032 76 286 0.0 0.0 0.00 0.00 0.00 60 1011.7
20260905014017 76 286 0.0 0.0 0.00 0.00 0.00 61 1011.7
20260905013936 76 0 0.0 1.7 0.00 0.00 0.00 61 1012.6
20260905013919 76 286 0.0 0.0 0.00 0.00 0.00 61 1011.7
20260905013858 76 286 0.0 0.0 0.00 0.00 0.00 61 1011.7
20260905013722 76 286 0.0 0.0 0.00 0.00 0.00 60 1011.7
20260905013708 76 286 0.0 1.7 0.00 0.00 0.00 59 1011.7
20260905013658 76 286 0.0 0.0 0.00 0.00 0.00 60 1011.7
20260905013526 76 0 0.0 0.0 0.00 0.00 0.00 59 1011.6
20260905013521 76 286 0.0 0.0 0.00 0.00 0.00 60 1011.7
20260905013433 76 334 0.0 1.7 0.00 0.00 0.00 60 1012.5
20260905013420 76 286 0.0 0.0 0.00 0.00 0.00 60 1011.7
20260905013336 77 0 0.0 0.0 0.00 0.00 0.00 59 1011.6
20260905013331 76 286 0.0 0.0 0.00 0.00 0.00 60 1011.7
20260905013317 76 286 0.0 0.0 0.00 0.00 0.00 60 1011.7
20260905013309 76 286 0.0 0.0 0.00 0.00 0.00 60 1011.7
20260905013019 76 0 0.0 0.0 0.00 0.00 0.00 59 1011.6
20260905012932 77 339 1.7 1.7 0.00 0.00 0.00 59 1012.4
20260905012919 76 0 0.0 0.0 0.00 0.00 0.00 59 1011.6
20260905012848 76 0 0.0 0.0 0.00 0.00 0.00 60 1011.6
20260905012825 77 0 0.0 0.0 0.00 0.00 0.00 59 1011.6
20260905012819 77 0 0.0 0.0 0.00 0.00 0.00 59 1011.6
20260905012758 77 0 0.0 0.0 0.00 0.00 0.00 59 1011.6
20260905012617 77 0 0.0 0.0 0.00 0.00 0.00 59 1011.6
20260905012553 77 0 0.0 0.0 0.00 0.00 0.00 59 1011.6
20260905012520 77 0 0.0 0.0 0.00 0.00 0.00 59 1011.6
20260905012458 77 0 0.0 0.0 0.00 0.00 0.00 59 1011.6
20260905012428 77 257 0.9 2.6 0.00 0.00 0.00 59 1012.4
20260905012331 77 0 0.0 0.0 0.00 0.00 0.00 59 1011.6
20260905012239 77 323 1.7 0.0 0.00 0.00 0.00 59 1011.6
20260905012229 77 0 0.0 0.0 0.00 0.00 0.00 59 1011.6
20260905012219 77 0 0.0 0.0 0.00 0.00 0.00 59 1011.6
20260905012009 77 323 1.7 0.0 0.00 0.00 0.00 59 1011.6
20260905011939 77 323 1.7 0.0 0.00 0.00 0.00 58 1011.6
20260905011925 77 293 0.0 0.9 0.00 0.00 0.00 59 1012.5
20260905011907 77 323 1.7 0.0 0.00 0.00 0.00 59 1011.6
20260905011837 77 323 1.7 0.0 0.00 0.00 0.00 59 1011.6
20260905011807 77 323 1.7 0.0 0.00 0.00 0.00 59 1011.6
20260905011758 77 323 1.7 0.0 0.00 0.00 0.00 58 1011.6
20260905011747 77 323 1.7 0.0 0.00 0.00 0.00 59 1011.6
20260905011609 77 323 1.7 0.0 0.00 0.00 0.00 59 1011.6
20260905011555 77 299 0.0 0.0 0.00 0.00 0.00 58 1011.6
20260905011548 77 323 1.7 0.0 0.00 0.00 0.00 59 1011.6
20260905011428 78 299 0.0 0.0 0.00 0.00 0.00 58 1011.6
20260905011421 77 323 1.7 0.0 0.00 0.00 0.00 58 1011.6
20260905011358 77 323 1.7 0.0 0.00 0.00 0.00 59 1011.6
20260905011347 77 323 1.7 0.0 0.00 0.00 0.00 58 1011.6
20260905011213 78 299 0.0 0.0 0.00 0.00 0.00 58 1011.6
20260905011208 77 323 1.7 0.0 0.00 0.00 0.00 59 1011.6
20260905011159 77 323 1.7 0.0 0.00 0.00 0.00 58 1011.6
20260905011149 77 323 1.7 1.7 0.00 0.00 0.00 58 1011.6
20260905011007 78 299 0.0 0.0 0.00 0.00 0.00 58 1011.6
20260905010915 78 290 0.0 1.7 0.00 0.00 0.00 58 1012.6
20260905010907 78 299 0.0 0.0 0.00 0.00 0.00 58 1011.6
20260905010853 78 299 0.0 0.0 0.00 0.00 0.00 58 1011.6
20260905010728 78 299 0.0 0.0 0.00 0.00 0.00 58 1011.6
20260905010719 78 299 0.0 0.0 0.00 0.00 0.00 59 1011.6
20260905010538 78 299 0.0 0.0 0.00 0.00 0.00 58 1011.6
20260905010507 78 299 0.0 0.0 0.00 0.00 0.00 58 1011.6
20260905010449 78 298 0.0 0.0 0.00 0.00 0.00 58 1011.6
20260905010411 78 310 0.0 1.7 0.00 0.00 0.00 58 1012.6
20260905010408 78 299 0.0 0.0 0.00 0.00 0.00 58 1011.6
20260905010348 78 299 0.0 0.0 0.00 0.00 0.00 58 1011.6
20260905010208 78 299 0.0 0.0 0.00 0.00 0.00 57 1011.6
20260905010155 78 298 0.0 0.0 0.00 0.00 0.00 57 1011.6
20260905010151 78 299 0.0 0.0 0.00 0.00 0.00 58 1011.6
20260905010141 78 299 0.0 1.7 0.00 0.00 0.00 58 1011.6
20260905005917 78 298 0.0 0.0 0.00 0.00 0.00 57 1011.6
20260905005909 78 298 0.0 0.0 0.00 0.00 0.00 58 1011.6
20260905005907 78 269 0.0 1.7 0.00 0.00 0.00 58 1012.4
20260905005808 78 298 0.0 0.0 0.00 0.00 0.00 58 1011.6
20260905005738 78 298 0.0 0.0 0.00 0.00 0.00 57 1011.6
20260905005719 78 298 0.0 0.0 0.00 0.00 0.00 58 1011.6
20260905005705 78 298 0.0 0.0 0.00 0.00 0.00 58 1011.6
20260905005407 78 298 0.0 0.0 0.00 0.00 0.00 57 1011.6
20260905005403 78 304 0.9 1.7 0.00 0.00 0.00 57 1012.4
20260905005307 78 298 0.0 0.0 0.00 0.00 0.00 57 1011.6
20260905005237 79 298 0.0 0.0 0.00 0.00 0.00 57 1011.6
20260905005207 79 298 0.0 0.0 0.00 0.00 0.00 57 1011.6
20260905005139 79 298 0.0 0.0 0.00 0.00 0.00 57 1011.6
20260905005109 79 298 0.0 0.9 0.00 0.00 0.00 57 1011.6
20260905005038 79 352 1.7 0.0 0.00 0.00 0.00 57 1011.7
20260905005007 79 352 1.7 0.0 0.00 0.00 0.00 56 1011.7
20260905004938 79 352 1.7 0.0 0.00 0.00 0.00 56 1011.7
20260905004908 79 352 1.7 0.0 0.00 0.00 0.00 56 1011.7
20260905004858 79 314 0.9 1.7 0.00 0.00 0.00 56 1012.5
20260905004841 79 352 1.7 0.0 0.00 0.00 0.00 56 1011.7
20260905004810 79 352 1.7 0.0 0.00 0.00 0.00 56 1011.7
20260905004737 79 352 1.7 0.0 0.00 0.00 0.00 56 1011.7
20260905004707 79 352 1.7 0.0 0.00 0.00 0.00 56 1011.7
20260905004637 79 352 1.7 0.0 0.00 0.00 0.00 56 1011.7
20260905004607 79 352 1.7 0.0 0.00 0.00 0.00 57 1011.7
20260905004538 79 352 1.7 0.0 0.00 0.00 0.00 56 1011.7
20260905004513 79 272 1.7 0.0 0.00 0.00 0.00 57 1011.6
20260905004507 79 352 1.7 0.0 0.00 0.00 0.00 57 1011.7
20260905004438 79 352 1.7 0.0 0.00 0.00 0.00 57 1011.7
20260905004407 79 352 1.7 0.0 0.00 0.00 0.00 57 1011.7
20260905004358 79 254 0.0 1.7 0.00 0.00 0.00 57 1012.5
20260905004346 79 272 1.7 0.0 0.00 0.00 0.00 57 1011.6
20260905004340 79 352 1.7 0.0 0.00 0.00 0.00 57 1011.7
20260905004308 79 352 1.7 0.0 0.00 0.00 0.00 57 1011.7
20260905004221 80 272 1.7 0.0 0.00 0.00 0.00 56 1011.6
20260905004212 80 272 1.7 0.0 0.00 0.00 0.00 55 1011.6
20260905004208 79 352 1.7 0.0 0.00 0.00 0.00 57 1011.7
20260905004158 79 352 1.7 0.0 0.00 0.00 0.00 57 1011.7
20260905004148 79 352 1.7 2.6 0.00 0.00 0.00 57 1011.7
20260905003853 79 323 0.9 2.6 0.00 0.00 0.00 56 1012.6
20260905003828 79 272 1.7 0.0 0.00 0.00 0.00 56 1011.6
20260905003820 79 272 1.7 0.0 0.00 0.00 0.00 56 1011.6
20260905003639 80 272 1.7 0.0 0.00 0.00 0.00 55 1011.6
20260905003629 80 272 1.7 0.0 0.00 0.00 0.00 56 1011.6
20260905003620 80 272 1.7 0.0 0.00 0.00 0.00 56 1011.6
20260905003438 80 272 1.7 0.0 0.00 0.00 0.00 56 1011.6
20260905003407 80 272 1.7 0.0 0.00 0.00 0.00 55 1011.6
20260905003349 80 297 0.0 2.6 0.00 0.00 0.00 55 1012.5
20260905003341 80 334 0.9 0.0 0.00 0.00 0.00 55 1011.6
20260905003307 80 272 1.7 0.0 0.00 0.00 0.00 55 1011.6
20260905003256 80 334 0.9 0.0 0.00 0.00 0.00 55 1011.6
20260905003247 80 272 1.7 0.0 0.00 0.00 0.00 55 1011.6
20260905003110 80 272 1.7 1.7 0.00 0.00 0.00 55 1011.6
20260905003044 81 334 0.9 0.0 0.00 0.00 0.00 54 1011.6
20260905003033 80 334 0.9 0.0 0.00 0.00 0.00 55 1011.6
20260905002856 80 334 0.9 0.0 0.00 0.00 0.00 54 1011.6
20260905002847 80 334 0.9 0.0 0.00 0.00 0.00 55 1011.6
20260905002844 80 327 0.0 1.7 0.00 0.00 0.00 55 1012.5
20260905002707 80 334 0.9 0.0 0.00 0.00 0.00 55 1011.6
20260905002639 80 334 0.9 0.0 0.00 0.00 0.00 55 1011.6
20260905002621 81 334 0.9 0.0 0.00 0.00 0.00 55 1011.6
20260905002548 81 334 0.9 0.0 0.00 0.00 0.00 54 1011.6
20260905002409 81 334 0.9 0.0 0.00 0.00 0.00 54 1011.6
20260905002359 81 318 1.7 0.0 0.00 0.00 0.00 53 1011.7
20260905002343 81 338 1.7 1.7 0.00 0.00 0.00 54 1012.5
20260905002338 81 334 0.9 0.0 0.00 0.00 0.00 54 1011.6
20260905002308 81 334 0.9 0.0 0.00 0.00 0.00 54 1011.6
20260905002214 82 318 1.7 0.0 0.00 0.00 0.00 52 1011.7
20260905002208 81 334 0.9 0.0 0.00 0.00 0.00 54 1011.6
20260905002138 81 334 0.9 0.0 0.00 0.00 0.00 54 1011.6
20260905002120 82 318 1.7 0.0 0.00 0.00 0.00 53 1011.7
20260905002112 81 334 0.9 1.7 0.00 0.00 0.00 53 1011.6
20260905002101 81 318 1.7 0.0 0.00 0.00 0.00 53 1011.7
20260905002048 82 318 1.7 2.6 0.00 0.00 0.00 52 1011.7
20260905002040 81 318 1.7 0.0 0.00 0.00 0.00 53 1011.7
20260905001903 81 318 1.7 0.0 0.00 0.00 0.00 54 1011.7
20260905001853 82 318 1.7 0.0 0.00 0.00 0.00 52 1011.7
20260905001839 81 215 1.7 2.6 0.00 0.00 0.00 53 1012.5
20260905001437 81 318 1.7 0.0 0.00 0.00 0.00 53 1011.7
20260905001407 81 318 1.7 0.0 0.00 0.00 0.00 53 1011.7
20260905001356 83 340 1.7 0.0 0.00 0.00 0.00 51 1011.5
20260905001338 82 264 0.0 3.5 0.00 0.00 0.00 53 1012.5
20260905001320 85 349 0.0 0.0 0.00 0.00 0.00 49 1011.6
20260905001308 82 318 1.7 0.0 0.00 0.00 0.00 53 1011.7
20260905001257 84 340 1.7 0.0 0.00 0.00 0.00 51 1011.5
20260905001246 84 340 1.7 0.0 0.00 0.00 0.00 50 1011.5
20260905001242 82 318 1.7 0.0 0.00 0.00 0.00 52 1011.7
20260905001232 82 318 1.7 0.0 0.00 0.00 0.00 53 1011.7
20260905001224 82 318 1.7 0.0 0.00 0.00 0.00 53 1011.7
20260905001101 82 340 1.7 0.0 0.00 0.00 0.00 52 1011.5
20260905001050 83 340 1.7 0.0 0.00 0.00 0.00 52 1011.5
20260905000910 83 340 1.7 0.0 0.00 0.00 0.00 51 1011.5
20260905000900 84 340 1.7 0.0 0.00 0.00 0.00 51 1011.5
20260905000833 84 307 2.6 3.5 0.00 0.00 0.00 50 1012.6
20260905000720 84 340 1.7 0.0 0.00 0.00 0.00 50 1011.5
20260905000638 84 340 1.7 0.0 0.00 0.00 0.00 50 1011.5
20260905000446 84 340 1.7 0.0 0.00 0.00 0.00 50 1011.5
20260905000435 84 340 1.7 0.0 0.00 0.00 0.00 50 1011.5
20260905000329 85 248 1.7 2.6 0.00 0.00 0.00 49 1012.5
20260905000307 84 340 1.7 0.0 0.00 0.00 0.00 49 1011.5
20260905000221 85 349 0.0 0.0 0.00 0.00 0.00 49 1011.6
20260905000207 85 340 1.7 0.0 0.00 0.00 0.00 49 1011.5
20260905000139 85 340 1.7 0.0 0.00 0.00 0.00 49 1011.5
20260905000109 85 340 1.7 1.7 0.00 0.00 0.00 49 1011.5
20260905000048 84 349 0.0 0.0 0.00 0.00 0.00 49 1011.6
20260905000025 85 349 0.0 0.0 0.00 0.00 0.00 49 1011.6
20260905000008 85 349 0.0 0.0 0.00 0.00 0.00 48 1011.6
20260904235958 85 349 0.0 0.0 0.00 0.00 0.00 48 1011.6
20260904235824 85 277 0.9 1.7 0.00 0.00 0.00 49 1012.3
20260904235709 85 349 0.0 0.0 0.00 0.00 0.00 49 1011.6
20260904235638 85 349 0.0 0.0 0.00 0.00 0.00 49 1011.6
20260904235622 86 349 0.0 0.0 0.00 0.00 0.00 48 1011.6
20260904235607 85 349 0.0 0.0 0.00 0.00 0.00 49 1011.6
20260904235508 85 349 0.0 0.0 0.00 0.00 0.00 49 1011.6
20260904235437 85 349 0.0 0.0 0.00 0.00 0.00 49 1011.6
20260904235408 85 349 0.0 0.0 0.00 0.00 0.00 48 1011.6
20260904235338 86 349 0.0 0.0 0.00 0.00 0.00 48 1011.6
20260904235319 86 284 3.5 3.5 0.00 0.00 0.00 48 1012.4
20260904235308 86 349 0.0 0.0 0.00 0.00 0.00 48 1011.6
20260904235248 86 349 0.0 0.0 0.00 0.00 0.00 48 1011.6
20260904235109 87 349 0.0 1.7 0.00 0.00 0.00 47 1011.6
20260904235045 87 309 0.9 0.0 0.00 0.00 0.00 48 1011.7
20260904235039 87 309 0.9 0.0 0.00 0.00 0.00 47 1011.7
20260904235008 87 309 0.9 0.0 0.00 0.00 0.00 46 1011.7
20260904234938 87 309 0.9 0.0 0.00 0.00 0.00 46 1011.7
20260904234907 87 309 0.9 0.0 0.00 0.00 0.00 46 1011.7
20260904234848 86 309 0.9 0.0 0.00 0.00 0.00 48 1011.7
20260904234838 87 309 0.9 0.0 0.00 0.00 0.00 46 1011.7
20260904234814 87 242 0.0 1.7 0.00 0.00 0.00 47 1012.4
20260904234808 87 309 0.9 0.0 0.00 0.00 0.00 47 1011.7
20260904234739 87 309 0.9 0.0 0.00 0.00 0.00 47 1011.7
20260904234725 86 309 0.9 1.7 0.00 0.00 0.00 48 1011.7
20260904234721 87 309 0.9 0.0 0.00 0.00 0.00 48 1011.7
20260904234539 86 327 0.0 0.0 0.00 0.00 0.00 48 1011.6
20260904234529 87 309 0.9 0.0 0.00 0.00 0.00 47 1011.7
20260904234519 87 309 0.9 0.0 0.00 0.00 0.00 48 1011.7
20260904234351 86 309 0.9 0.0 0.00 0.00 0.00 48 1011.7
20260904234317 86 327 0.0 0.0 0.00 0.00 0.00 48 1011.6
20260904234312 86 309 0.9 0.0 0.00 0.00 0.00 48 1011.7
20260904234309 86 359 0.9 1.7 0.00 0.00 0.00 48 1012.4
20260904234257 86 309 0.9 0.0 0.00 0.00 0.00 48 1011.7
20260904234248 86 309 0.9 0.0 0.00 0.00 0.00 48 1011.7
20260904233938 86 327 0.0 0.0 0.00 0.00 0.00 49 1011.6
20260904233920 86 327 0.0 0.0 0.00 0.00 0.00 48 1011.6
20260904233827 86 327 0.0 0.0 0.00 0.00 0.00 48 1011.6
20260904233823 86 327 0.0 0.0 0.00 0.00 0.00 48 1011.6
20260904233805 86 254 0.0 5.2 0.00 0.00 0.00 48 1012.5
20260904233637 86 327 0.0 0.0 0.00 0.00 0.00 48 1011.6
20260904233607 87 327 0.0 0.0 0.00 0.00 0.00 48 1011.6
20260904233538 87 327 0.0 0.0 0.00 0.00 0.00 48 1011.6
20260904233508 87 327 0.0 0.0 0.00 0.00 0.00 47 1011.6
20260904233444 87 327 0.0 0.0 0.00 0.00 0.00 48 1011.6
20260904233422 87 327 0.0 0.0 0.00 0.00 0.00 48 1011.6
20260904233256 86 282 0.9 1.7 0.00 0.00 0.00 49 1012.4
20260904233238 86 327 0.0 0.0 0.00 0.00 0.00 48 1011.6
20260904233207 86 327 0.0 0.0 0.00 0.00 0.00 48 1011.6
20260904233137 86 327 0.0 0.0 0.00 0.00 0.00 49 1011.6
20260904233111 86 327 0.0 0.9 0.00 0.00 0.00 49 1011.6
20260904233100 86 306 0.0 0.0 0.00 0.00 0.00 48 1011.6
20260904233038 86 306 0.0 0.0 0.00 0.00 0.00 48 1011.6
20260904233007 86 306 0.0 0.0 0.00 0.00 0.00 48 1011.6
20260904232937 86 306 0.0 0.0 0.00 0.00 0.00 49 1011.6
20260904232907 86 306 0.0 0.0 0.00 0.00 0.00 49 1011.6
20260904232825 86 306 0.0 0.0 0.00 0.00 0.00 49 1011.6
20260904232820 86 306 0.0 0.0 0.00 0.00 0.00 49 1011.6
20260904232752 86 226 0.9 3.5 0.00 0.00 0.00 49 1012.6
20260904232741 86 306 0.0 0.0 0.00 0.00 0.00 49 1011.6
20260904232731 86 306 0.0 0.0 0.00 0.00 0.00 49 1011.6
20260904232522 86 306 0.0 0.0 0.00 0.00 0.00 49 1011.6
20260904232507 86 201 0.0 0.0 0.00 0.00 0.00 48 1011.6
20260904232500 86 306 0.0 0.0 0.00 0.00 0.00 49 1011.6
20260904232323 87 306 0.0 0.0 0.00 0.00 0.00 48 1011.6
20260904232300 87 306 0.0 0.0 0.00 0.00 0.00 48 1011.6
20260904232248 87 252 0.9 2.6 0.00 0.00 0.00 48 1012.4
20260904232122 87 306 0.0 0.0 0.00 0.00 0.00 47 1011.6
20260904232103 85 201 0.0 0.0 0.00 0.00 0.00 49 1011.6
20260904232058 87 306 0.0 1.7 0.00 0.00 0.00 48 1011.6
20260904232047 87 201 0.0 0.0 0.00 0.00 0.00 48 1011.6
20260904232037 86 201 0.0 0.0 0.00 0.00 0.00 49 1011.6
20260904231850 87 201 0.0 0.0 0.00 0.00 0.00 48 1011.6
20260904231822 87 201 0.0 0.0 0.00 0.00 0.00 49 1011.6
20260904231758 86 201 0.0 0.0 0.00 0.00 0.00 47 1011.6
20260904231751 86 201 0.0 0.0 0.00 0.00 0.00 49 1011.6
20260904231743 86 276 0.0 2.6 0.00 0.00 0.00 49 1012.5
20260904231721 86 201 0.0 0.0 0.00 0.00 0.00 49 1011.6
20260904231622 86 201 0.0 0.0 0.00 0.00 0.00 49 1011.6
20260904231612 85 341 0.9 0.0 0.00 0.00 0.00 46 1011.5
20260904231608 86 201 0.0 0.0 0.00 0.00 0.00 49 1011.6
20260904231558 85 201 0.0 0.0 0.00 0.00 0.00 50 1011.6
20260904231432 86 201 0.0 0.0 0.00 0.00 0.00 49 1011.6
20260904231238 86 325 0.9 3.5 0.00 0.00 0.00 44 1012.5
20260904231224 86 201 0.0 0.0 0.00 0.00 0.00 43 1011.6
20260904231140 86 341 0.9 0.0 0.00 0.00 0.00 43 1011.5
20260904231121 86 201 0.0 0.0 0.00 0.00 0.00 42 1011.6
20260904231059 86 341 0.9 0.0 0.00 0.00 0.00 42 1011.5
20260904231055 86 201 0.0 1.7 0.00 0.00 0.00 42 1011.6
20260904231043 86 341 0.9 0.0 0.00 0.00 0.00 42 1011.5
20260904231032 86 341 0.9 0.0 0.00 0.00 0.00 47 1011.5
20260904230900 88 341 0.9 0.0 0.00 0.00 0.00 41 1011.5
20260904230856 87 341 0.9 1.7 0.00 0.00 0.00 41 1011.5
20260904230852 85 341 0.9 0.0 0.00 0.00 0.00 46 1011.5
20260904230842 85 341 0.9 0.0 0.00 0.00 0.00 47 1011.5
20260904230832 85 341 0.9 0.0 0.00 0.00 0.00 46 1011.5
20260904230822 85 341 0.9 0.0 0.00 0.00 0.00 45 1011.5
20260904230813 86 341 0.9 0.0 0.00 0.00 0.00 44 1011.5
20260904230732 85 234 0.0 4.3 0.00 0.00 0.00 44 1012.5
20260904230522 86 341 0.9 0.0 0.00 0.00 0.00 42 1011.5
20260904230427 85 255 0.0 0.0 0.00 0.00 0.00 42 1011.6
20260904230423 86 341 0.9 0.0 0.00 0.00 0.00 42 1011.5
20260904230413 86 341 0.9 0.0 0.00 0.00 0.00 42 1011.5
20260904230403 87 341 0.9 0.0 0.00 0.00 0.00 43 1011.5
20260904230353 87 341 0.9 0.0 0.00 0.00 0.00 43 1011.5
20260904230232 87 341 0.9 0.0 0.00 0.00 0.00 40 1011.5
20260904230226 88 214 0.0 2.6 0.00 0.00 0.00 41 1012.5
20260904230222 87 341 0.9 0.0 0.00 0.00 0.00 41 1011.5
20260904230040 87 255 0.0 0.0 0.00 0.00 0.00 41 1011.6
20260904230009 85 255 0.0 0.0 0.00 0.00 0.00 43 1011.6
20260904225952 87 255 0.0 0.0 0.00 0.00 0.00 41 1011.6
20260904225922 86 255 0.0 0.0 0.00 0.00 0.00 41 1011.6
20260904225901 85 255 0.0 0.0 0.00 0.00 0.00 42 1011.6
20260904225726 85 246 1.7 5.2 0.00 0.00 0.00 42 1012.4
20260904225723 85 255 0.0 0.0 0.00 0.00 0.00 42 1011.6
20260904225638 85 255 0.0 0.0 0.00 0.00 0.00 42 1011.6
20260904225422 85 255 0.0 0.0 0.00 0.00 0.00 43 1011.6
20260904225323 85 255 0.0 0.0 0.00 0.00 0.00 43 1011.6
20260904225230 84 220 3.5 0.0 0.00 0.00 0.00 42 1011.6
20260904225223 85 255 0.0 0.0 0.00 0.00 0.00 42 1011.6
20260904225220 84 219 2.6 7.0 0.00 0.00 0.00 42 1012.4
20260904225150 85 255 0.0 0.0 0.00 0.00 0.00 42 1011.6
20260904225122 84 255 0.0 0.0 0.00 0.00 0.00 43 1011.6
20260904225053 84 255 0.0 2.6 0.00 0.00 0.00 43 1011.6
20260904225026 84 220 3.5 0.0 0.00 0.00 0.00 42 1011.6
20260904224924 85 220 3.5 0.0 0.00 0.00 0.00 42 1011.6
20260904224911 85 220 3.5 0.0 0.00 0.00 0.00 42 1011.6
20260904224901 84 220 3.5 0.0 0.00 0.00 0.00 42 1011.6
20260904224721 84 220 3.5 0.0 0.00 0.00 0.00 42 1011.6
20260904224719 84 139 0.0 3.5 0.00 0.00 0.00 42 1012.5
20260904224642 84 220 3.5 0.0 0.00 0.00 0.00 41 1011.6
20260904224622 84 220 3.5 0.0 0.00 0.00 0.00 42 1011.6
20260904224521 84 220 3.5 0.0 0.00 0.00 0.00 42 1011.6
20260904224450 84 220 3.5 0.0 0.00 0.00 0.00 42 1011.6
20260904224423 84 220 3.5 0.0 0.00 0.00 0.00 41 1011.6
20260904224337 85 186 0.9 0.0 0.00 0.00 0.00 41 1011.6
20260904224333 85 220 3.5 0.0 0.00 0.00 0.00 41 1011.6
20260904224323 85 220 3.5 0.0 0.00 0.00 0.00 41 1011.6
20260904224313 84 220 3.5 0.0 0.00 0.00 0.00 41 1011.6
20260904224214 84 202 3.5 5.2 0.00 0.00 0.00 41 1012.4
20260904224122 85 220 3.5 0.0 0.00 0.00 0.00 42 1011.6
20260904224052 85 220 3.5 4.3 0.00 0.00 0.00 42 1011.6
20260904224025 85 186 0.9 0.0 0.00 0.00 0.00 42 1011.6
20260904224011 85 186 0.9 0.0 0.00 0.00 0.00 41 1011.6
20260904224000 85 186 0.9 0.0 0.00 0.00 0.00 41 1011.6
20260904223821 85 186 0.9 0.0 0.00 0.00 0.00 41 1011.6
20260904223751 85 186 0.9 0.0 0.00 0.00 0.00 42 1011.6
20260904223720 85 186 0.9 0.0 0.00 0.00 0.00 41 1011.6
20260904223713 85 230 1.7 5.2 0.00 0.00 0.00 42 1012.3
20260904223631 85 186 0.9 0.0 0.00 0.00 0.00 42 1011.6
20260904223616 85 186 0.9 0.0 0.00 0.00 0.00 41 1011.6
20260904223424 85 186 0.9 0.0 0.00 0.00 0.00 41 1011.6
20260904223321 85 186 0.9 0.0 0.00 0.00 0.00 41 1011.6
20260904223226 85 169 1.7 0.0 0.00 0.00 0.00 41 1011.7
20260904223221 85 186 0.9 0.0 0.00 0.00 0.00 41 1011.6
20260904223209 85 180 0.0 4.3 0.00 0.00 0.00 41 1012.4
20260904223122 85 186 0.9 0.0 0.00 0.00 0.00 41 1011.6
20260904223051 85 186 0.9 3.5 0.00 0.00 0.00 41 1011.6
20260904223023 85 169 1.7 0.0 0.00 0.00 0.00 41 1011.7
20260904222921 85 169 1.7 0.0 0.00 0.00 0.00 41 1011.7
20260904222900 83 169 1.7 0.0 0.00 0.00 0.00 43 1011.7
20260904222843 83 169 1.7 0.0 0.00 0.00 0.00 43 1011.7
20260904222839 85 169 1.7 0.0 0.00 0.00 0.00 41 1011.7
20260904222704 85 242 0.9 4.3 0.00 0.00 0.00 41 1012.6
20260904222624 85 169 1.7 0.0 0.00 0.00 0.00 41 1011.7
20260904222602 83 205 6.1 0.0 0.00 0.00 0.00 44 1011.6
20260904222554 83 205 6.1 0.0 0.00 0.00 0.00 44 1011.6
20260904222544 85 169 1.7 0.0 0.00 0.00 0.00 42 1011.7
20260904222534 85 169 1.7 0.0 0.00 0.00 0.00 42 1011.7
20260904222522 84 169 1.7 0.0 0.00 0.00 0.00 42 1011.7
20260904222511 84 169 1.7 0.0 0.00 0.00 0.00 42 1011.7
20260904222227 84 205 6.1 0.0 0.00 0.00 0.00 43 1011.6
20260904222222 83 169 1.7 0.0 0.00 0.00 0.00 43 1011.7
20260904222211 84 205 6.1 0.0 0.00 0.00 0.00 43 1011.6
20260904222204 83 169 1.7 0.0 0.00 0.00 0.00 44 1011.7
20260904222200 83 228 0.9 7.8 0.00 0.00 0.00 44 1012.5
20260904222153 83 169 1.7 5.2 0.00 0.00 0.00 43 1011.7
20260904221837 83 205 6.1 0.0 0.00 0.00 0.00 43 1011.6
20260904221703 83 205 6.1 0.0 0.00 0.00 0.00 43 1011.6
20260904221659 84 174 0.9 7.0 0.00 0.00 0.00 43 1012.4
20260904221637 84 205 6.1 0.0 0.00 0.00 0.00 43 1011.6
20260904221422 83 205 6.1 0.0 0.00 0.00 0.00 43 1011.6
20260904221337 83 205 6.1 0.0 0.00 0.00 0.00 43 1011.6
20260904221154 84 156 3.5 6.1 0.00 0.00 0.00 43 1012.4
20260904221150 83 205 6.1 0.0 0.00 0.00 0.00 43 1011.6
20260904221120 84 205 6.1 0.0 0.00 0.00 0.00 43 1011.6
20260904221051 84 205 6.1 6.1 0.00 0.00 0.00 43 1011.6
20260904221028 84 212 2.6 0.0 0.00 0.00 0.00 43 1011.8
20260904221000 85 212 2.6 0.0 0.00 0.00 0.00 42 1011.8
20260904220949 84 212 2.6 0.0 0.00 0.00 0.00 44 1011.8
20260904220922 84 212 2.6 0.0 0.00 0.00 0.00 43 1011.8
20260904220850 84 212 2.6 0.0 0.00 0.00 0.00 44 1011.8
20260904220820 84 212 2.6 0.0 0.00 0.00 0.00 44 1011.8
20260904220723 84 212 2.6 0.0 0.00 0.00 0.00 43 1011.8
20260904220650 85 128 6.1 6.1 0.00 0.00 0.00 42 1012.5
20260904220641 85 212 2.6 0.0 0.00 0.00 0.00 43 1011.8
20260904220451 85 212 2.6 0.0 0.00 0.00 0.00 42 1011.8
20260904220422 86 212 2.6 0.0 0.00 0.00 0.00 42 1011.8
20260904220351 87 212 2.6 0.0 0.00 0.00 0.00 41 1011.8
20260904220337 86 148 1.7 0.0 0.00 0.00 0.00 40 1011.9
20260904220321 87 212 2.6 0.0 0.00 0.00 0.00 40 1011.8
20260904220226 86 148 1.7 0.0 0.00 0.00 0.00 41 1011.9
20260904220222 87 212 2.6 0.0 0.00 0.00 0.00 40 1011.8
20260904220150 87 212 2.6 0.0 0.00 0.00 0.00 40 1011.8
20260904220145 87 218 3.5 4.3 0.00 0.00 0.00 40 1012.5
20260904220123 87 212 2.6 0.0 0.00 0.00 0.00 39 1011.8
20260904220104 87 212 2.6 0.0 0.00 0.00 0.00 39 1011.8
20260904220033 87 212 2.6 3.5 0.00 0.00 0.00 39 1011.8
20260904220008 84 148 1.7 0.0 0.00 0.00 0.00 41 1011.9
20260904215649 85 148 1.7 0.0 0.00 0.00 0.00 41 1011.9
20260904215644 85 227 2.6 8.7 0.00 0.00 0.00 41 1012.7
20260904215639 85 148 1.7 0.0 0.00 0.00 0.00 41 1011.9
20260904215629 84 148 1.7 0.0 0.00 0.00 0.00 41 1011.9
20260904215510 84 148 1.7 0.0 0.00 0.00 0.00 41 1011.9
20260904215433 84 148 1.7 0.0 0.00 0.00 0.00 41 1011.9
20260904215334 84 148 1.7 0.0 0.00 0.00 0.00 41 1011.9
20260904215235 84 148 1.7 0.0 0.00 0.00 0.00 41 1011.9
20260904215212 85 154 3.5 0.0 0.00 0.00 0.00 41 1011.9
20260904215203 84 148 1.7 0.0 0.00 0.00 0.00 42 1011.9
20260904215153 84 148 1.7 0.0 0.00 0.00 0.00 41 1011.9
20260904215143 84 148 1.7 0.0 0.00 0.00 0.00 42 1011.9
20260904215141 84 200 0.9 5.2 0.00 0.00 0.00 42 1012.9
20260904215004 84 148 1.7 0.0 0.00 0.00 0.00 41 1011.9
20260904214935 84 148 1.7 5.2 0.00 0.00 0.00 41 1011.9
20260904214912 84 192 1.7 0.0 0.00 0.00 0.00 41 1011.9
20260904214906 84 192 1.7 0.0 0.00 0.00 0.00 41 1011.9
20260904214856 85 154 3.5 0.0 0.00 0.00 0.00 40 1011.9
20260904214834 84 192 1.7 0.0 0.00 0.00 0.00 41 1011.9
20260904214818 84 192 1.7 0.0 0.00 0.00 0.00 42 1011.9
20260904214754 84 192 1.7 3.5 0.00 0.00 0.00 41 1011.9
20260904214744 84 192 1.7 0.0 0.00 0.00 0.00 42 1011.9
20260904214735 84 192 1.7 0.0 0.00 0.00 0.00 42 1011.9
20260904214725 84 192 1.7 0.0 0.00 0.00 0.00 41 1011.9
20260904214641 84 72 3.5 6.1 0.00 0.00 0.00 41 1012.4
20260904214611 84 192 1.7 0.0 0.00 0.00 0.00 41 1011.9
20260904214601 84 192 1.7 0.0 0.00 0.00 0.00 40 1011.9
20260904214548 84 192 1.7 0.0 0.00 0.00 0.00 40 1011.9
20260904214540 84 192 1.7 0.0 0.00 0.00 0.00 40 1011.9
20260904214310 84 192 1.7 0.0 0.00 0.00 0.00 41 1011.9
20260904214259 84 192 1.7 0.0 0.00 0.00 0.00 41 1011.9
20260904214140 84 154 3.5 0.0 0.00 0.00 0.00 41 1011.9
20260904214136 84 154 0.0 5.2 0.00 0.00 0.00 41 1012.9
20260904214134 84 192 1.7 0.0 0.00 0.00 0.00 41 1011.9
20260904214119 85 154 3.5 0.0 0.00 0.00 0.00 40 1011.9
20260904214107 84 192 1.7 0.0 0.00 0.00 0.00 41 1011.9
20260904214058 84 192 1.7 0.0 0.00 0.00 0.00 41 1011.9
20260904213934 84 154 3.5 0.0 0.00 0.00 0.00 41 1011.9
20260904213924 84 154 3.5 0.0 0.00 0.00 0.00 41 1011.9
20260904213634 84 161 0.9 6.1 0.00 0.00 0.00 40 1013.0
20260904213451 84 154 3.5 0.0 0.00 0.00 0.00 42 1011.9
20260904213433 85 154 3.5 0.0 0.00 0.00 0.00 40 1011.9
20260904213346 85 154 3.5 0.0 0.00 0.00 0.00 40 1011.9
20260904213312 83 128 5.2 0.0 0.00 0.00 0.00 42 1011.8
20260904213308 85 154 3.5 0.0 0.00 0.00 0.00 40 1011.9
20260904213258 85 154 3.5 0.0 0.00 0.00 0.00 41 1011.9
20260904213237 85 154 3.5 0.0 0.00 0.00 0.00 41 1011.9
20260904213226 84 154 3.5 0.0 0.00 0.00 0.00 41 1011.9
20260904213131 84 143 0.0 4.3 0.00 0.00 0.00 41 1012.6
20260904212934 84 154 3.5 4.3 0.00 0.00 0.00 42 1011.9
20260904212835 84 128 5.2 0.0 0.00 0.00 0.00 42 1011.8
20260904212806 84 128 5.2 0.0 0.00 0.00 0.00 42 1011.8
20260904212751 83 128 5.2 0.0 0.00 0.00 0.00 43 1011.8
20260904212747 83 128 5.2 0.0 0.00 0.00 0.00 42 1011.8
20260904212625 83 92 0.0 3.5 0.00 0.00 0.00 43 1012.6
20260904212603 83 128 5.2 0.0 0.00 0.00 0.00 42 1011.8
20260904212534 83 128 5.2 0.0 0.00 0.00 0.00 43 1011.8
20260904212516 82 128 5.2 0.0 0.00 0.00 0.00 43 1011.8
20260904212440 83 128 5.2 0.0 0.00 0.00 0.00 43 1011.8
20260904212406 83 128 5.2 0.0 0.00 0.00 0.00 42 1011.8
20260904212334 83 128 5.2 0.0 0.00 0.00 0.00 42 1011.8
20260904212319 82 125 7.0 0.0 0.00 0.00 0.00 44 1011.9
20260904212315 83 128 5.2 0.0 0.00 0.00 0.00 43 1011.8
20260904212306 83 128 5.2 0.0 0.00 0.00 0.00 42 1011.8
20260904212120 83 121 1.7 4.3 0.00 0.00 0.00 43 1012.7
20260904212004 82 128 5.2 0.0 0.00 0.00 0.00 43 1011.8
20260904211947 82 128 5.2 7.8 0.00 0.00 0.00 43 1011.8
20260904211904 82 125 7.0 0.0 0.00 0.00 0.00 43 1011.9
20260904211833 82 125 7.0 0.0 0.00 0.00 0.00 43 1011.9
20260904211749 82 125 7.0 0.0 0.00 0.00 0.00 43 1011.9
20260904211620 82 80 1.7 5.2 0.00 0.00 0.00 44 1012.7
20260904211547 82 125 7.0 0.0 0.00 0.00 0.00 44 1011.9
20260904211505 82 125 7.0 0.0 0.00 0.00 0.00 44 1011.9
20260904211447 83 125 7.0 0.0 0.00 0.00 0.00 43 1011.9
20260904211438 82 125 7.0 0.0 0.00 0.00 0.00 45 1011.9
20260904211407 82 125 7.0 0.0 0.00 0.00 0.00 44 1011.9
20260904211333 82 125 7.0 0.0 0.00 0.00 0.00 44 1011.9
20260904211304 82 125 7.0 0.0 0.00 0.00 0.00 43 1011.9
20260904211246 82 125 7.0 0.0 0.00 0.00 0.00 44 1011.9
20260904211135 82 125 7.0 0.0 0.00 0.00 0.00 44 1011.9
20260904211125 83 214 7.0 0.0 0.00 0.00 0.00 43 1012.0
20260904211115 82 86 2.6 7.0 0.00 0.00 0.00 44 1013.0
20260904210935 83 125 7.0 7.0 0.00 0.00 0.00 43 1011.9
20260904210904 83 214 7.0 0.0 0.00 0.00 0.00 42 1012.0
20260904210833 83 214 7.0 0.0 0.00 0.00 0.00 42 1012.0
20260904210823 83 214 7.0 0.0 0.00 0.00 0.00 43 1012.0
20260904210803 83 214 7.0 0.0 0.00 0.00 0.00 42 1012.0
20260904210735 83 214 7.0 0.0 0.00 0.00 0.00 43 1012.0
20260904210725 83 213 2.6 0.0 0.00 0.00 0.00 44 1012.1
20260904210702 83 214 7.0 0.0 0.00 0.00 0.00 43 1012.0
20260904210615 83 89 0.0 3.5 0.00 0.00 0.00 43 1013.2
20260904210511 83 214 7.0 0.0 0.00 0.00 0.00 43 1012.0
20260904210454 83 214 7.0 0.0 0.00 0.00 0.00 43 1012.0
20260904210324 83 214 7.0 0.0 0.00 0.00 0.00 43 1012.0
20260904210207 82 213 2.6 0.0 0.00 0.00 0.00 44 1012.1
20260904210153 82 214 7.0 0.0 0.00 0.00 0.00 43 1012.0
20260904210144 82 214 7.0 0.0 0.00 0.00 0.00 43 1012.0
20260904210111 82 71 0.0 7.8 0.00 0.00 0.00 43 1012.9
20260904210003 83 214 7.0 0.0 0.00 0.00 0.00 43 1012.0
20260904205933 83 214 7.0 7.0 0.00 0.00 0.00 42 1012.0
20260904205853 82 213 2.6 0.0 0.00 0.00 0.00 44 1012.1
20260904205849 83 213 2.6 0.0 0.00 0.00 0.00 43 1012.1
20260904205723 83 213 2.6 0.0 0.00 0.00 0.00 44 1012.1
20260904205712 82 213 2.6 0.0 0.00 0.00 0.00 44 1012.1
20260904205606 82 230 1.7 3.5 0.00 0.00 0.00 44 1013.0
20260904205534 82 213 2.6 0.0 0.00 0.00 0.00 44 1012.1
20260904205433 82 213 2.6 0.0 0.00 0.00 0.00 44 1012.1
20260904205414 82 213 2.6 0.0 0.00 0.00 0.00 44 1012.1
20260904205232 82 213 2.6 0.0 0.00 0.00 0.00 44 1012.1
20260904205207 81 230 0.0 0.0 0.00 0.00 0.00 45 1012.3
20260904205202 82 213 2.6 0.0 0.00 0.00 0.00 44 1012.1
20260904205132 82 213 2.6 0.0 0.00 0.00 0.00 44 1012.1
20260904205102 82 216 4.3 7.8 0.00 0.00 0.00 44 1012.9
20260904205033 82 213 2.6 0.0 0.00 0.00 0.00 44 1012.1
20260904205012 82 230 0.0 0.0 0.00 0.00 0.00 44 1012.3
20260904205002 82 213 2.6 0.0 0.00 0.00 0.00 44 1012.1
20260904204934 82 213 2.6 2.6 0.00 0.00 0.00 44 1012.1
20260904204912 82 230 0.0 0.0 0.00 0.00 0.00 44 1012.3
20260904204908 82 230 0.0 0.0 0.00 0.00 0.00 44 1012.3
20260904204856 81 230 0.0 0.0 0.00 0.00 0.00 44 1012.3
20260904204847 81 230 0.0 0.0 0.00 0.00 0.00 44 1012.3
20260904204703 81 230 0.0 0.0 0.00 0.00 0.00 45 1012.3
20260904204653 82 230 0.0 0.0 0.00 0.00 0.00 44 1012.3
20260904204649 81 230 0.0 0.0 0.00 0.00 0.00 44 1012.3
20260904204558 82 211 3.5 7.0 0.00 0.00 0.00 44 1013.1
20260904204502 83 230 0.0 0.0 0.00 0.00 0.00 44 1012.3
20260904204452 83 230 0.0 0.0 0.00 0.00 0.00 43 1012.3
20260904204234 82 230 0.0 0.0 0.00 0.00 0.00 44 1012.3
20260904204213 82 230 0.0 0.0 0.00 0.00 0.00 44 1012.3
20260904204054 82 320 0.9 3.5 0.00 0.00 0.00 44 1013.1
20260904204032 82 230 0.0 0.0 0.00 0.00 0.00 44 1012.3
20260904204003 82 230 0.0 0.0 0.00 0.00 0.00 44 1012.3
20260904203934 82 230 0.0 1.7 0.00 0.00 0.00 44 1012.3
20260904203917 82 126 2.6 0.0 0.00 0.00 0.00 44 1012.2
20260904203852 79 228 0.0 0.0 0.00 0.00 0.00 48 1012.5
20260904203844 82 126 2.6 0.0 0.00 0.00 0.00 45 1012.2
20260904203803 82 126 2.6 0.0 0.00 0.00 0.00 44 1012.2
20260904203736 81 126 2.6 0.0 0.00 0.00 0.00 44 1012.2
20260904203704 81 126 2.6 0.0 0.00 0.00 0.00 45 1012.2
20260904203633 81 126 2.6 0.0 0.00 0.00 0.00 45 1012.2
20260904203619 80 126 2.6 0.0 0.00 0.00 0.00 44 1012.2
20260904203603 82 126 2.6 0.0 0.00 0.00 0.00 45 1012.2
20260904203550 82 105 2.6 6.1 0.00 0.00 0.00 44 1012.9
20260904203539 80 126 2.6 0.0 0.00 0.00 0.00 45 1012.2
20260904203533 82 126 2.6 0.0 0.00 0.00 0.00 44 1012.2
20260904203523 82 126 2.6 0.0 0.00 0.00 0.00 44 1012.2
20260904203511 81 126 2.6 0.0 0.00 0.00 0.00 44 1012.2
20260904203501 82 126 2.6 0.0 0.00 0.00 0.00 43 1012.2
20260904203335 82 126 2.6 0.0 0.00 0.00 0.00 43 1012.2
20260904203325 80 84 0.9 0.0 0.00 0.00 0.00 46 1012.5
20260904203314 81 126 2.6 0.0 0.00 0.00 0.00 44 1012.2
20260904203304 81 126 2.6 0.0 0.00 0.00 0.00 44 1012.2
20260904203254 80 126 2.6 0.0 0.00 0.00 0.00 44 1012.2
20260904203046 80 25 0.0 3.5 0.00 0.00 0.00 45 1013.2
20260904203006 79 185 1.7 0.0 0.00 0.00 0.00 47 1012.7
20260904203002 80 126 2.6 0.0 0.00 0.00 0.00 45 1012.2
20260904202933 80 126 2.6 2.6 0.00 0.00 0.00 45 1012.2
20260904202922 79 135 0.0 0.0 0.00 0.00 0.00 48 1012.7
20260904202903 80 84 0.9 0.0 0.00 0.00 0.00 45 1012.5
20260904202854 82 84 0.9 0.0 0.00 0.00 0.00 45 1012.5
20260904202845 82 84 0.9 1.7 0.00 0.00 0.00 47 1012.5
20260904202836 81 228 0.0 0.0 0.00 0.00 0.00 47 1012.5
20260904202832 80 84 0.9 0.0 0.00 0.00 0.00 45 1012.5
20260904202817 80 84 0.9 0.0 0.00 0.00 0.00 46 1012.5
20260904202802 80 84 0.9 0.0 0.00 0.00 0.00 47 1012.5
20260904202542 82 144 4.3 7.8 0.00 0.00 0.00 45 1013.2
20260904202533 81 84 0.9 0.0 0.00 0.00 0.00 45 1012.5
20260904202522 79 228 0.0 0.0 0.00 0.00 0.00 48 1012.5
20260904202515 82 84 0.9 0.0 0.00 0.00 0.00 45 1012.5
20260904202505 82 84 0.9 0.0 0.00 0.00 0.00 44 1012.5
20260904202456 82 84 0.9 0.0 0.00 0.00 0.00 44 1012.5
20260904202434 82 84 0.9 0.0 0.00 0.00 0.00 45 1012.5
20260904202418 82 84 0.9 0.0 0.00 0.00 0.00 45 1012.5
20260904202407 82 84 0.9 0.0 0.00 0.00 0.00 45 1012.5
20260904202245 82 84 0.9 0.0 0.00 0.00 0.00 47 1012.5
20260904202236 82 84 0.9 0.0 0.00 0.00 0.00 47 1012.5
20260904202115 82 228 0.0 0.0 0.00 0.00 0.00 47 1012.5
20260904202105 81 228 0.0 0.0 0.00 0.00 0.00 47 1012.5
20260904202038 82 244 1.7 1.7 0.00 0.00 0.00 46 1013.1
20260904201646 79 228 0.0 0.0 0.00 0.00 0.00 48 1012.5
20260904201533 80 215 1.7 3.5 0.00 0.00 0.00 46 1013.5
20260904201433 79 228 0.0 0.0 0.00 0.00 0.00 48 1012.5
20260904201415 79 135 0.0 0.0 0.00 0.00 0.00 48 1012.7
20260904201406 79 228 0.0 0.0 0.00 0.00 0.00 48 1012.5
20260904201357 79 228 0.0 0.0 0.00 0.00 0.00 48 1012.5
20260904201241 79 228 0.0 0.0 0.00 0.00 0.00 48 1012.5
20260904201229 79 228 0.0 0.0 0.00 0.00 0.00 48 1012.5
20260904201115 79 135 0.0 0.0 0.00 0.00 0.00 49 1012.7
20260904201103 79 228 0.0 0.0 0.00 0.00 0.00 48 1012.5
20260904201033 79 228 0.0 0.0 0.00 0.00 0.00 48 1012.5
20260904201028 80 324 0.0 1.7 0.00 0.00 0.00 47 1013.5
20260904201016 79 135 0.0 0.0 0.00 0.00 0.00 49 1012.7
20260904201004 79 228 0.0 0.0 0.00 0.00 0.00 48 1012.5
20260904200955 79 228 0.0 2.6 0.00 0.00 0.00 48 1012.5
20260904200940 79 135 0.0 0.0 0.00 0.00 0.00 48 1012.7
20260904200926 79 135 0.0 0.0 0.00 0.00 0.00 48 1012.7
20260904200533 79 135 0.0 0.0 0.00 0.00 0.00 48 1012.7
20260904200526 79 216 0.0 8.7 0.00 0.00 0.00 48 1013.6
20260904200523 79 185 1.7 0.0 0.00 0.00 0.00 49 1012.7
20260904200519 79 135 0.0 0.0 0.00 0.00 0.00 48 1012.7
20260904200457 79 135 0.0 0.0 0.00 0.00 0.00 49 1012.7
20260904200446 79 135 0.0 0.0 0.00 0.00 0.00 49 1012.7
20260904200203 79 135 0.0 0.0 0.00 0.00 0.00 49 1012.7
20260904200137 79 135 0.0 0.0 0.00 0.00 0.00 49 1012.7
20260904200022 79 107 3.5 3.5 0.00 0.00 0.00 48 1013.7
20260904200014 79 135 0.0 1.7 0.00 0.00 0.00 49 1012.7
20260904195833 79 185 1.7 0.0 0.00 0.00 0.00 49 1012.7
20260904195822 79 185 1.7 0.0 0.00 0.00 0.00 47 1012.7
20260904195734 79 185 1.7 0.0 0.00 0.00 0.00 49 1012.7
20260904195724 79 185 1.7 0.0 0.00 0.00 0.00 47 1012.7
20260904195643 79 185 1.7 0.0 0.00 0.00 0.00 47 1012.7
20260904195630 79 185 1.7 0.0 0.00 0.00 0.00 47 1012.7
20260904195520 79 119 2.6 2.6 0.00 0.00 0.00 49 1013.6
20260904195509 79 155 1.7 0.0 0.00 0.00 0.00 46 1012.8
20260904195500 79 185 1.7 0.0 0.00 0.00 0.00 47 1012.7
20260904195155 79 155 1.7 0.0 0.00 0.00 0.00 46 1012.8
20260904195148 79 185 1.7 0.0 0.00 0.00 0.00 47 1012.7
20260904195019 79 203 5.2 5.2 0.00 0.00 0.00 47 1013.5
20260904195002 79 185 1.7 0.0 0.00 0.00 0.00 47 1012.7
20260904194942 79 185 1.7 1.7 0.00 0.00 0.00 46 1012.7
20260904194928 79 155 1.7 0.0 0.00 0.00 0.00 46 1012.8
20260904194655 78 155 1.7 0.0 0.00 0.00 0.00 47 1012.8
20260904194632 79 155 1.7 0.0 0.00 0.00 0.00 46 1012.8
20260904194534 79 155 1.7 0.0 0.00 0.00 0.00 46 1012.8
20260904194515 79 14 1.7 3.5 0.00 0.00 0.00 45 1013.6
20260904194502 79 155 1.7 0.0 0.00 0.00 0.00 45 1012.8
20260904194432 79 155 1.7 0.0 0.00 0.00 0.00 45 1012.8
20260904194335 79 155 1.7 0.0 0.00 0.00 0.00 45 1012.8
20260904194325 79 155 1.7 0.0 0.00 0.00 0.00 45 1012.8
20260904194314 79 155 1.7 0.0 0.00 0.00 0.00 46 1012.8
20260904194132 78 155 1.7 0.0 0.00 0.00 0.00 47 1012.8
20260904194048 79 212 3.5 0.0 0.00 0.00 0.00 45 1012.9
20260904194042 78 155 1.7 0.0 0.00 0.00 0.00 46 1012.8
20260904194009 78 180 1.7 5.2 0.00 0.00 0.00 46 1013.9
20260904194002 78 155 1.7 0.0 0.00 0.00 0.00 46 1012.8
20260904193934 78 155 1.7 5.2 0.00 0.00 0.00 46 1012.8
20260904193916 78 212 3.5 0.0 0.00 0.00 0.00 47 1012.9
20260904193902 78 212 3.5 0.0 0.00 0.00 0.00 46 1012.9
20260904193833 79 212 3.5 0.0 0.00 0.00 0.00 45 1012.9
20260904193808 79 212 3.5 0.0 0.00 0.00 0.00 45 1012.9
20260904193736 79 212 3.5 0.0 0.00 0.00 0.00 45 1012.9
20260904193713 79 212 3.5 0.0 0.00 0.00 0.00 45 1012.9
20260904193547 78 212 3.5 0.0 0.00 0.00 0.00 47 1012.9
20260904193504 78 206 6.1 7.0 0.00 0.00 0.00 46 1013.8
20260904193415 78 212 3.5 4.3 0.00 0.00 0.00 49 1012.9
20260904193402 78 212 3.5 0.0 0.00 0.00 0.00 48 1012.9
20260904193332 78 212 3.5 0.0 0.00 0.00 0.00 49 1012.9
20260904193234 78 212 3.5 0.0 0.00 0.00 0.00 49 1012.9
20260904193136 80 223 0.0 0.0 0.00 0.00 0.00 48 1013.0
20260904193132 78 212 3.5 0.0 0.00 0.00 0.00 49 1012.9
20260904193107 80 223 0.0 0.0 0.00 0.00 0.00 48 1013.0
20260904193052 78 212 3.5 0.0 0.00 0.00 0.00 49 1012.9
20260904193044 78 212 3.5 0.0 0.00 0.00 0.00 49 1012.9
20260904193000 78 192 5.2 7.0 0.00 0.00 0.00 49 1013.8
20260904192902 78 223 0.0 0.0 0.00 0.00 0.00 49 1013.0
20260904192841 80 223 0.0 0.0 0.00 0.00 0.00 48 1013.0
20260904192835 80 223 0.0 0.0 0.00 0.00 0.00 48 1013.0
20260904192823 80 223 0.0 0.0 0.00 0.00 0.00 48 1013.0
20260904192633 80 223 0.0 0.0 0.00 0.00 0.00 48 1013.0
20260904192614 80 223 0.0 0.0 0.00 0.00 0.00 48 1013.0
20260904192500 79 218 0.9 2.6 0.00 0.00 0.00 47 1014.0
20260904192451 78 177 0.9 0.0 0.00 0.00 0.00 50 1013.1
20260904192447 80 223 0.0 0.0 0.00 0.00 0.00 48 1013.0
20260904192245 79 223 0.0 0.0 0.00 0.00 0.00 49 1013.0
20260904192133 79 223 0.0 0.0 0.00 0.00 0.00 49 1013.0
20260904192045 77 177 0.9 0.0 0.00 0.00 0.00 52 1013.1
20260904192041 78 223 0.0 0.0 0.00 0.00 0.00 50 1013.0
20260904192031 78 223 0.0 0.0 0.00 0.00 0.00 50 1013.0
20260904192017 78 223 0.0 0.9 0.00 0.00 0.00 50 1013.0
20260904191956 79 134 3.5 3.5 0.00 0.00 0.00 49 1014.0
20260904191834 78 177 0.9 0.0 0.00 0.00 0.00 50 1013.1
20260904191807 78 177 0.9 0.0 0.00 0.00 0.00 50 1013.1
20260904191733 78 177 0.9 0.0 0.00 0.00 0.00 50 1013.1
20260904191634 78 177 0.9 0.0 0.00 0.00 0.00 50 1013.1
20260904191623 78 177 0.9 0.0 0.00 0.00 0.00 50 1013.1
20260904191613 78 177 0.9 0.0 0.00 0.00 0.00 50 1013.1
20260904191452 78 218 1.7 2.6 0.00 0.00 0.00 51 1014.0
20260904191432 77 177 0.9 0.0 0.00 0.00 0.00 52 1013.1
20260904191334 77 177 0.9 0.0 0.00 0.00 0.00 52 1013.1
20260904191253 77 177 0.9 0.0 0.00 0.00 0.00 52 1013.1
20260904191243 77 177 0.9 0.0 0.00 0.00 0.00 51 1013.1
20260904191102 78 177 0.9 0.0 0.00 0.00 0.00 50 1013.1
20260904191032 77 177 0.9 0.0 0.00 0.00 0.00 51 1013.1
20260904191002 77 177 0.9 0.0 0.00 0.00 0.00 51 1013.1
20260904190950 78 224 0.0 0.0 0.00 0.00 0.00 50 1013.4
20260904190933 77 177 0.9 3.5 0.00 0.00 0.00 51 1013.1
20260904190902 77 224 0.0 0.0 0.00 0.00 0.00 51 1013.4
20260904190832 77 224 0.0 0.0 0.00 0.00 0.00 52 1013.4
20260904190804 76 224 0.0 0.0 0.00 0.00 0.00 52 1013.4
20260904190744 78 224 0.0 0.0 0.00 0.00 0.00 50 1013.4
20260904190733 76 224 0.0 0.0 0.00 0.00 0.00 52 1013.4
20260904190703 76 224 0.0 0.0 0.00 0.00 0.00 52 1013.4
20260904190632 76 224 0.0 0.0 0.00 0.00 0.00 52 1013.4
20260904190622 76 224 0.0 0.0 0.00 0.00 0.00 52 1013.4
20260904190612 78 224 0.0 0.0 0.00 0.00 0.00 50 1013.4
20260904190444 78 205 3.5 7.8 0.00 0.00 0.00 50 1014.3
20260904190432 78 224 0.0 0.0 0.00 0.00 0.00 50 1013.4
20260904190422 77 208 0.9 0.0 0.00 0.00 0.00 53 1013.4
20260904190412 78 224 0.0 0.0 0.00 0.00 0.00 50 1013.4
20260904190232 78 224 0.0 0.0 0.00 0.00 0.00 50 1013.4
20260904190207 76 208 0.9 0.0 0.00 0.00 0.00 53 1013.4
20260904190202 79 224 0.0 0.0 0.00 0.00 0.00 49 1013.4
20260904190133 79 224 0.0 0.0 0.00 0.00 0.00 50 1013.4
20260904190109 78 224 0.0 0.0 0.00 0.00 0.00 52 1013.4
20260904190056 76 208 0.9 0.0 0.00 0.00 0.00 53 1013.4
20260904190043 78 208 0.9 0.0 0.00 0.00 0.00 52 1013.4
20260904190039 78 224 0.0 0.0 0.00 0.00 0.00 51 1013.4
20260904190027 78 224 0.0 0.0 0.00 0.00 0.00 51 1013.4
20260904190011 78 224 0.0 0.9 0.00 0.00 0.00 52 1013.4
20260904185940 78 185 1.7 3.5 0.00 0.00 0.00 52 1014.2
20260904185839 77 208 0.9 0.0 0.00 0.00 0.00 53 1013.4
20260904185825 77 208 0.9 0.0 0.00 0.00 0.00 53 1013.4
20260904185533 76 208 0.9 0.0 0.00 0.00 0.00 54 1013.4
20260904185503 76 208 0.9 0.0 0.00 0.00 0.00 53 1013.4
20260904185436 76 222 3.5 5.2 0.00 0.00 0.00 54 1014.3
20260904185432 76 208 0.9 0.0 0.00 0.00 0.00 53 1013.4
20260904185403 76 208 0.9 0.0 0.00 0.00 0.00 53 1013.4
20260904185337 77 16 1.7 0.0 0.00 0.00 0.00 53 1013.6
20260904185332 76 208 0.9 0.0 0.00 0.00 0.00 53 1013.4
20260904185306 76 208 0.9 0.0 0.00 0.00 0.00 53 1013.4
20260904185255 76 208 0.9 0.0 0.00 0.00 0.00 53 1013.4
20260904185119 77 16 1.7 0.0 0.00 0.00 0.00 53 1013.6
20260904185040 78 208 0.9 0.0 0.00 0.00 0.00 52 1013.4
20260904185030 78 208 0.9 0.0 0.00 0.00 0.00 52 1013.4
20260904185015 77 208 0.9 2.6 0.00 0.00 0.00 53 1013.4
20260904184931 78 241 1.7 3.5 0.00 0.00 0.00 51 1014.4
20260904184833 77 16 1.7 0.0 0.00 0.00 0.00 53 1013.6
20260904184800 77 16 1.7 0.0 0.00 0.00 0.00 53 1013.6
20260904184533 77 16 1.7 0.0 0.00 0.00 0.00 53 1013.6
20260904184432 77 16 1.7 0.0 0.00 0.00 0.00 53 1013.6
20260904184430 77 209 0.9 4.3 0.00 0.00 0.00 52 1014.4
20260904184402 77 16 1.7 0.0 0.00 0.00 0.00 53 1013.6
20260904184332 77 16 1.7 0.0 0.00 0.00 0.00 53 1013.6
20260904184234 77 16 1.7 0.0 0.00 0.00 0.00 53 1013.6
20260904184204 77 16 1.7 0.0 0.00 0.00 0.00 53 1013.6
20260904184132 76 16 1.7 0.0 0.00 0.00 0.00 53 1013.6
20260904184102 76 16 1.7 0.0 0.00 0.00 0.00 53 1013.6
20260904184032 76 16 1.7 0.0 0.00 0.00 0.00 53 1013.6
20260904184004 76 16 1.7 0.0 0.00 0.00 0.00 53 1013.6
20260904183934 76 16 1.7 2.6 0.00 0.00 0.00 53 1013.6
20260904183926 76 19 1.7 2.6 0.00 0.00 0.00 54 1014.4
20260904183909 77 164 0.9 0.0 0.00 0.00 0.00 53 1013.6
20260904183902 76 164 0.9 0.0 0.00 0.00 0.00 53 1013.6
20260904183833 76 164 0.9 0.0 0.00 0.00 0.00 54 1013.6
20260904183803 76 164 0.9 0.0 0.00 0.00 0.00 54 1013.6
20260904183737 77 164 0.9 0.0 0.00 0.00 0.00 53 1013.6
20260904183732 76 164 0.9 0.0 0.00 0.00 0.00 54 1013.6
20260904183703 77 164 0.9 0.0 0.00 0.00 0.00 53 1013.6
20260904183632 77 164 0.9 0.0 0.00 0.00 0.00 53 1013.6
20260904183537 77 164 0.9 0.0 0.00 0.00 0.00 53 1013.6
20260904183525 77 164 0.9 0.0 0.00 0.00 0.00 53 1013.6
20260904183421 75 120 1.7 7.0 0.00 0.00 0.00 55 1014.5
20260904183245 77 164 0.9 0.0 0.00 0.00 0.00 53 1013.6
20260904183206 77 164 0.9 0.0 0.00 0.00 0.00 53 1013.6
20260904183133 77 164 0.9 0.0 0.00 0.00 0.00 53 1013.6
20260904183035 77 164 0.9 0.0 0.00 0.00 0.00 53 1013.6
20260904183003 77 164 0.9 0.0 0.00 0.00 0.00 53 1013.6
20260904182934 77 164 0.9 2.6 0.00 0.00 0.00 53 1013.6
20260904182917 76 261 1.7 3.5 0.00 0.00 0.00 54 1014.5
20260904182849 75 297 0.0 0.0 0.00 0.00 0.00 56 1013.7
20260904182834 76 297 0.0 0.0 0.00 0.00 0.00 54 1013.7
20260904182802 76 297 0.0 0.0 0.00 0.00 0.00 55 1013.7
20260904182738 75 297 0.0 0.0 0.00 0.00 0.00 55 1013.7
20260904182733 76 297 0.0 0.0 0.00 0.00 0.00 54 1013.7
20260904182703 76 297 0.0 0.0 0.00 0.00 0.00 55 1013.7
20260904182633 76 297 0.0 0.0 0.00 0.00 0.00 54 1013.7
20260904182616 76 297 0.0 0.0 0.00 0.00 0.00 54 1013.7
20260904182545 76 297 0.0 0.0 0.00 0.00 0.00 54 1013.7
20260904182532 76 297 0.0 0.0 0.00 0.00 0.00 55 1013.7
20260904182524 76 297 0.0 0.0 0.00 0.00 0.00 55 1013.7
20260904182412 75 268 2.6 4.3 0.00 0.00 0.00 55 1014.5
20260904182401 76 297 0.0 0.0 0.00 0.00 0.00 55 1013.7
20260904182351 75 297 0.0 0.0 0.00 0.00 0.00 55 1013.7
20260904182103 76 297 0.0 0.0 0.00 0.00 0.00 54 1013.7
20260904182032 76 297 0.0 0.0 0.00 0.00 0.00 55 1013.7
20260904182003 76 297 0.0 0.0 0.00 0.00 0.00 55 1013.7
20260904181934 75 297 0.0 0.9 0.00 0.00 0.00 56 1013.7
20260904181907 75 143 1.7 4.3 0.00 0.00 0.00 55 1014.5
20260904181833 75 175 1.7 0.0 0.00 0.00 0.00 56 1013.7
20260904181746 74 175 1.7 0.0 0.00 0.00 0.00 56 1013.7
20260904181733 75 175 1.7 0.0 0.00 0.00 0.00 56 1013.7
20260904181633 75 175 1.7 0.0 0.00 0.00 0.00 56 1013.7
20260904181532 74 175 1.7 0.0 0.00 0.00 0.00 56 1013.7
20260904181502 74 175 1.7 0.0 0.00 0.00 0.00 57 1013.7
20260904181432 74 175 1.7 0.0 0.00 0.00 0.00 57 1013.7
20260904181412 74 175 1.7 0.0 0.00 0.00 0.00 57 1013.7
20260904181402 74 207 7.0 7.8 0.00 0.00 0.00 57 1014.7
20260904181234 74 175 1.7 0.0 0.00 0.00 0.00 56 1013.7
20260904181215 75 219 1.7 0.0 0.00 0.00 0.00 56 1013.7
20260904181205 74 175 1.7 0.0 0.00 0.00 0.00 56 1013.7
20260904181133 74 175 1.7 0.0 0.00 0.00 0.00 56 1013.7
20260904181033 74 175 1.7 0.0 0.00 0.00 0.00 56 1013.7
20260904181022 75 219 1.7 0.0 0.00 0.00 0.00 56 1013.7
20260904181015 74 175 1.7 0.0 0.00 0.00 0.00 57 1013.7
20260904180934 74 175 1.7 3.5 0.00 0.00 0.00 57 1013.7
20260904180907 75 219 1.7 0.0 0.00 0.00 0.00 56 1013.7
20260904180902 74 219 1.7 0.0 0.00 0.00 0.00 57 1013.7
20260904180857 74 203 2.6 6.1 0.00 0.00 0.00 56 1014.4
20260904180848 74 219 1.7 0.0 0.00 0.00 0.00 56 1013.7
20260904180658 75 219 1.7 0.0 0.00 0.00 0.00 55 1013.7
20260904180646 75 219 1.7 0.0 0.00 0.00 0.00 55 1013.7
20260904180637 75 219 1.7 0.0 0.00 0.00 0.00 55 1013.7
20260904180352 75 63 0.9 2.6 0.00 0.00 0.00 57 1014.8
20260904180333 75 219 1.7 0.0 0.00 0.00 0.00 56 1013.7
20260904180251 74 67 4.3 0.0 0.00 0.00 0.00 57 1013.7
20260904180232 74 219 1.7 0.0 0.00 0.00 0.00 58 1013.7
20260904180203 74 219 1.7 0.0 0.00 0.00 0.00 58 1013.7
20260904180132 74 219 1.7 0.0 0.00 0.00 0.00 58 1013.7
20260904180116 74 219 1.7 0.0 0.00 0.00 0.00 58 1013.7
20260904180045 74 67 4.3 0.0 0.00 0.00 0.00 57 1013.7
20260904180034 74 219 1.7 0.0 0.00 0.00 0.00 58 1013.7
20260904180003 74 219 1.7 0.0 0.00 0.00 0.00 58 1013.7
20260904175934 74 219 1.7 3.5 0.00 0.00 0.00 58 1013.7
20260904175912 74 67 4.3 0.0 0.00 0.00 0.00 58 1013.7
20260904175851 74 205 3.5 4.3 0.00 0.00 0.00 57 1014.8
20260904175737 74 67 4.3 0.0 0.00 0.00 0.00 57 1013.7
20260904175733 74 67 4.3 0.0 0.00 0.00 0.00 57 1013.7
20260904175713 74 67 4.3 0.0 0.00 0.00 0.00 57 1013.7
20260904175533 74 67 4.3 0.0 0.00 0.00 0.00 57 1013.7
20260904175445 74 67 4.3 0.0 0.00 0.00 0.00 57 1013.7
20260904175350 74 111 2.6 4.3 0.00 0.00 0.00 57 1014.7
20260904175346 74 67 4.3 0.0 0.00 0.00 0.00 57 1013.7
20260904175133 74 67 4.3 0.0 0.00 0.00 0.00 57 1013.7
20260904175032 74 67 4.3 0.0 0.00 0.00 0.00 57 1013.7
20260904175009 72 28 1.7 0.0 0.00 0.00 0.00 62 1013.6
20260904175003 74 67 4.3 0.0 0.00 0.00 0.00 57 1013.7
20260904174934 74 67 4.3 5.2 0.00 0.00 0.00 57 1013.7
20260904174845 74 28 1.7 0.0 0.00 0.00 0.00 57 1013.6
20260904174802 74 28 1.7 0.0 0.00 0.00 0.00 57 1013.6
20260904174733 74 28 1.7 0.0 0.00 0.00 0.00 58 1013.6
20260904174710 74 28 1.7 0.0 0.00 0.00 0.00 58 1013.6
20260904174653 72 28 1.7 0.0 0.00 0.00 0.00 62 1013.6
20260904174502 72 28 1.7 0.0 0.00 0.00 0.00 62 1013.6
20260904174432 72 28 1.7 0.0 0.00 0.00 0.00 62 1013.6
20260904174340 74 62 2.6 3.5 0.00 0.00 0.00 58 1014.7
20260904174333 72 28 1.7 0.0 0.00 0.00 0.00 62 1013.6
20260904174304 72 28 1.7 0.0 0.00 0.00 0.00 62 1013.6
20260904174232 72 28 1.7 0.0 0.00 0.00 0.00 62 1013.6
20260904174209 72 65 0.0 0.0 0.00 0.00 0.00 62 1013.7
20260904174133 72 28 1.7 0.0 0.00 0.00 0.00 62 1013.6
20260904174032 72 28 1.7 0.0 0.00 0.00 0.00 62 1013.6
20260904174002 72 28 1.7 0.0 0.00 0.00 0.00 62 1013.6
20260904173934 72 28 1.7 1.7 0.00 0.00 0.00 62 1013.6
20260904173853 72 65 0.0 0.0 0.00 0.00 0.00 64 1013.7
20260904173849 72 65 0.0 0.0 0.00 0.00 0.00 62 1013.7
20260904173836 73 117 3.5 5.2 0.00 0.00 0.00 62 1014.5
20260904173703 72 65 0.0 0.0 0.00 0.00 0.00 62 1013.7
20260904173632 72 65 0.0 0.0 0.00 0.00 0.00 62 1013.7
20260904173604 72 65 0.0 0.0 0.00 0.00 0.00 64 1013.7
20260904173532 72 65 0.0 0.0 0.00 0.00 0.00 64 1013.7
20260904173450 72 65 0.0 0.0 0.00 0.00 0.00 63 1013.7
20260904173446 72 65 0.0 0.0 0.00 0.00 0.00 64 1013.7
20260904173331 72 121 2.6 3.5 0.00 0.00 0.00 63 1014.7
20260904173303 72 65 0.0 0.0 0.00 0.00 0.00 64 1013.7
20260904173244 71 65 0.0 0.0 0.00 0.00 0.00 63 1013.7
20260904173129 71 65 0.0 0.0 0.00 0.00 0.00 63 1013.7
20260904173116 71 69 1.7 0.0 0.00 0.00 0.00 64 1013.7
20260904173109 72 65 0.0 0.0 0.00 0.00 0.00 62 1013.7
20260904172929 72 65 0.0 1.7 0.00 0.00 0.00 63 1013.7
20260904172829 72 69 1.7 0.0 0.00 0.00 0.00 63 1013.7
20260904172827 72 32 3.5 3.5 0.00 0.00 0.00 63 1014.5
20260904172729 72 69 1.7 0.0 0.00 0.00 0.00 63 1013.7
20260904172712 72 69 1.7 0.0 0.00 0.00 0.00 64 1013.7
20260904172529 71 69 1.7 0.0 0.00 0.00 0.00 64 1013.7
20260904172459 71 69 1.7 0.0 0.00 0.00 0.00 64 1013.7
20260904172428 71 69 1.7 0.0 0.00 0.00 0.00 65 1013.7
20260904172358 71 69 1.7 0.0 0.00 0.00 0.00 65 1013.7
20260904172338 72 102 0.0 0.0 0.00 0.00 0.00 62 1013.6
20260904172328 71 69 1.7 0.0 0.00 0.00 0.00 64 1013.7
20260904172326 71 86 0.9 3.5 0.00 0.00 0.00 64 1014.6
20260904172228 71 69 1.7 0.0 0.00 0.00 0.00 64 1013.7
20260904172158 71 69 1.7 0.0 0.00 0.00 0.00 64 1013.7
20260904172128 72 69 1.7 0.0 0.00 0.00 0.00 63 1013.7
20260904172031 72 69 1.7 0.0 0.00 0.00 0.00 63 1013.7
20260904172020 72 69 1.7 0.0 0.00 0.00 0.00 62 1013.7
20260904172010 72 69 1.7 3.5 0.00 0.00 0.00 62 1013.7
20260904171829 72 102 0.0 0.0 0.00 0.00 0.00 62 1013.6
20260904171821 72 44 0.0 4.3 0.00 0.00 0.00 62 1014.5
20260904171758 72 102 0.0 0.0 0.00 0.00 0.00 62 1013.6
20260904171729 73 102 0.0 0.0 0.00 0.00 0.00 61 1013.6
20260904171659 73 102 0.0 0.0 0.00 0.00 0.00 62 1013.6
20260904171634 72 102 0.0 0.0 0.00 0.00 0.00 62 1013.6
20260904171558 72 102 0.0 0.0 0.00 0.00 0.00 62 1013.6
20260904171528 72 102 0.0 0.0 0.00 0.00 0.00 63 1013.6
20260904171500 72 102 0.0 0.0 0.00 0.00 0.00 63 1013.6
20260904171442 72 102 0.0 0.0 0.00 0.00 0.00 62 1013.6
20260904171412 72 102 0.0 0.0 0.00 0.00 0.00 63 1013.6
20260904171329 72 102 0.0 0.0 0.00 0.00 0.00 62 1013.6
20260904171317 72 200 3.5 3.5 0.00 0.00 0.00 62 1014.6
20260904171300 73 102 0.0 0.0 0.00 0.00 0.00 61 1013.6
20260904171251 73 55 1.7 0.0 0.00 0.00 0.00 61 1013.6
20260904171229 73 102 0.0 0.0 0.00 0.00 0.00 61 1013.6
20260904171158 73 102 0.0 0.0 0.00 0.00 0.00 61 1013.6
20260904171130 73 102 0.0 0.0 0.00 0.00 0.00 60 1013.6
20260904171042 73 102 0.0 0.0 0.00 0.00 0.00 60 1013.6
20260904170959 73 102 0.0 0.0 0.00 0.00 0.00 60 1013.6
20260904170938 73 102 0.0 3.5 0.00 0.00 0.00 60 1013.6
20260904170923 73 55 1.7 0.0 0.00 0.00 0.00 60 1013.6
20260904170813 73 157 1.7 5.2 0.00 0.00 0.00 60 1014.6
20260904170728 73 55 1.7 0.0 0.00 0.00 0.00 61 1013.6
20260904170659 73 55 1.7 0.0 0.00 0.00 0.00 62 1013.6
20260904170631 73 55 1.7 0.0 0.00 0.00 0.00 63 1013.6
20260904170607 72 55 1.7 0.0 0.00 0.00 0.00 63 1013.6
20260904170545 73 55 1.7 0.0 0.00 0.00 0.00 63 1013.6
20260904170528 72 55 1.7 0.0 0.00 0.00 0.00 64 1013.6
20260904170459 72 55 1.7 0.0 0.00 0.00 0.00 64 1013.6
20260904170428 72 55 1.7 0.0 0.00 0.00 0.00 64 1013.6
20260904170328 72 55 1.7 0.0 0.00 0.00 0.00 64 1013.6
20260904170308 72 104 0.9 2.6 0.00 0.00 0.00 65 1014.5
20260904170242 72 55 1.7 0.0 0.00 0.00 0.00 65 1013.6
20260904170232 72 55 1.7 0.0 0.00 0.00 0.00 65 1013.6
20260904170222 73 55 1.7 0.0 0.00 0.00 0.00 63 1013.6
20260904170030 73 55 1.7 0.0 0.00 0.00 0.00 63 1013.6
20260904165958 73 55 1.7 0.0 0.00 0.00 0.00 63 1013.6
20260904165930 72 55 1.7 1.7 0.00 0.00 0.00 64 1013.6
20260904165916 71 124 0.0 0.0 0.00 0.00 0.00 65 1013.4
20260904165859 72 124 0.0 0.0 0.00 0.00 0.00 65 1013.4
20260904165828 72 124 0.0 0.0 0.00 0.00 0.00 65 1013.4
20260904165808 71 114 0.0 2.6 0.00 0.00 0.00 65 1014.4
20260904165759 71 124 0.0 0.0 0.00 0.00 0.00 65 1013.4
20260904165728 70 124 0.0 0.0 0.00 0.00 0.00 67 1013.4
20260904165630 70 124 0.0 0.0 0.00 0.00 0.00 67 1013.4
20260904165620 71 62 0.0 0.0 0.00 0.00 0.00 67 1013.5
20260904165612 70 124 0.0 0.0 0.00 0.00 0.00 66 1013.4
20260904165601 71 124 0.0 0.0 0.00 0.00 0.00 66 1013.4
20260904165401 71 124 0.0 0.0 0.00 0.00 0.00 64 1013.4
20260904165328 71 124 0.0 0.0 0.00 0.00 0.00 64 1013.4
20260904165305 71 197 0.0 2.6 0.00 0.00 0.00 64 1014.4
20260904165258 71 124 0.0 0.0 0.00 0.00 0.00 64 1013.4
20260904165228 72 124 0.0 0.0 0.00 0.00 0.00 63 1013.4
20260904165134 71 124 0.0 0.0 0.00 0.00 0.00 64 1013.4
20260904165119 71 124 0.0 0.0 0.00 0.00 0.00 64 1013.4
20260904165058 71 124 0.0 0.0 0.00 0.00 0.00 64 1013.4
20260904164930 71 124 0.0 1.7 0.00 0.00 0.00 64 1013.4
20260904164859 71 62 0.0 0.0 0.00 0.00 0.00 65 1013.5
20260904164829 71 62 0.0 0.0 0.00 0.00 0.00 65 1013.5
20260904164802 71 108 0.9 1.7 0.00 0.00 0.00 66 1014.4
20260904164758 71 62 0.0 0.0 0.00 0.00 0.00 66 1013.5
20260904164730 70 62 0.0 0.0 0.00 0.00 0.00 66 1013.5
20260904164659 70 62 0.0 0.0 0.00 0.00 0.00 66 1013.5
20260904164637 72 62 0.0 0.0 0.00 0.00 0.00 65 1013.5
20260904164633 70 62 0.0 0.0 0.00 0.00 0.00 65 1013.5
20260904164622 70 62 0.0 0.0 0.00 0.00 0.00 66 1013.5
20260904164611 70 62 0.0 0.0 0.00 0.00 0.00 65 1013.5
20260904164429 71 62 0.0 0.0 0.00 0.00 0.00 66 1013.5
20260904164359 71 62 0.0 0.0 0.00 0.00 0.00 66 1013.5
20260904164333 71 78 0.9 0.0 0.00 0.00 0.00 68 1013.4
20260904164329 71 62 0.0 0.0 0.00 0.00 0.00 66 1013.5
20260904164311 72 62 0.0 0.0 0.00 0.00 0.00 65 1013.5
20260904164257 71 170 0.0 6.1 0.00 0.00 0.00 67 1014.3
20260904164128 71 62 0.0 0.0 0.00 0.00 0.00 67 1013.5
20260904164035 71 62 0.0 0.0 0.00 0.00 0.00 67 1013.5
20260904164024 72 62 0.0 0.0 0.00 0.00 0.00 68 1013.5
20260904164012 71 62 0.0 0.0 0.00 0.00 0.00 68 1013.5
20260904163828 71 78 0.9 0.0 0.00 0.00 0.00 68 1013.4
20260904163805 71 78 0.9 0.0 0.00 0.00 0.00 67 1013.4
20260904163759 71 78 0.9 0.0 0.00 0.00 0.00 68 1013.4
20260904163753 71 124 0.9 3.5 0.00 0.00 0.00 68 1014.3
20260904163728 71 78 0.9 0.0 0.00 0.00 0.00 68 1013.4
20260904163659 71 78 0.9 0.0 0.00 0.00 0.00 68 1013.4
20260904163629 71 78 0.9 0.0 0.00 0.00 0.00 68 1013.4
20260904163612 71 78 0.9 0.0 0.00 0.00 0.00 67 1013.4
20260904163530 71 78 0.9 0.0 0.00 0.00 0.00 68 1013.4
20260904163448 71 78 0.9 0.0 0.00 0.00 0.00 68 1013.4
20260904163439 71 78 0.9 0.0 0.00 0.00 0.00 68 1013.4
20260904163248 71 207 1.7 1.7 0.00 0.00 0.00 68 1014.2
20260904163245 71 78 0.9 0.0 0.00 0.00 0.00 67 1013.4
20260904163058 71 78 0.9 0.0 0.00 0.00 0.00 68 1013.4
20260904163031 71 78 0.9 0.0 0.00 0.00 0.00 67 1013.4
20260904162958 71 78 0.9 0.0 0.00 0.00 0.00 67 1013.4
20260904162931 71 78 0.9 1.7 0.00 0.00 0.00 67 1013.4
20260904162858 71 59 1.7 0.0 0.00 0.00 0.00 67 1013.5
20260904162828 71 59 1.7 0.0 0.00 0.00 0.00 68 1013.5
20260904162800 71 59 1.7 0.0 0.00 0.00 0.00 68 1013.5
20260904162747 71 135 0.0 1.7 0.00 0.00 0.00 67 1014.3
20260904162730 71 59 1.7 0.0 0.00 0.00 0.00 67 1013.5
20260904162629 71 59 1.7 0.0 0.00 0.00 0.00 67 1013.5
20260904162559 72 59 1.7 0.0 0.00 0.00 0.00 67 1013.5
20260904162528 72 59 1.7 0.0 0.00 0.00 0.00 67 1013.5
20260904162500 72 59 1.7 0.0 0.00 0.00 0.00 67 1013.5
20260904162429 72 59 1.7 0.0 0.00 0.00 0.00 66 1013.5
20260904162329 72 59 1.7 0.0 0.00 0.00 0.00 66 1013.5
20260904162258 72 59 1.7 0.0 0.00 0.00 0.00 66 1013.5
20260904162243 72 11 0.0 3.5 0.00 0.00 0.00 66 1014.3
20260904162228 72 59 1.7 0.0 0.00 0.00 0.00 66 1013.5
20260904162159 72 59 1.7 0.0 0.00 0.00 0.00 66 1013.5
20260904162128 72 59 1.7 0.0 0.00 0.00 0.00 66 1013.5
20260904162036 72 59 1.7 0.0 0.00 0.00 0.00 66 1013.5
20260904161959 71 59 1.7 0.0 0.00 0.00 0.00 67 1013.5
20260904161933 69 80 1.7 0.0 0.00 0.00 0.00 71 1013.1
20260904161929 71 59 1.7 2.6 0.00 0.00 0.00 67 1013.5
20260904161859 71 80 1.7 0.0 0.00 0.00 0.00 69 1013.1
20260904161828 71 80 1.7 0.0 0.00 0.00 0.00 69 1013.1
20260904161811 69 80 1.7 0.0 0.00 0.00 0.00 71 1013.1
20260904161758 71 80 1.7 0.0 0.00 0.00 0.00 68 1013.1
20260904161738 71 103 0.0 3.5 0.00 0.00 0.00 69 1014.4
20260904161728 71 80 1.7 0.0 0.00 0.00 0.00 69 1013.1
20260904161658 70 80 1.7 0.0 0.00 0.00 0.00 69 1013.1
20260904161646 69 80 1.7 0.0 0.00 0.00 0.00 71 1013.1
20260904161628 69 80 1.7 0.0 0.00 0.00 0.00 71 1013.1
20260904161618 70 80 1.7 0.0 0.00 0.00 0.00 70 1013.1
20260904161608 69 80 1.7 0.0 0.00 0.00 0.00 71 1013.1
20260904161310 69 80 1.7 0.0 0.00 0.00 0.00 71 1013.1
20260904161238 69 28 0.0 2.6 0.00 0.00 0.00 71 1014.2
20260904161130 69 80 1.7 0.0 0.00 0.00 0.00 71 1013.1
20260904161119 71 78 2.6 0.0 0.00 0.00 0.00 69 1013.1
20260904161108 69 80 1.7 0.0 0.00 0.00 0.00 72 1013.1
20260904160930 70 80 1.7 3.5 0.00 0.00 0.00 70 1013.1
20260904160829 70 78 2.6 0.0 0.00 0.00 0.00 70 1013.1
20260904160733 71 83 2.6 4.3 0.00 0.00 0.00 69 1014.2
20260904160729 70 78 2.6 0.0 0.00 0.00 0.00 69 1013.1
20260904160649 70 78 2.6 0.0 0.00 0.00 0.00 69 1013.1
20260904160645 71 78 2.6 0.0 0.00 0.00 0.00 69 1013.1
20260904160459 71 78 2.6 0.0 0.00 0.00 0.00 68 1013.1
20260904160428 71 78 2.6 0.0 0.00 0.00 0.00 68 1013.1
20260904160359 71 78 2.6 0.0 0.00 0.00 0.00 67 1013.1
20260904160328 71 78 2.6 0.0 0.00 0.00 0.00 68 1013.1
20260904160312 71 129 2.6 0.0 0.00 0.00 0.00 67 1013.1
20260904160254 71 78 2.6 0.0 0.00 0.00 0.00 68 1013.1
20260904160232 71 78 2.6 0.0 0.00 0.00 0.00 68 1013.1
20260904160229 71 123 0.9 2.6 0.00 0.00 0.00 68 1014.3
20260904160222 70 78 2.6 0.0 0.00 0.00 0.00 69 1013.1
20260904160042 69 129 2.6 0.0 0.00 0.00 0.00 71 1013.3
20260904160031 70 78 2.6 0.0 0.00 0.00 0.00 69 1013.1
20260904160009 71 78 2.6 0.0 0.00 0.00 0.00 68 1013.1
20260904155946 71 78 2.6 3.5 0.00 0.00 0.00 68 1013.1
20260904155758 69 129 2.6 0.0 0.00 0.00 0.00 71 1013.1
20260904155728 69 129 2.6 0.0 0.00 0.00 0.00 71 1013.3
20260904155724 71 108 1.7 3.5 0.00 0.00 0.00 68 1014.2
20260904155718 69 129 2.6 0.0 0.00 0.00 0.00 71 1013.3
20260904155709 69 129 2.6 0.0 0.00 0.00 0.00 71 1013.3
20260904155529 69 129 2.6 0.0 0.00 0.00 0.00 71 1013.3
20260904155459 69 129 2.6 0.0 0.00 0.00 0.00 71 1013.3
20260904155428 69 129 2.6 0.0 0.00 0.00 0.00 71 1013.3
20260904155346 69 129 2.6 0.0 0.00 0.00 0.00 71 1013.3
20260904155223 69 128 1.7 5.2 0.00 0.00 0.00 70 1014.3
20260904155129 69 129 2.6 0.0 0.00 0.00 0.00 71 1013.3
20260904155036 69 129 2.6 0.0 0.00 0.00 0.00 71 1013.3
20260904155002 69 129 2.6 0.0 0.00 0.00 0.00 71 1013.3
20260904154942 69 52 0.0 0.0 0.00 0.00 0.00 73 1013.2
20260904154931 69 129 2.6 4.3 0.00 0.00 0.00 71 1013.3
20260904154829 69 52 0.0 0.0 0.00 0.00 0.00 71 1013.2
20260904154735 71 52 0.0 0.0 0.00 0.00 0.00 69 1013.2
20260904154729 69 52 0.0 0.0 0.00 0.00 0.00 71 1013.2
20260904154721 69 137 4.3 5.2 0.00 0.00 0.00 71 1014.1
20260904154700 69 52 0.0 0.0 0.00 0.00 0.00 71 1013.2
20260904154630 69 52 0.0 0.0 0.00 0.00 0.00 72 1013.2
20260904154620 69 52 0.0 0.0 0.00 0.00 0.00 72 1013.2
20260904154609 69 52 0.0 0.0 0.00 0.00 0.00 73 1013.2
20260904154429 70 52 0.0 0.0 0.00 0.00 0.00 71 1013.2
20260904154409 70 52 0.0 0.0 0.00 0.00 0.00 71 1013.2
20260904154230 71 52 0.0 0.0 0.00 0.00 0.00 70 1013.2
20260904154221 67 71 2.6 0.0 0.00 0.00 0.00 78 1013.0
20260904154216 71 197 2.6 2.6 0.00 0.00 0.00 69 1014.1
20260904154129 71 52 0.0 0.0 0.00 0.00 0.00 70 1013.2
20260904154030 67 52 0.0 0.0 0.00 0.00 0.00 78 1013.2
20260904154004 67 52 0.0 0.0 0.00 0.00 0.00 78 1013.2
20260904153939 67 52 0.0 0.0 0.00 0.00 0.00 78 1013.2
20260904153921 66 71 2.6 0.0 0.00 0.00 0.00 78 1013.0
20260904153906 66 71 2.6 0.0 0.00 0.00 0.00 78 1013.0
20260904153858 67 71 2.6 0.0 0.00 0.00 0.00 78 1013.0
20260904153711 68 158 0.9 1.7 0.00 0.00 0.00 76 1014.0
20260904153659 67 71 2.6 0.0 0.00 0.00 0.00 78 1013.0
20260904153628 67 71 2.6 0.0 0.00 0.00 0.00 78 1013.0
20260904153546 67 71 2.6 0.0 0.00 0.00 0.00 78 1013.0
20260904153538 67 71 2.6 0.0 0.00 0.00 0.00 78 1013.0
20260904153409 66 71 2.6 0.0 0.00 0.00 0.00 78 1013.0
20260904153229 66 71 2.6 0.0 0.00 0.00 0.00 78 1013.0
20260904153207 66 92 1.7 2.6 0.00 0.00 0.00 78 1014.0
20260904153159 66 71 2.6 0.0 0.00 0.00 0.00 78 1013.0
20260904153129 67 71 2.6 0.0 0.00 0.00 0.00 77 1013.0
20260904153030 67 71 2.6 0.0 0.00 0.00 0.00 77 1013.0
20260904153011 67 103 0.0 0.0 0.00 0.00 0.00 76 1013.1
20260904152958 67 71 2.6 0.0 0.00 0.00 0.00 77 1013.0
20260904152932 67 71 2.6 2.6 0.00 0.00 0.00 77 1013.0
20260904152829 67 103 0.0 0.0 0.00 0.00 0.00 77 1013.1
20260904152759 67 103 0.0 0.0 0.00 0.00 0.00 76 1013.1
20260904152728 67 103 0.0 0.0 0.00 0.00 0.00 76 1013.1
20260904152716 67 103 0.0 0.0 0.00 0.00 0.00 77 1013.1
20260904152703 67 93 1.7 2.6 0.00 0.00 0.00 76 1014.1
20260904152643 67 103 0.0 0.0 0.00 0.00 0.00 76 1013.1
20260904152500 67 103 0.0 0.0 0.00 0.00 0.00 77 1013.1
20260904152447 67 103 0.0 0.0 0.00 0.00 0.00 77 1013.1
20260904152429 67 103 0.0 0.0 0.00 0.00 0.00 77 1013.1
20260904152351 67 103 0.0 0.0 0.00 0.00 0.00 77 1013.1
20260904152211 67 103 0.0 0.0 0.00 0.00 0.00 77 1013.1
20260904152158 67 93 0.0 2.6 0.00 0.00 0.00 77 1014.1
20260904152150 67 86 0.0 0.0 0.00 0.00 0.00 78 1013.2
20260904152129 67 103 0.0 0.0 0.00 0.00 0.00 77 1013.1
20260904151941 67 103 0.0 0.0 0.00 0.00 0.00 77 1013.1
20260904151911 67 103 0.0 0.0 0.00 0.00 0.00 77 1013.1
20260904151824 67 86 0.0 0.0 0.00 0.00 0.00 78 1013.2
20260904151820 67 86 0.0 0.0 0.00 0.00 0.00 77 1013.2
20260904151805 67 86 0.0 0.0 0.00 0.00 0.00 78 1013.2
20260904151654 67 124 0.9 1.7 0.00 0.00 0.00 77 1014.1
20260904151611 67 86 0.0 0.0 0.00 0.00 0.00 78 1013.2
20260904151510 67 86 0.0 0.0 0.00 0.00 0.00 78 1013.2
20260904151458 67 65 3.5 0.0 0.00 0.00 0.00 78 1013.1
20260904151451 67 86 0.0 0.0 0.00 0.00 0.00 78 1013.2
20260904151152 66 77 1.7 2.6 0.00 0.00 0.00 78 1014.0
20260904151140 67 86 0.0 0.0 0.00 0.00 0.00 78 1013.2
20260904151111 66 86 0.0 0.0 0.00 0.00 0.00 78 1013.2
20260904151052 66 86 0.0 0.0 0.00 0.00 0.00 78 1013.2
20260904151026 67 86 0.0 0.0 0.00 0.00 0.00 78 1013.2
20260904151003 67 86 0.0 1.7 0.00 0.00 0.00 78 1013.2
20260904150817 65 65 3.5 0.0 0.00 0.00 0.00 83 1013.0
20260904150811 67 65 3.5 0.0 0.00 0.00 0.00 78 1013.1
20260904150740 65 65 3.5 0.0 0.00 0.00 0.00 83 1013.1
20260904150711 65 65 3.5 0.0 0.00 0.00 0.00 83 1013.0
20260904150648 67 172 0.0 1.7 0.00 0.00 0.00 79 1013.9
20260904150642 65 65 3.5 0.0 0.00 0.00 0.00 83 1013.0
20260904150631 65 65 3.5 0.0 0.00 0.00 0.00 83 1013.0
20260904150622 65 65 3.5 0.0 0.00 0.00 0.00 83 1013.1
20260904150517 65 65 3.5 0.0 0.00 0.00 0.00 83 1013.0
20260904150511 65 65 3.5 0.0 0.00 0.00 0.00 83 1013.0
20260904150450 65 65 3.5 0.0 0.00 0.00 0.00 83 1013.0
20260904150316 65 65 3.5 0.0 0.00 0.00 0.00 83 1013.0
20260904150303 65 65 3.5 0.0 0.00 0.00 0.00 83 1013.0
20260904150149 66 109 1.7 1.7 0.00 0.00 0.00 81 1014.0
20260904150127 65 65 3.5 0.0 0.00 0.00 0.00 83 1013.0
20260904150113 65 65 3.5 0.0 0.00 0.00 0.00 83 1013.0
20260904145922 65 153 0.0 0.0 0.00 0.00 0.00 83 1013.1
20260904145912 65 65 3.5 3.5 0.00 0.00 0.00 83 1013.0
20260904145810 65 153 0.0 0.0 0.00 0.00 0.00 83 1013.1
20260904145710 65 153 0.0 0.0 0.00 0.00 0.00 83 1013.1
20260904145647 65 62 2.6 3.5 0.00 0.00 0.00 83 1014.1
20260904145610 65 153 0.0 0.0 0.00 0.00 0.00 83 1013.1
20260904145550 65 153 0.0 0.0 0.00 0.00 0.00 83 1013.1
20260904145410 65 153 0.0 0.0 0.00 0.00 0.00 83 1013.1
20260904145339 65 153 0.0 0.0 0.00 0.00 0.00 84 1013.1
20260904145309 65 153 0.0 0.0 0.00 0.00 0.00 84 1013.1
20260904145241 65 153 0.0 0.0 0.00 0.00 0.00 84 1013.1
20260904145209 65 153 0.0 0.0 0.00 0.00 0.00 84 1013.1
20260904145142 64 89 1.7 2.6 0.00 0.00 0.00 83 1014.0
20260904145139 64 153 0.0 0.0 0.00 0.00 0.00 84 1013.1
20260904145109 64 153 0.0 0.0 0.00 0.00 0.00 83 1013.1
20260904145009 64 153 0.0 0.0 0.00 0.00 0.00 84 1013.1
20260904144939 65 153 0.0 0.0 0.00 0.00 0.00 84 1013.1
20260904144911 64 153 0.0 0.0 0.00 0.00 0.00 84 1013.1
20260904144850 64 97 0.0 0.0 0.00 0.00 0.00 84 1013.0
20260904144841 64 97 0.0 0.0 0.00 0.00 0.00 84 1013.0
20260904144809 64 97 0.0 0.0 0.00 0.00 0.00 84 1013.0
20260904144740 64 97 0.0 0.0 0.00 0.00 0.00 84 1013.0
20260904144730 64 97 0.0 0.0 0.00 0.00 0.00 85 1013.0
20260904144709 64 97 0.0 0.0 0.00 0.00 0.00 84 1013.0
20260904144638 64 107 2.6 2.6 0.00 0.00 0.00 84 1013.9
20260904144611 64 97 0.0 0.0 0.00 0.00 0.00 84 1013.0
20260904144532 64 97 0.0 0.0 0.00 0.00 0.00 85 1013.0
20260904144528 64 97 0.0 0.0 0.00 0.00 0.00 84 1013.0
20260904144352 64 97 0.0 0.0 0.00 0.00 0.00 84 1013.0
20260904144210 64 97 0.0 0.0 0.00 0.00 0.00 85 1013.0
20260904144133 64 112 1.7 2.6 0.00 0.00 0.00 85 1013.8
20260904144111 64 97 0.0 0.0 0.00 0.00 0.00 85 1013.0
20260904144057 64 97 0.0 0.0 0.00 0.00 0.00 85 1013.0
20260904143912 64 97 0.0 1.7 0.00 0.00 0.00 85 1013.0
20260904143810 64 103 0.9 0.0 0.00 0.00 0.00 85 1012.7
20260904143754 64 103 0.9 0.0 0.00 0.00 0.00 85 1012.7
20260904143723 64 103 0.9 0.0 0.00 0.00 0.00 85 1012.7
20260904143629 64 98 1.7 1.7 0.00 0.00 0.00 85 1013.8
20260904143610 64 103 0.9 0.0 0.00 0.00 0.00 85 1012.7
20260904143509 64 103 0.9 0.0 0.00 0.00 0.00 85 1012.7
20260904143440 64 103 0.9 0.0 0.00 0.00 0.00 85 1012.7
20260904143209 64 103 0.9 0.0 0.00 0.00 0.00 85 1012.7
20260904143126 64 100 1.7 2.6 0.00 0.00 0.00 85 1013.7
20260904143110 64 103 0.9 0.0 0.00 0.00 0.00 85 1012.7
20260904143052 63 131 0.0 0.0 0.00 0.00 0.00 87 1012.8
20260904143010 64 103 0.9 0.0 0.00 0.00 0.00 85 1012.7
20260904142940 64 103 0.9 0.0 0.00 0.00 0.00 85 1012.7
20260904142914 64 103 0.9 1.7 0.00 0.00 0.00 86 1012.7
20260904142903 63 131 0.0 0.9 0.00 0.00 0.00 87 1012.8
20260904142846 64 131 0.0 0.0 0.00 0.00 0.00 86 1012.8
20260904142809 64 131 0.0 0.0 0.00 0.00 0.00 86 1012.8
20260904142719 64 131 0.0 0.0 0.00 0.00 0.00 86 1012.8
20260904142705 64 131 0.0 0.0 0.00 0.00 0.00 86 1012.8
20260904142622 64 197 0.0 1.7 0.00 0.00 0.00 86 1013.7
20260904142547 64 131 0.0 0.0 0.00 0.00 0.00 86 1012.8
20260904142539 64 131 0.0 0.0 0.00 0.00 0.00 86 1012.8
20260904142410 64 131 0.0 0.0 0.00 0.00 0.00 86 1012.8
20260904142327 63 126 0.0 0.0 0.00 0.00 0.00 87 1012.4
20260904142310 64 131 0.0 0.0 0.00 0.00 0.00 86 1012.8
20260904142249 63 126 0.0 0.0 0.00 0.00 0.00 87 1012.4
20260904142245 64 131 0.0 0.0 0.00 0.00 0.00 86 1012.8
20260904142235 64 131 0.0 0.0 0.00 0.00 0.00 87 1012.8
20260904142222 64 131 0.0 0.0 0.00 0.00 0.00 87 1012.8
20260904142209 63 131 0.0 0.0 0.00 0.00 0.00 87 1012.8
20260904142117 63 99 0.0 1.7 0.00 0.00 0.00 87 1013.7
20260904141821 62 126 0.0 0.0 0.00 0.00 0.00 89 1012.4
20260904141810 63 126 0.0 0.0 0.00 0.00 0.00 87 1012.4
20260904141710 63 126 0.0 0.0 0.00 0.00 0.00 87 1012.4
20260904141657 62 126 0.0 0.9 0.00 0.00 0.00 89 1012.4
20260904141650 63 126 0.0 0.0 0.00 0.00 0.00 87 1012.4
20260904141612 63 118 0.0 1.7 0.00 0.00 0.00 87 1013.4
20260904141529 63 126 0.0 0.0 0.00 0.00 0.00 87 1012.4
20260904141520 63 126 0.0 0.0 0.00 0.00 0.00 87 1012.4
20260904141457 62 126 0.0 0.0 0.00 0.00 0.00 89 1012.4
20260904141310 62 126 0.0 0.0 0.00 0.00 0.00 89 1012.4
20260904141240 62 126 0.0 0.0 0.00 0.00 0.00 89 1012.4
20260904141210 62 126 0.0 0.0 0.00 0.00 0.00 89 1012.4
20260904141140 62 126 0.0 0.0 0.00 0.00 0.00 89 1012.4
20260904141125 62 51 0.0 0.0 0.00 0.00 0.00 89 1012.2
20260904141110 62 126 0.0 0.0 0.00 0.00 0.00 89 1012.4
20260904141108 63 131 0.9 1.7 0.00 0.00 0.00 88 1013.5
20260904141044 62 51 0.0 0.0 0.00 0.00 0.00 89 1012.2
20260904141034 62 126 0.0 0.0 0.00 0.00 0.00 89 1012.4
20260904141025 62 126 0.0 0.0 0.00 0.00 0.00 89 1012.4
20260904140810 62 51 0.0 0.0 0.00 0.00 0.00 89 1012.2
20260904140750 62 51 0.0 0.0 0.00 0.00 0.00 89 1012.2
20260904140630 62 51 0.0 0.0 0.00 0.00 0.00 89 1012.2
20260904140626 62 51 0.0 0.0 0.00 0.00 0.00 89 1012.2
20260904140604 62 150 0.0 0.0 0.00 0.00 0.00 89 1013.4
20260904140422 62 51 0.0 0.0 0.00 0.00 0.00 89 1012.2
20260904140353 62 51 0.0 0.0 0.00 0.00 0.00 89 1012.2
20260904140310 62 51 0.0 0.0 0.00 0.00 0.00 89 1012.2
20260904140253 62 57 0.0 0.0 0.00 0.00 0.00 89 1012.2
20260904140227 62 51 0.0 0.0 0.00 0.00 0.00 89 1012.2
20260904140045 62 57 0.0 0.0 0.00 0.00 0.00 89 1012.2
20260904140040 62 51 0.0 0.0 0.00 0.00 0.00 89 1012.2
20260904140009 62 51 0.0 0.0 0.00 0.00 0.00 89 1012.2
20260904135940 62 51 0.0 0.0 0.00 0.00 0.00 89 1012.2
20260904135930 62 51 0.0 1.7 0.00 0.00 0.00 89 1012.2
20260904135724 62 57 0.0 0.0 0.00 0.00 0.00 89 1012.2
20260904135602 62 43 0.9 1.7 0.00 0.00 0.00 89 1013.5
20260904135552 62 57 0.0 0.0 0.00 0.00 0.00 89 1012.2
20260904135540 62 57 0.0 0.0 0.00 0.00 0.00 89 1012.2
20260904135510 62 57 0.0 0.0 0.00 0.00 0.00 89 1012.2
20260904135411 62 57 0.0 0.0 0.00 0.00 0.00 89 1012.2
20260904135347 62 135 1.7 0.0 0.00 0.00 0.00 88 1012.2
20260904135312 62 57 0.0 0.0 0.00 0.00 0.00 89 1012.2
20260904135230 62 135 1.7 0.0 0.00 0.00 0.00 88 1012.2
20260904135226 62 57 0.0 0.0 0.00 0.00 0.00 89 1012.2
20260904135059 62 36 0.0 0.0 0.00 0.00 0.00 88 1013.2
20260904135020 62 57 0.0 0.0 0.00 0.00 0.00 88 1012.2
20260904135011 62 57 0.0 0.0 0.00 0.00 0.00 88 1012.2
20260904135002 62 57 0.0 0.0 0.00 0.00 0.00 88 1012.2
20260904134829 62 135 1.7 0.0 0.00 0.00 0.00 88 1012.2
20260904134825 62 135 1.7 0.0 0.00 0.00 0.00 88 1012.2
20260904134610 62 135 1.7 0.0 0.00 0.00 0.00 88 1012.2
20260904134554 62 157 0.0 0.9 0.00 0.00 0.00 88 1013.1
20260904134524 62 135 1.7 0.0 0.00 0.00 0.00 88 1012.2
20260904134351 62 135 1.7 0.0 0.00 0.00 0.00 88 1012.2
20260904134212 62 135 1.7 0.0 0.00 0.00 0.00 88 1012.2
20260904134110 62 135 1.7 0.0 0.00 0.00 0.00 88 1012.2
20260904134048 62 113 0.0 1.7 0.00 0.00 0.00 88 1013.1
20260904134043 62 135 1.7 0.0 0.00 0.00 0.00 88 1012.2
20260904134011 62 135 1.7 0.0 0.00 0.00 0.00 88 1012.2
20260904133939 62 135 1.7 0.0 0.00 0.00 0.00 88 1012.2
20260904133911 62 135 1.7 1.7 0.00 0.00 0.00 88 1012.2
20260904133810 62 93 0.9 0.0 0.00 0.00 0.00 88 1012.2
20260904133753 62 93 0.9 0.0 0.00 0.00 0.00 88 1012.2
20260904133711 62 93 0.9 0.0 0.00 0.00 0.00 88 1012.2
20260904133610 62 93 0.9 0.0 0.00 0.00 0.00 88 1012.2
20260904133543 62 103 0.0 1.7 0.00 0.00 0.00 88 1013.2
20260904133541 62 93 0.9 0.0 0.00 0.00 0.00 88 1012.2
20260904133509 62 93 0.9 0.0 0.00 0.00 0.00 88 1012.2
20260904133424 62 93 0.9 0.0 0.00 0.00 0.00 88 1012.2
20260904133222 62 93 0.9 0.0 0.00 0.00 0.00 88 1012.2
20260904133155 62 98 0.9 0.0 0.00 0.00 0.00 88 1012.3
20260904133109 62 93 0.9 0.0 0.00 0.00 0.00 88 1012.2
20260904133039 62 93 0.9 0.0 0.00 0.00 0.00 88 1012.2
20260904133009 62 93 0.9 0.0 0.00 0.00 0.00 88 1012.2
20260904132941 62 93 0.9 0.0 0.00 0.00 0.00 88 1012.2
20260904132911 62 93 0.9 1.7 0.00 0.00 0.00 88 1012.2
20260904132837 62 98 0.9 0.0 0.00 0.00 0.00 88 1012.3
20260904132639 62 98 0.9 0.0 0.00 0.00 0.00 88 1012.3
20260904132609 62 98 0.9 0.0 0.00 0.00 0.00 88 1012.3
20260904132546 62 98 0.9 0.0 0.00 0.00 0.00 88 1012.3
20260904132539 62 111 0.0 1.7 0.00 0.00 0.00 88 1013.0
20260904132511 62 98 0.9 0.0 0.00 0.00 0.00 88 1012.3
20260904132410 62 98 0.9 0.0 0.00 0.00 0.00 88 1012.3
20260904132347 62 98 0.9 0.0 0.00 0.00 0.00 88 1012.3
20260904132324 62 40 0.9 0.0 0.00 0.00 0.00 88 1012.3
20260904132310 62 98 0.9 0.0 0.00 0.00 0.00 88 1012.3
20260904132256 62 58 0.9 0.0 0.00 0.00 0.00 88 1012.0
20260904132241 62 40 0.9 0.0 0.00 0.00 0.00 88 1012.3
20260904132231 62 98 0.9 0.0 0.00 0.00 0.00 88 1012.3
20260904132044 62 40 0.9 0.0 0.00 0.00 0.00 88 1012.3
20260904132039 62 134 0.0 0.9 0.00 0.00 0.00 88 1013.3
20260904132023 62 40 0.9 0.0 0.00 0.00 0.00 88 1012.3
20260904132019 62 98 0.9 0.0 0.00 0.00 0.00 88 1012.3
20260904132010 62 98 0.9 0.0 0.00 0.00 0.00 88 1012.3
20260904132000 62 98 0.9 0.9 0.00 0.00 0.00 88 1012.3
20260904131649 62 40 0.9 0.0 0.00 0.00 0.00 88 1012.3
20260904131538 62 96 0.9 1.7 0.00 0.00 0.00 88 1013.3
20260904131510 62 40 0.9 0.0 0.00 0.00 0.00 88 1012.3
20260904131500 62 40 0.9 0.0 0.00 0.00 0.00 88 1012.3
20260904131453 62 40 0.9 0.0 0.00 0.00 0.00 88 1012.3
20260904131312 62 40 0.9 0.0 0.00 0.00 0.00 88 1012.3
20260904131301 62 58 0.9 0.0 0.00 0.00 0.00 88 1012.0
20260904131253 62 40 0.9 0.0 0.00 0.00 0.00 88 1012.3
20260904131110 62 40 0.9 0.0 0.00 0.00 0.00 88 1012.3
20260904131052 62 40 0.9 0.0 0.00 0.00 0.00 88 1012.3
20260904131035 62 60 0.9 1.7 0.00 0.00 0.00 88 1013.1
20260904130932 62 58 0.9 0.0 0.00 0.00 0.00 88 1012.0
20260904130928 62 40 0.9 1.7 0.00 0.00 0.00 88 1012.3
20260904130723 62 58 0.9 0.0 0.00 0.00 0.00 88 1012.0
20260904130712 62 58 0.9 0.0 0.00 0.00 0.00 88 1012.0
20260904130556 62 58 0.9 0.9 0.00 0.00 0.00 88 1012.0
20260904130549 62 48 0.9 0.0 0.00 0.00 0.00 88 1012.1
20260904130541 62 58 0.9 0.0 0.00 0.00 0.00 88 1012.0
20260904130534 62 75 0.0 0.9 0.00 0.00 0.00 88 1013.2
20260904130531 62 48 0.9 0.0 0.00 0.00 0.00 88 1012.1
20260904130521 62 48 0.9 0.0 0.00 0.00 0.00 88 1012.1
20260904130514 62 48 0.9 0.0 0.00 0.00 0.00 88 1012.1
20260904130510 62 58 0.9 0.0 0.00 0.00 0.00 88 1012.0
20260904130455 62 58 0.9 0.0 0.00 0.00 0.00 88 1012.0
20260904130313 62 58 0.9 0.0 0.00 0.00 0.00 88 1012.0
20260904130300 62 58 0.9 0.0 0.00 0.00 0.00 88 1012.0
20260904130232 62 58 0.9 0.0 0.00 0.00 0.00 88 1012.0
20260904130029 62 60 0.9 1.7 0.00 0.00 0.00 88 1013.1
20260904125802 62 48 0.9 0.0 0.00 0.00 0.00 88 1012.1
20260904125622 62 48 0.9 0.0 0.00 0.00 0.00 88 1012.1
20260904125552 62 48 0.9 0.0 0.00 0.00 0.00 88 1012.1
20260904125526 62 106 0.0 1.7 0.00 0.00 0.00 88 1013.1
20260904125410 62 48 0.9 0.0 0.00 0.00 0.00 88 1012.1
20260904125328 62 48 0.9 0.0 0.00 0.00 0.00 88 1012.1
20260904125140 62 48 0.9 0.0 0.00 0.00 0.00 88 1012.1
20260904125109 62 48 0.9 0.0 0.00 0.00 0.00 88 1012.1
20260904125039 62 48 0.9 0.0 0.00 0.00 0.00 88 1012.1
20260904125020 62 19 0.9 1.7 0.00 0.00 0.00 88 1013.1
20260904125009 62 48 0.9 0.0 0.00 0.00 0.00 88 1012.1
20260904124952 62 84 0.0 0.0 0.00 0.00 0.00 88 1012.1
20260904124939 62 48 0.9 0.0 0.00 0.00 0.00 88 1012.1
20260904124923 62 48 0.9 1.7 0.00 0.00 0.00 88 1012.1
20260904124815 62 84 0.0 0.0 0.00 0.00 0.00 88 1012.1
20260904124743 62 84 0.0 0.0 0.00 0.00 0.00 88 1012.1
20260904124709 62 84 0.0 0.0 0.00 0.00 0.00 88 1012.1
20260904124629 62 84 0.0 0.0 0.00 0.00 0.00 88 1012.1
20260904124625 62 84 0.0 0.0 0.00 0.00 0.00 88 1012.1
20260904124515 62 334 0.0 1.7 0.00 0.00 0.00 88 1013.1
20260904124410 62 84 0.0 0.0 0.00 0.00 0.00 88 1012.1
20260904124310 62 84 0.0 0.0 0.00 0.00 0.00 88 1012.1
20260904124257 62 69 1.7 0.0 0.00 0.00 0.00 87 1012.2
20260904124250 62 84 0.0 0.0 0.00 0.00 0.00 88 1012.1
20260904124109 62 84 0.0 0.0 0.00 0.00 0.00 87 1012.1
20260904124040 62 84 0.0 0.0 0.00 0.00 0.00 87 1012.1
20260904124011 62 51 0.0 1.7 0.00 0.00 0.00 87 1013.0
20260904124009 62 84 0.0 0.0 0.00 0.00 0.00 87 1012.1
20260904123940 62 84 0.0 0.0 0.00 0.00 0.00 87 1012.1
20260904123911 62 84 0.0 0.0 0.00 0.00 0.00 87 1012.1
20260904123857 62 69 1.7 0.0 0.00 0.00 0.00 87 1012.2
20260904123850 62 69 1.7 0.0 0.00 0.00 0.00 87 1012.2
20260904123722 62 69 1.7 0.0 0.00 0.00 0.00 87 1012.2
20260904123643 62 69 1.7 0.0 0.00 0.00 0.00 87 1012.2
20260904123633 62 69 1.7 0.0 0.00 0.00 0.00 87 1012.2
20260904123611 62 69 1.7 0.0 0.00 0.00 0.00 87 1012.2
20260904123517 62 69 1.7 0.0 0.00 0.00 0.00 87 1012.2
20260904123510 62 113 0.0 1.7 0.00 0.00 0.00 87 1013.1
20260904123443 62 69 1.7 0.0 0.00 0.00 0.00 87 1012.2
20260904123302 62 69 1.7 0.0 0.00 0.00 0.00 87 1012.2
20260904123010 62 69 1.7 0.0 0.00 0.00 0.00 87 1012.2
20260904123007 62 31 0.9 3.5 0.00 0.00 0.00 87 1013.0
20260904122939 62 69 1.7 0.0 0.00 0.00 0.00 87 1012.2
20260904122911 62 69 1.7 1.7 0.00 0.00 0.00 87 1012.2
20260904122840 62 38 0.0 0.0 0.00 0.00 0.00 87 1012.0
20260904122809 62 38 0.0 0.0 0.00 0.00 0.00 87 1012.0
20260904122752 62 38 0.0 0.0 0.00 0.00 0.00 87 1012.0
20260904122711 62 38 0.0 0.0 0.00 0.00 0.00 87 1012.0
20260904122645 61 38 0.0 0.0 0.00 0.00 0.00 87 1012.0
20260904122640 62 38 0.0 0.0 0.00 0.00 0.00 87 1012.0
20260904122609 61 38 0.0 0.0 0.00 0.00 0.00 87 1012.0
20260904122510 61 38 0.0 0.0 0.00 0.00 0.00 87 1012.0
20260904122501 61 76 1.7 1.7 0.00 0.00 0.00 87 1013.1
20260904122411 61 38 0.0 0.0 0.00 0.00 0.00 87 1012.0
20260904122326 61 38 0.0 0.0 0.00 0.00 0.00 87 1012.0
20260904122115 61 89 0.0 0.0 0.00 0.00 0.00 87 1012.2
20260904122109 61 38 0.0 0.0 0.00 0.00 0.00 87 1012.0
20260904122039 61 38 0.0 0.0 0.00 0.00 0.00 87 1012.0
20260904122009 61 38 0.0 0.0 0.00 0.00 0.00 87 1012.0
20260904121955 61 142 0.0 0.9 0.00 0.00 0.00 87 1013.2
20260904121946 60 89 0.0 0.0 0.00 0.00 0.00 87 1012.2
20260904121939 61 38 0.0 0.0 0.00 0.00 0.00 87 1012.0
20260904121911 61 38 0.0 0.0 0.00 0.00 0.00 87 1012.0
20260904121830 60 89 0.0 0.0 0.00 0.00 0.00 87 1012.2
20260904121811 61 89 0.0 0.0 0.00 0.00 0.00 87 1012.2
20260904121802 60 89 0.0 0.0 0.00 0.00 0.00 87 1012.2
20260904121753 60 89 0.0 0.9 0.00 0.00 0.00 86 1012.2
20260904121744 61 89 0.0 0.0 0.00 0.00 0.00 87 1012.2
20260904121615 61 89 0.0 0.0 0.00 0.00 0.00 87 1012.2
20260904121452 60 72 0.0 0.9 0.00 0.00 0.00 87 1012.9
20260904121327 60 56 1.7 0.0 0.00 0.00 0.00 86 1012.1
20260904121314 60 89 0.0 0.0 0.00 0.00 0.00 87 1012.2
20260904121302 60 89 0.0 0.0 0.00 0.00 0.00 87 1012.2
20260904121129 60 56 1.7 0.0 0.00 0.00 0.00 86 1012.1
20260904121125 60 89 0.0 0.0 0.00 0.00 0.00 87 1012.2
20260904121109 60 89 0.0 0.0 0.00 0.00 0.00 87 1012.2
20260904121101 60 89 0.0 0.0 0.00 0.00 0.00 87 1012.2
20260904120948 60 79 0.0 1.7 0.00 0.00 0.00 86 1013.0
20260904120810 60 56 1.7 0.0 0.00 0.00 0.00 86 1012.1
20260904120737 60 56 1.7 0.0 0.00 0.00 0.00 86 1012.1
20260904120530 59 56 1.7 0.0 0.00 0.00 0.00 86 1012.1
20260904120521 60 56 1.7 0.0 0.00 0.00 0.00 86 1012.1
20260904120443 60 77 0.0 0.9 0.00 0.00 0.00 86 1013.0
20260904120421 60 56 1.7 0.0 0.00 0.00 0.00 86 1012.1
20260904120321 60 56 1.7 0.0 0.00 0.00 0.00 86 1012.1
20260904120222 60 56 1.7 0.0 0.00 0.00 0.00 86 1012.1
20260904120158 60 56 1.7 0.0 0.00 0.00 0.00 86 1012.1
20260904120148 59 56 1.7 0.0 0.00 0.00 0.00 86 1012.1
20260904120008 59 56 1.7 0.0 0.00 0.00 0.00 86 1012.1
20260904115939 59 56 1.7 0.0 0.00 0.00 0.00 86 1012.1
20260904115911 59 56 1.7 1.7 0.00 0.00 0.00 86 1012.1
20260904115839 59 57 1.7 0.0 0.00 0.00 0.00 86 1011.9
20260904115808 59 57 1.7 0.0 0.00 0.00 0.00 86 1011.9
20260904115720 59 57 1.7 0.0 0.00 0.00 0.00 87 1011.9
20260904115709 59 57 1.7 0.0 0.00 0.00 0.00 87 1011.9
20260904115608 59 57 1.7 0.0 0.00 0.00 0.00 87 1011.9
20260904115541 59 57 1.7 0.0 0.00 0.00 0.00 87 1011.9
20260904115522 59 57 1.7 0.0 0.00 0.00 0.00 87 1011.9
20260904115508 59 57 1.7 0.0 0.00 0.00 0.00 87 1011.9
20260904115433 59 64 0.9 1.7 0.00 0.00 0.00 87 1013.0
20260904115409 59 57 1.7 0.0 0.00 0.00 0.00 87 1011.9
20260904115352 59 57 1.7 0.0 0.00 0.00 0.00 87 1011.9
20260904115230 59 61 0.0 0.0 0.00 0.00 0.00 87 1012.1
20260904115224 59 61 0.0 0.0 0.00 0.00 0.00 87 1012.1
20260904115220 59 57 1.7 0.0 0.00 0.00 0.00 87 1011.9
20260904115202 59 57 1.7 0.0 0.00 0.00 0.00 87 1011.9
20260904115010 59 57 1.7 0.0 0.00 0.00 0.00 87 1011.9
20260904114939 59 57 1.7 0.0 0.00 0.00 0.00 87 1011.9
20260904114928 59 52 1.7 1.7 0.00 0.00 0.00 87 1013.0
20260904114922 59 61 0.0 0.0 0.00 0.00 0.00 87 1012.1
20260904114916 59 57 1.7 1.7 0.00 0.00 0.00 87 1011.9
20260904114902 59 61 0.0 0.0 0.00 0.00 0.00 87 1012.1
20260904114608 59 61 0.0 0.0 0.00 0.00 0.00 87 1012.1
20260904114543 59 61 0.0 0.0 0.00 0.00 0.00 87 1012.1
20260904114428 59 43 1.7 1.7 0.00 0.00 0.00 87 1013.1
20260904114340 59 61 0.0 0.0 0.00 0.00 0.00 87 1012.1
20260904114309 59 61 0.0 0.0 0.00 0.00 0.00 87 1012.1
20260904114240 59 61 0.0 0.0 0.00 0.00 0.00 87 1012.1
20260904114209 59 61 0.0 0.0 0.00 0.00 0.00 87 1012.1
20260904114146 59 73 0.0 0.0 0.00 0.00 0.00 87 1012.1
20260904114140 59 61 0.0 0.0 0.00 0.00 0.00 87 1012.1
20260904114107 59 61 0.0 0.0 0.00 0.00 0.00 87 1012.1
20260904114038 59 61 0.0 0.0 0.00 0.00 0.00 87 1012.1
20260904114008 59 61 0.0 0.0 0.00 0.00 0.00 87 1012.1
20260904113948 59 73 0.0 0.0 0.00 0.00 0.00 87 1012.1
20260904113939 59 61 0.0 0.0 0.00 0.00 0.00 87 1012.1
20260904113924 59 65 0.9 1.7 0.00 0.00 0.00 87 1013.0
20260904113922 59 61 0.0 0.9 0.00 0.00 0.00 87 1012.1
20260904113823 59 73 0.0 0.0 0.00 0.00 0.00 87 1012.1
20260904113624 59 73 0.0 0.0 0.00 0.00 0.00 87 1012.1
20260904113423 59 62 0.0 0.9 0.00 0.00 0.00 87 1013.1
20260904113421 59 73 0.0 0.0 0.00 0.00 0.00 87 1012.1
20260904113340 59 73 0.0 0.0 0.00 0.00 0.00 87 1012.1
20260904113309 59 73 0.0 0.0 0.00 0.00 0.00 87 1012.1
20260904113238 59 73 0.0 0.0 0.00 0.00 0.00 87 1012.1
20260904113208 59 73 0.0 0.0 0.00 0.00 0.00 87 1012.1
20260904113149 59 75 0.0 0.0 0.00 0.00 0.00 87 1012.1
20260904113109 59 73 0.0 0.0 0.00 0.00 0.00 87 1012.1
20260904113051 59 73 0.0 0.0 0.00 0.00 0.00 87 1012.1
20260904113008 59 73 0.0 0.0 0.00 0.00 0.00 87 1012.1
20260904112938 59 73 0.0 0.0 0.00 0.00 0.00 87 1012.1
20260904112922 59 59 0.9 1.7 0.00 0.00 0.00 87 1012.9
20260904112910 59 73 0.0 1.7 0.00 0.00 0.00 87 1012.1
20260904112825 59 75 0.0 0.0 0.00 0.00 0.00 87 1012.1
20260904112608 59 75 0.0 0.0 0.00 0.00 0.00 87 1012.1
20260904112538 59 75 0.0 0.0 0.00 0.00 0.00 87 1012.1
20260904112508 59 75 0.0 0.0 0.00 0.00 0.00 87 1012.1
20260904112418 59 65 0.0 1.7 0.00 0.00 0.00 87 1013.0
20260904112409 59 75 0.0 0.0 0.00 0.00 0.00 87 1012.1
20260904112338 59 75 0.0 0.0 0.00 0.00 0.00 87 1012.1
20260904112308 59 75 0.0 0.0 0.00 0.00 0.00 87 1012.1
20260904112242 59 37 1.7 0.0 0.00 0.00 0.00 87 1012.1
20260904112238 59 75 0.0 0.0 0.00 0.00 0.00 87 1012.1
20260904112208 59 75 0.0 0.0 0.00 0.00 0.00 87 1012.1
20260904112141 59 75 0.0 0.0 0.00 0.00 0.00 87 1012.1
20260904112109 59 75 0.0 0.0 0.00 0.00 0.00 87 1012.1
20260904112011 59 75 0.0 0.0 0.00 0.00 0.00 87 1012.1
20260904111939 59 75 0.0 0.0 0.00 0.00 0.00 87 1012.1
20260904111926 59 37 1.7 0.0 0.00 0.00 0.00 87 1012.1
20260904111922 59 75 0.0 0.9 0.00 0.00 0.00 87 1012.1
20260904111914 59 62 0.9 1.7 0.00 0.00 0.00 87 1013.0
20260904111740 59 37 1.7 0.0 0.00 0.00 0.00 87 1012.1
20260904111709 59 37 1.7 0.0 0.00 0.00 0.00 87 1012.1
20260904111640 59 37 1.7 0.0 0.00 0.00 0.00 87 1012.1
20260904111608 59 37 1.7 0.0 0.00 0.00 0.00 87 1012.1
20260904111528 59 37 1.7 0.0 0.00 0.00 0.00 87 1012.1
20260904111524 59 37 1.7 0.0 0.00 0.00 0.00 87 1012.1
20260904111409 59 76 0.9 1.7 0.00 0.00 0.00 87 1013.0
20260904111339 59 37 1.7 0.0 0.00 0.00 0.00 87 1012.1
20260904111308 59 37 1.7 0.0 0.00 0.00 0.00 87 1012.1
20260904111240 59 37 1.7 0.0 0.00 0.00 0.00 87 1012.1
20260904111215 59 48 0.9 0.0 0.00 0.00 0.00 86 1012.1
20260904111208 59 37 1.7 0.0 0.00 0.00 0.00 87 1012.1
20260904111145 59 57 0.0 0.0 0.00 0.00 0.00 86 1012.3
20260904111136 59 37 1.7 0.0 0.00 0.00 0.00 87 1012.1
20260904110939 59 37 1.7 0.0 0.00 0.00 0.00 87 1012.1
20260904110928 59 57 0.0 0.0 0.00 0.00 0.00 86 1012.3
20260904110910 59 37 1.7 1.7 0.00 0.00 0.00 87 1012.1
20260904110905 59 51 0.9 1.7 0.00 0.00 0.00 87 1012.9
20260904110847 59 57 0.0 0.0 0.00 0.00 0.00 87 1012.3
20260904110837 59 57 0.0 0.0 0.00 0.00 0.00 86 1012.3
20260904110715 59 57 0.0 0.0 0.00 0.00 0.00 86 1012.3
20260904110702 59 57 0.0 0.0 0.00 0.00 0.00 86 1012.3
20260904110408 59 57 0.0 0.0 0.00 0.00 0.00 86 1012.3
20260904110403 59 71 0.9 1.7 0.00 0.00 0.00 86 1012.9
20260904110353 59 57 0.0 0.9 0.00 0.00 0.00 86 1012.3
20260904110322 59 57 0.0 0.0 0.00 0.00 0.00 86 1012.3
20260904110221 59 57 0.0 0.0 0.00 0.00 0.00 86 1012.3
20260904110153 59 57 0.0 0.0 0.00 0.00 0.00 86 1012.3
20260904110031 59 57 0.0 0.0 0.00 0.00 0.00 86 1012.3
20260904110023 59 57 0.0 0.0 0.00 0.00 0.00 86 1012.3
20260904105859 59 68 0.0 1.7 0.00 0.00 0.00 86 1013.1
20260904105839 59 48 0.9 0.0 0.00 0.00 0.00 86 1012.1
20260904105826 59 48 0.9 0.0 0.00 0.00 0.00 86 1012.1
20260904105808 59 48 0.9 0.0 0.00 0.00 0.00 86 1012.1
20260904105739 59 48 0.9 0.0 0.00 0.00 0.00 86 1012.1
20260904105708 59 48 0.9 0.0 0.00 0.00 0.00 86 1012.1
20260904105652 59 48 0.9 0.0 0.00 0.00 0.00 86 1012.1
20260904105615 59 48 0.9 0.0 0.00 0.00 0.00 86 1012.1
20260904105602 59 48 0.9 0.0 0.00 0.00 0.00 86 1012.1
20260904105354 59 46 0.9 1.7 0.00 0.00 0.00 86 1013.1
20260904105310 59 48 0.9 0.0 0.00 0.00 0.00 86 1012.1
20260904105208 59 48 0.9 0.0 0.00 0.00 0.00 86 1012.1
20260904105108 59 48 0.9 0.0 0.00 0.00 0.00 86 1012.1
20260904105039 59 48 0.9 0.0 0.00 0.00 0.00 86 1012.1
20260904105008 59 48 0.9 0.0 0.00 0.00 0.00 86 1012.1
20260904104938 59 48 0.9 0.0 0.00 0.00 0.00 86 1012.1
20260904104914 59 48 0.9 1.7 0.00 0.00 0.00 86 1012.1
20260904104849 59 65 0.9 1.7 0.00 0.00 0.00 86 1013.2
20260904104809 59 48 1.7 0.0 0.00 0.00 0.00 86 1012.0
20260904104739 59 48 1.7 0.0 0.00 0.00 0.00 86 1012.0
20260904104708 59 48 1.7 0.0 0.00 0.00 0.00 86 1012.0
20260904104639 59 48 1.7 0.0 0.00 0.00 0.00 86 1012.0
20260904104612 59 48 1.7 0.0 0.00 0.00 0.00 85 1012.0
20260904104608 59 48 1.7 0.0 0.00 0.00 0.00 86 1012.0
20260904104540 59 48 1.7 0.0 0.00 0.00 0.00 86 1012.0
20260904104509 59 48 1.7 0.0 0.00 0.00 0.00 86 1012.0
20260904104438 59 48 1.7 0.0 0.00 0.00 0.00 86 1012.0
20260904104416 59 48 1.7 0.0 0.00 0.00 0.00 85 1012.0
20260904104408 59 48 1.7 0.0 0.00 0.00 0.00 86 1012.0
20260904104343 59 63 0.9 1.7 0.00 0.00 0.00 86 1013.0
20260904104339 59 48 1.7 0.0 0.00 0.00 0.00 86 1012.0
20260904104308 59 48 1.7 0.0 0.00 0.00 0.00 86 1012.0
20260904104248 59 48 1.7 0.0 0.00 0.00 0.00 86 1012.0
20260904104113 59 76 1.7 0.0 0.00 0.00 0.00 85 1011.9
20260904104109 59 48 1.7 0.0 0.00 0.00 0.00 86 1012.0
20260904104059 59 48 1.7 0.0 0.00 0.00 0.00 86 1012.0
20260904104049 59 48 1.7 0.0 0.00 0.00 0.00 85 1012.0
20260904103910 59 48 1.7 1.7 0.00 0.00 0.00 86 1012.0
20260904103840 59 46 1.7 1.7 0.00 0.00 0.00 86 1013.0
20260904103809 59 76 1.7 0.0 0.00 0.00 0.00 86 1011.9
20260904103711 59 76 1.7 0.0 0.00 0.00 0.00 86 1011.9
20260904103659 59 76 1.7 0.0 0.00 0.00 0.00 85 1011.9
20260904103650 59 76 1.7 0.0 0.00 0.00 0.00 86 1011.9
20260904103509 59 76 1.7 0.0 0.00 0.00 0.00 85 1011.9
20260904103438 59 76 1.7 0.0 0.00 0.00 0.00 86 1011.9
20260904103408 59 76 1.7 0.0 0.00 0.00 0.00 86 1011.9
20260904103335 59 64 0.9 1.7 0.00 0.00 0.00 85 1012.9
20260904103325 59 76 1.7 0.0 0.00 0.00 0.00 86 1011.9
20260904103139 59 76 1.7 0.0 0.00 0.00 0.00 86 1011.9
20260904103108 59 76 1.7 0.0 0.00 0.00 0.00 85 1011.9
20260904103039 59 76 1.7 0.0 0.00 0.00 0.00 85 1011.9
20260904103009 59 76 1.7 0.0 0.00 0.00 0.00 86 1011.9
20260904102938 59 76 1.7 0.0 0.00 0.00 0.00 85 1011.9
20260904102910 59 76 1.7 1.7 0.00 0.00 0.00 85 1011.9
20260904102840 59 66 0.0 0.0 0.00 0.00 0.00 86 1011.8
20260904102831 59 55 1.7 1.7 0.00 0.00 0.00 86 1012.9
20260904102808 59 66 0.0 0.0 0.00 0.00 0.00 86 1011.8
20260904102738 59 66 0.0 0.0 0.00 0.00 0.00 86 1011.8
20260904102708 59 66 0.0 0.0 0.00 0.00 0.00 86 1011.8
20260904102649 59 66 0.0 0.0 0.00 0.00 0.00 85 1011.8
20260904102639 59 66 0.0 0.0 0.00 0.00 0.00 86 1011.8
20260904102619 59 66 0.0 0.0 0.00 0.00 0.00 85 1011.8
20260904102509 59 66 0.0 0.0 0.00 0.00 0.00 85 1011.8
20260904102451 59 66 0.0 0.0 0.00 0.00 0.00 85 1011.8
20260904102408 59 66 0.0 0.0 0.00 0.00 0.00 85 1011.8
20260904102326 59 79 0.0 1.7 0.00 0.00 0.00 85 1013.0
20260904102324 59 66 0.0 0.0 0.00 0.00 0.00 85 1011.8
20260904102124 59 66 0.0 0.0 0.00 0.00 0.00 85 1011.8
20260904101938 59 66 0.0 0.0 0.00 0.00 0.00 85 1011.8
20260904101910 59 66 0.0 0.9 0.00 0.00 0.00 85 1011.8
20260904101822 59 60 0.9 1.7 0.00 0.00 0.00 85 1012.6
20260904101808 59 52 0.9 0.0 0.00 0.00 0.00 85 1012.0
20260904101708 59 52 0.9 0.0 0.00 0.00 0.00 85 1012.0
20260904101608 59 52 0.9 0.0 0.00 0.00 0.00 85 1012.0
20260904101538 59 52 0.9 0.0 0.00 0.00 0.00 85 1012.0
20260904101508 59 52 0.9 0.0 0.00 0.00 0.00 85 1012.0
20260904101408 59 52 0.9 0.0 0.00 0.00 0.00 85 1012.0
20260904101338 59 52 0.9 0.0 0.00 0.00 0.00 85 1012.0
20260904101318 59 54 0.9 1.7 0.00 0.00 0.00 85 1012.7
20260904101308 59 52 0.9 0.0 0.00 0.00 0.00 85 1012.0
20260904101238 59 52 0.9 0.0 0.00 0.00 0.00 85 1012.0
20260904101208 59 52 0.9 0.0 0.00 0.00 0.00 85 1012.0
20260904101109 59 52 0.9 0.0 0.00 0.00 0.00 85 1012.0
20260904101040 59 52 0.9 0.0 0.00 0.00 0.00 85 1012.0
20260904101009 59 52 0.9 0.0 0.00 0.00 0.00 85 1012.0
20260904100919 59 69 0.0 0.0 0.00 0.00 0.00 85 1011.8
20260904100909 59 52 0.9 0.0 0.00 0.00 0.00 85 1012.0
20260904100841 59 52 0.9 1.7 0.00 0.00 0.00 85 1012.0
20260904100814 59 59 1.7 1.7 0.00 0.00 0.00 85 1012.6
20260904100808 59 69 0.0 0.0 0.00 0.00 0.00 85 1011.8
20260904100742 59 69 0.0 0.0 0.00 0.00 0.00 85 1011.8
20260904100710 59 69 0.0 0.0 0.00 0.00 0.00 85 1011.8
20260904100628 59 69 0.0 0.0 0.00 0.00 0.00 85 1011.8
20260904100621 59 69 0.0 0.0 0.00 0.00 0.00 85 1011.8
20260904100548 59 69 0.0 0.0 0.00 0.00 0.00 85 1011.8
20260904100423 59 69 0.0 0.0 0.00 0.00 0.00 85 1011.8
20260904100310 59 47 0.9 1.7 0.00 0.00 0.00 85 1012.9
20260904100249 59 69 0.0 0.0 0.00 0.00 0.00 85 1011.8
20260904100111 59 69 0.0 0.0 0.00 0.00 0.00 85 1011.8
20260904100009 59 69 0.0 0.0 0.00 0.00 0.00 85 1011.8
20260904095952 59 65 0.9 0.0 0.00 0.00 0.00 85 1011.8
20260904095940 59 69 0.0 0.0 0.00 0.00 0.00 85 1011.8
20260904095908 59 69 0.0 0.0 0.00 0.00 0.00 85 1011.8
20260904095840 59 69 0.0 0.9 0.00 0.00 0.00 85 1011.8
20260904095810 59 58 1.7 1.7 0.00 0.00 0.00 85 1012.9
20260904095709 59 65 0.9 0.0 0.00 0.00 0.00 85 1011.8
20260904095628 60 65 0.9 0.0 0.00 0.00 0.00 85 1011.8
20260904095624 59 65 0.9 0.0 0.00 0.00 0.00 85 1011.8
20260904095408 60 65 0.9 0.0 0.00 0.00 0.00 85 1011.8
20260904095338 60 65 0.9 0.0 0.00 0.00 0.00 85 1011.8
20260904095308 60 65 0.9 0.0 0.00 0.00 0.00 85 1011.8
20260904095306 60 52 1.7 1.7 0.00 0.00 0.00 85 1012.6
20260904095227 60 65 0.9 0.0 0.00 0.00 0.00 85 1011.8
20260904095101 60 45 1.7 0.0 0.00 0.00 0.00 84 1011.9
20260904095038 60 65 0.9 0.0 0.00 0.00 0.00 85 1011.8
20260904095008 60 65 0.9 0.0 0.00 0.00 0.00 85 1011.8
20260904094909 60 65 0.9 0.0 0.00 0.00 0.00 85 1011.8
20260904094853 60 65 0.9 1.7 0.00 0.00 0.00 85 1011.8
20260904094810 60 45 1.7 0.0 0.00 0.00 0.00 85 1011.9
20260904094800 60 45 1.7 1.7 0.00 0.00 0.00 85 1012.7
20260904094743 60 45 1.7 0.0 0.00 0.00 0.00 85 1011.9
20260904094735 60 45 1.7 0.0 0.00 0.00 0.00 85 1011.9
20260904094609 60 45 1.7 0.0 0.00 0.00 0.00 85 1011.9
20260904094538 60 45 1.7 0.0 0.00 0.00 0.00 85 1011.9
20260904094507 60 45 1.7 0.0 0.00 0.00 0.00 84 1011.9
20260904094440 60 45 1.7 0.0 0.00 0.00 0.00 84 1011.9
20260904094418 60 45 1.7 0.0 0.00 0.00 0.00 84 1011.9
20260904094408 60 45 1.7 0.0 0.00 0.00 0.00 84 1011.9
20260904094309 60 45 1.7 0.0 0.00 0.00 0.00 84 1011.9
20260904094300 60 60 0.9 1.7 0.00 0.00 0.00 84 1012.6
20260904094248 60 45 1.7 0.0 0.00 0.00 0.00 84 1011.9
20260904094109 60 45 1.7 0.0 0.00 0.00 0.00 84 1011.9
20260904094049 60 45 1.7 0.0 0.00 0.00 0.00 84 1011.9
20260904093908 60 45 1.7 0.0 0.00 0.00 0.00 84 1011.9
20260904093840 60 45 1.7 1.7 0.00 0.00 0.00 84 1011.9
20260904093809 60 53 1.7 0.0 0.00 0.00 0.00 84 1011.8
20260904093757 60 53 1.7 0.0 0.00 0.00 0.00 84 1011.8
20260904093709 60 53 1.7 0.0 0.00 0.00 0.00 84 1011.8
20260904093639 60 53 1.7 0.0 0.00 0.00 0.00 84 1011.8
20260904093617 60 53 1.7 0.0 0.00 0.00 0.00 84 1011.8
20260904093609 60 53 1.7 0.0 0.00 0.00 0.00 84 1011.8
20260904093551 60 53 1.7 0.0 0.00 0.00 0.00 84 1011.8
20260904093509 60 53 1.7 0.0 0.00 0.00 0.00 84 1011.8
20260904093454 60 53 1.7 0.0 0.00 0.00 0.00 84 1011.8
20260904093431 60 53 1.7 1.7 0.00 0.00 0.00 84 1011.8
20260904093424 60 53 1.7 0.0 0.00 0.00 0.00 84 1011.8
20260904093256 60 60 0.9 1.7 0.00 0.00 0.00 84 1012.7
20260904093253 60 83 0.9 0.0 0.00 0.00 0.00 84 1011.8
20260904093246 60 53 1.7 0.0 0.00 0.00 0.00 84 1011.8
20260904093234 60 53 1.7 0.0 0.00 0.00 0.00 84 1011.8
20260904092817 60 83 0.9 0.0 0.00 0.00 0.00 84 1011.8
20260904092809 60 83 0.9 0.0 0.00 0.00 0.00 84 1011.8
20260904092752 60 66 0.9 1.7 0.00 0.00 0.00 84 1012.5
20260904092739 60 83 0.9 0.0 0.00 0.00 0.00 84 1011.8
20260904092708 60 83 0.9 0.0 0.00 0.00 0.00 84 1011.8
20260904092620 60 83 0.9 0.0 0.00 0.00 0.00 83 1011.8
20260904092615 60 83 0.9 0.0 0.00 0.00 0.00 84 1011.8
20260904092603 60 83 0.9 0.0 0.00 0.00 0.00 84 1011.8
20260904092308 60 83 0.9 0.0 0.00 0.00 0.00 84 1011.8
20260904092248 60 62 0.9 1.7 0.00 0.00 0.00 84 1012.6
20260904092208 60 83 0.9 0.0 0.00 0.00 0.00 84 1011.8
20260904092139 60 83 0.9 0.0 0.00 0.00 0.00 84 1011.8
20260904092128 60 64 0.9 0.0 0.00 0.00 0.00 83 1011.8
20260904092124 60 83 0.9 0.0 0.00 0.00 0.00 83 1011.8
20260904091939 60 83 0.9 0.0 0.00 0.00 0.00 83 1011.8
20260904091908 60 83 0.9 0.0 0.00 0.00 0.00 83 1011.8
20260904091840 60 83 0.9 0.9 0.00 0.00 0.00 83 1011.8
20260904091808 60 64 0.9 0.0 0.00 0.00 0.00 83 1011.8
20260904091744 60 51 0.0 1.7 0.00 0.00 0.00 83 1012.6
20260904091709 60 64 0.9 0.0 0.00 0.00 0.00 83 1011.8
20260904091656 60 64 0.9 0.0 0.00 0.00 0.00 83 1011.8
20260904091649 60 64 0.9 0.0 0.00 0.00 0.00 83 1011.8
20260904091521 60 64 0.9 0.0 0.00 0.00 0.00 83 1011.8
20260904091409 60 64 0.9 0.0 0.00 0.00 0.00 83 1011.8
20260904091308 60 64 0.9 0.0 0.00 0.00 0.00 83 1011.8
20260904091248 60 64 0.9 0.0 0.00 0.00 0.00 83 1011.8
20260904091238 60 70 0.9 1.7 0.00 0.00 0.00 83 1012.5
20260904091109 60 64 0.9 0.0 0.00 0.00 0.00 83 1011.8
20260904091039 60 64 0.9 0.0 0.00 0.00 0.00 83 1011.8
20260904091025 60 62 0.9 0.0 0.00 0.00 0.00 82 1011.7
20260904091008 60 64 0.9 0.0 0.00 0.00 0.00 83 1011.8
20260904090951 60 64 0.9 0.0 0.00 0.00 0.00 83 1011.8
20260904090908 60 64 0.9 0.0 0.00 0.00 0.00 83 1011.8
20260904090839 60 64 0.9 0.9 0.00 0.00 0.00 83 1011.8
20260904090809 60 62 0.9 0.0 0.00 0.00 0.00 83 1011.7
20260904090734 60 87 0.0 1.7 0.00 0.00 0.00 82 1012.6
20260904090728 61 62 0.9 0.0 0.00 0.00 0.00 82 1011.7
20260904090721 60 62 0.9 0.0 0.00 0.00 0.00 82 1011.7
20260904090657 61 62 0.9 1.7 0.00 0.00 0.00 82 1011.7
20260904090649 60 62 0.9 0.0 0.00 0.00 0.00 82 1011.7
20260904090529 61 59 1.7 0.0 0.00 0.00 0.00 82 1012.0
20260904090522 60 62 0.9 0.0 0.00 0.00 0.00 82 1011.7
20260904090459 61 59 1.7 0.0 0.00 0.00 0.00 82 1012.0
20260904090452 61 59 1.7 0.0 0.00 0.00 0.00 82 1012.0
20260904090447 61 59 1.7 0.0 0.00 0.00 0.00 82 1012.0
20260904090427 61 59 1.7 0.0 0.00 0.00 0.00 82 1012.0
20260904090421 61 62 0.9 0.0 0.00 0.00 0.00 82 1011.7
20260904090406 61 62 0.9 0.0 0.00 0.00 0.00 82 1011.7
20260904090343 61 62 0.9 0.0 0.00 0.00 0.00 82 1011.7
20260904090330 61 62 0.9 0.0 0.00 0.00 0.00 82 1011.7
20260904090231 61 59 1.7 1.7 0.00 0.00 0.00 82 1012.5